[[{"header":{"parameterUnit":"m.s-1","parameterCategory":1,"la1":31.0,"la2":29.5877,"lo1":-88.7671,"lo2":-86.6584,"dy":0.0162,"dx":0.0185,"nx":115,"ny":88,"refTime":"2023-06-13T06:00:00:Z","depth":0,"parameterNumber":2,"parameterNumberName":"U-component_of_WINDS"},"data":[0.0,0.0,0.0,0.0,0.0,0.0,0.0,0.0,0.0,0.0,0.0,0.0,0.0,0.0,0.0,0.0,0.0,0.0,0.0,0.0,0.0,0.0,0.0,0.0,0.0,0.0,0.0,0.0,0.0,0.0,0.0,0.0,0.0,0.0,0.0,0.0,0.0,0.0,0.0,0.0,0.0,0.0,0.0,0.0,0.0,0.0,0.0,0.0,0.0,0.0,0.0,0.0,0.0,0.0,0.0,0.0,0.0,0.0,0.0,0.0,0.0,0.0,0.0,0.0,0.0,0.0,0.0,0.0,0.0,0.0,0.0,0.0,0.0,0.0,0.0,0.0,0.0,0.0,0.0,0.0,0.0,0.0,0.0,0.0,0.0,0.0,0.0,0.0,0.0,0.0,0.0,0.0,0.0,0.0,0.0,0.0,0.0,0.0,0.0,0.0,0.0,0.0,0.0,0.0,0.0,0.0,0.0,0.0,0.0,0.0,0.0,0.0,0.0,0.0,0.0,0.0,0.0,0.0,0.0,0.0,0.0,0.0,0.0,0.0,0.0,0.0,0.0,0.0,0.0,0.0,0.0,0.0,0.0,0.0,0.0,0.0,0.0,0.0,0.0,0.0,0.0,0.0,0.0,0.0,0.0,0.0,0.0,0.0,0.0,0.0,0.0,0.0,0.0,0.0,0.0,0.0,0.0,0.0,0.0,0.0,0.0,0.0,0.0,0.0,0.0,0.0,0.0,0.0,0.0,0.0,0.0,0.0,0.0,0.0,0.0,0.0,0.0,0.0,0.0,0.0,0.0,0.0,0.0,0.0,0.0,0.0,0.0,0.0,0.0,0.0,0.0,0.0,0.0,0.0,0.0,0.0,0.0,0.0,0.0,0.0,0.0,0.0,0.0,0.0,0.0,0.0,0.0,0.0,0.0,0.0,0.0,0.0,0.0,0.0,0.0,0.0,0.0,0.0,0.0,0.0,0.0,0.0,0.0,0.0,0.0,0.0,0.0,0.0,0.0,0.0,0.0,0.0,0.0,0.0,0.0,0.0,0.0,0.0,0.0,0.0,0.0,0.0,0.0,0.0,0.0,0.0,0.0,0.0,0.0,0.0,0.0,0.0,0.0,0.0,0.0,0.0,0.0,0.0,0.0,0.0,0.0,0.0,0.0,0.0,0.0,0.0,0.0,0.0,0.0,0.0,0.0,0.0,0.0,0.0,0.0,0.0,0.0,0.0,0.0,0.0,0.0,0.0,0.0,0.0,0.0,0.0,0.0,0.0,0.0,0.0,0.0,0.0,0.0,0.0,0.0,0.0,0.0,0.0,0.0,0.0,0.0,0.0,0.0,0.0,0.0,0.0,0.0,0.0,0.0,0.0,0.0,0.0,0.0,0.0,0.0,0.0,0.0,0.0,0.0,0.0,0.0,0.0,0.0,0.0,0.0,0.0,0.0,0.0,0.0,0.0,0.0,0.0,0.0,0.0,0.0,0.0,0.0,0.0,0.0,0.0,0.0,0.0,0.0,0.0,0.0,0.0,0.0,0.0,0.0,0.0,0.0,0.0,0.0,0.0,0.0,0.0,0.0,0.0,0.0,0.0,0.0,0.0,0.0,0.0,0.0,0.0,0.0,0.0,0.0,0.0,0.0,0.0,0.0,0.0,0.0,0.0,0.0,0.0,0.0,0.0,0.0,0.0,0.0,0.0,0.0,0.0,0.0,0.0,0.0,0.0,0.0,0.0,0.0,0.0,0.0,0.0,0.0,0.0,0.0,0.0,0.0,0.0,0.0,0.0,0.0,0.0,0.0,0.0,0.0,0.0,0.0,0.0,0.0,0.0,0.0,0.0,0.0,0.0,0.0,0.0,0.0,0.0,0.0,0.0,0.0,0.0,0.0,0.0,0.0,0.0,0.0,0.0,0.0,0.0,0.0,0.0,0.0,0.0,0.0,0.0,0.0,0.0,0.0,0.0,0.0,0.0,0.0,0.0,0.0,0.0,0.0,0.0,0.0,0.0,0.0,0.0,0.0,0.0,0.0,0.0,0.0,0.0,0.0,0.0,0.0,0.0,0.0,0.0,0.0,0.0,0.0,0.0,0.0,0.0,0.0,0.0,0.0,0.0,0.0,0.0,0.0,0.0,0.0,0.0,0.0,0.0,0.0,0.0,0.0,0.0,0.0,0.0,0.0,0.0,0.0,0.0,0.0,0.0,0.0,0.0,0.0,0.0,0.0,0.0,0.0,0.0,0.0,0.0,0.0,0.0,0.0,0.0,0.0,0.0,0.0,0.0,0.0,0.0,0.0,0.0,0.0,0.0,0.0,0.0,0.0,0.0,0.0,0.0,0.0,0.0,0.0,0.0,0.0,0.0,0.0,0.0,0.0,0.0,0.0,0.0,0.0,0.0,0.0,0.0,0.0,0.0,0.0,0.0,0.0,0.0,0.0,0.0,0.0,0.0,0.0,0.0,0.0,0.0,0.0,0.0,0.0,0.0,0.0,0.0,0.0,0.0,0.0,0.0,0.0,0.0,0.0,0.0,0.0,0.0,0.0,0.0,0.0,0.0,0.0,0.0,0.0,0.0,0.0,0.0,0.0,0.0,0.0,0.0,0.0,0.0,0.0,0.0,0.0,0.0,0.0,0.0,0.0,0.0,0.0,0.0,0.0,0.0,0.0,0.0,0.0,0.0,0.0,0.0,0.0,0.0,0.0,0.0,0.0,0.0,0.0,0.0,0.0,0.0,0.0,0.0,0.0,0.0,0.0,0.0,0.0,0.0,0.0,0.0,0.0,0.0,0.0,0.0,0.0,0.0,0.0,0.0,0.0,0.0,0.0,0.0,0.0,0.0,0.0,0.0,0.0,0.0,0.0,0.0,0.0,0.0,0.0,0.0,0.0,0.0,0.0,0.0,0.0,0.0,0.0,0.0,0.0,0.0,0.0,0.0,0.0,0.0,0.0,0.0,0.0,0.0,0.0,0.0,0.0,0.0,0.0,0.0,0.0,0.0,0.0,0.0,0.0,0.0,0.0,0.0,0.0,0.0,0.0,0.0,0.0,0.0,0.0,0.0,0.0,0.0,0.0,0.0,0.0,0.0,0.0,0.0,0.0,0.0,0.0,0.0,0.0,0.0,0.0,0.0,0.0,0.0,0.0,0.0,0.0,0.0,0.0,0.0,0.0,0.0,0.0,0.0,0.0,0.0,0.0,0.0,0.0,0.0,0.0,0.0,0.0,0.0,0.0,0.0,0.0,0.0,0.0,0.0,0.0,0.0,0.0,0.0,0.0,0.0,0.0,0.0,0.0,0.0,0.0,0.0,0.0,0.0,0.0,0.0,0.0,0.0,0.0,0.0,0.0,0.0,0.0,0.0,0.0,0.0,0.0,0.0,0.0,0.0,0.0,0.0,0.0,0.0,0.0,0.0,0.0,0.0,0.0,0.0,0.0,0.0,0.0,0.0,0.0,0.0,0.0,0.0,0.0,0.0,0.0,0.0,0.0,0.0,0.0,0.0,0.0,0.0,0.0,0.0,0.0,0.0,0.0,0.0,0.0,0.0,0.0,0.0,0.0,0.0,0.0,0.0,0.0,0.0,0.0,0.0,0.0,0.0,0.0,0.0,0.0,0.0,0.0,0.0,0.0,0.0,0.0,0.0,0.0,0.0,0.0,0.0,0.0,0.0,0.0,0.0,0.0,0.0,0.0,0.0,0.0,0.0,0.0,0.0,0.0,0.0,0.0,0.0,0.0,0.0,0.0,0.0,0.0,0.0,0.0,0.0,0.0,0.0,0.0,0.0,0.0,0.0,0.0,0.0,0.0,0.0,0.0,0.0,0.0,0.0,0.0,0.0,0.0,0.0,0.0,0.0,0.0,0.0,0.0,0.0,0.0,0.0,0.0,0.0,0.0,0.0,0.0,0.0,0.0,0.0,0.0,0.0,0.0,0.0,0.0,0.0,0.0,0.0,0.0,0.0,0.0,0.0,0.0,0.0,0.0,0.0,0.0,0.0,0.0,0.0,0.0,0.0,0.0,0.0,0.0,0.0,0.0,0.0,0.0,0.0,0.0,0.0,0.0,0.0,0.0,0.0,0.0,0.0,0.0,0.0,0.0,0.0,0.0,0.0,0.0,0.0,0.0,0.0,0.0,0.0,0.0,0.0,0.0,0.0,0.0,0.0,0.0,0.0,0.0,0.0,0.0,0.0,0.0,0.0,0.0,0.0,0.0,0.0,0.0,0.0,0.0,0.0,0.0,0.0,0.0,0.0,0.0,0.0,0.0,0.0,0.1357,0.0,0.0,0.0,0.0,0.0,0.0,0.0,0.0,0.0,0.0,0.0,0.0,0.0,0.0,0.0,0.0,0.0,0.0,0.0,0.0,0.0,0.0,0.0,0.0,0.0,0.0,0.0,0.0,0.0,0.0,0.0,0.0,0.0,0.0,0.0,0.0,0.0,0.0,0.0,0.0,0.0,0.0,0.0,0.0,0.0,0.0,0.0,0.0,0.0,0.0,0.0,0.0,0.0,0.0,0.0,0.0,0.0,0.0,0.0,0.0,0.0,0.0,0.0,0.0,0.0,0.0,0.0,0.0,0.0,0.0,0.0,0.0,0.0,0.0,0.0,0.0,0.0,0.0,0.0,0.0,0.0,0.0,0.0,0.0,0.0,0.0,0.0,0.0,0.0,0.0,0.0,0.0,0.0,0.0,0.0,0.0,0.0,0.0,0.0,0.0,0.0,0.0,0.0,0.0,0.0,0.0,0.0,0.0,0.0,0.0,0.3326,0.3178,0.3028,0.2669,0.2055,0.0,0.0,0.0,0.0,0.0,0.0,0.0,0.0,0.0,0.0,0.0,0.0,0.0,0.0,0.0,0.0,0.0,0.0,0.0,0.0,0.0,0.0,0.0,0.0,0.0,0.0,0.0,0.0,0.0,0.0,0.0,0.0,0.0,0.0,0.0,0.0,0.0,0.0,0.0,0.0,0.0,0.0,0.0,0.0,0.0,0.0,0.0,0.0,0.0,0.0,0.0,0.0,0.0,0.0,0.0,0.0,0.0,0.0,0.0,0.0,0.0,0.0,0.0,0.0,0.0,0.0,0.0,0.0,0.0,0.0,0.0,0.0,0.0,0.0,0.0,0.0,0.0,0.0,0.0,0.0,0.0,0.0,0.0,0.0,0.0,0.0,0.0,0.0,0.0,0.0,0.0,0.0,0.0,0.0,0.0,0.0,0.0,0.0,0.0,0.0,0.0,0.0,0.0,0.0,0.0,0.0,0.0,0.0,0.0,0.0,0.0,0.0,0.2975,0.2537,0.2375,0.0,0.0,0.0,0.0,0.0,0.0,0.0,0.0,0.0,0.0,0.0,0.0,0.0,0.0,0.0,0.0,0.0,0.0,0.0,0.0,0.0,0.0,0.0,0.0,0.0,0.0,0.0,0.0,0.0,0.0,0.0,0.0,0.0,0.0,0.0,0.0,0.0,0.0,0.0,0.0,0.0,0.0,0.0,0.0,0.0,0.0,0.0,0.0,0.0,0.0,0.0,0.0,0.0,0.0,0.0,0.0,0.0,0.0,0.0,0.0,0.0,0.0,0.0,0.0,0.0,0.0,0.0,0.0,0.0,0.0,0.0,0.0,0.0,0.0,0.0,0.0,0.0,0.0,0.0,0.0,0.0,0.0,0.0,0.0,0.0,0.0,0.0,0.0,0.0,0.0,0.0,0.0,0.0,0.0,0.0,0.0,0.0,0.0,0.0,0.0,0.0,0.0,0.0,0.0,0.0,0.0,0.0,0.0,0.0,0.0,0.3237,0.4601,0.3524,0.0,0.1844,0.0,0.0,0.0,0.0,0.0,0.0,0.0,0.0,0.0,0.0,0.0,0.0,0.0,0.0,0.0,0.0,0.0,0.0,0.0,0.0,0.0,0.0,0.0,0.0,0.0,0.0,0.0,0.0,0.0,0.0,0.0,0.0,0.0,0.0,0.0,0.0,0.0,0.0,0.0,0.0,0.0,0.0,0.0,0.0,0.0,0.0,0.0,0.0,0.0,0.0,0.0,0.0,0.0,0.0,0.0,0.0,0.0,0.0,0.0,0.0,0.0,0.0,0.0,0.0,0.0,0.0,0.0,0.0,0.0,0.0,0.0,0.0,0.0,0.0,0.0,0.0,0.0,0.0,0.0,0.0,0.0,0.0,0.0,0.0,0.0,0.0,0.0,0.0,0.0,0.0,0.0,0.0,0.0,0.0,0.0,0.0,0.0,0.0,0.0,0.0,0.0,0.0,0.0,0.0,0.0,0.0,0.0,0.0,0.0,0.0,0.3173,0.3733,0.3179,0.2352,0.0,0.0,0.0,0.0,0.0,0.0,0.0,0.0,0.0,0.0,0.0,0.0,0.0,0.0,0.0,0.0,0.0,0.0,0.0,0.0,0.0,0.0,0.0,0.0,0.0,0.0,0.0,0.0,0.0,0.0,0.0,0.0,0.0,0.0,0.0,0.0,0.0,0.0,0.0,0.0,0.0,0.0,0.0,0.0,0.0,0.0,0.0,0.0,0.0,0.0,0.0,0.0,0.0,0.0,0.0,0.0,0.0,0.0,0.0,0.0,0.0,0.0,0.0,0.0,0.0,0.0,0.0,0.0,0.0,0.0,0.0,0.0,0.0,0.0,0.0,0.0,0.0,0.0,0.0,0.0,0.0,0.0,0.0,0.0,0.0,0.0,0.0,0.0,0.0,0.0,0.0,0.0,0.0,0.0,0.0,0.0,0.0,0.0,0.0,0.0,0.0,0.0,0.0,0.0,0.0,0.0,0.0,0.0,0.0,0.0,0.2905,0.2891,0.2893,0.2789,0.2385,0.1651,0.0,0.0,0.0,0.0,0.0,0.0,0.0,0.0,0.0,0.0,0.0,0.0,0.0,0.0,0.0,0.0,0.0,0.0,0.0,0.0,0.0,0.0,0.0,0.0,0.0,0.0,0.0,0.0,0.0,0.0,0.0,0.0,0.0,0.0,0.0,0.0,0.0,0.0,0.0,0.0,0.0,0.0,0.0,0.0,0.0,0.0,0.0,0.0,0.0,0.0,0.0,0.0,0.0,0.0,0.0,0.0,0.0,0.0,0.0,0.0,0.0,0.0,0.0,0.0,0.0,0.0,0.0,0.0,0.0,0.0,0.0,0.0,0.0,0.0,0.0,0.0,0.0,0.0,0.0,0.0,0.0,0.0,0.0,0.0,0.0,0.0,0.0,0.0,0.0,0.0,0.0,0.0,0.0,0.0,0.0,0.0,0.0,0.0,0.0,0.0,0.0,0.0,0.0,0.0,0.0,0.0,0.0,0.0,0.4997,0.3146,0.2269,0.2676,0.2659,0.2875,0.0,0.0,0.0,0.0,0.0,0.0,0.0,0.0,0.0,0.0,0.0,0.0,0.0,0.0,0.0,0.0,0.0,0.0,0.0,0.0,0.0,0.0,0.0,0.0,0.0,0.0,0.0,0.0,0.0,0.0,0.0,0.0,0.0,0.0,0.0,0.0,0.0,0.0,0.0,0.0,0.0,0.0,0.0,0.0,0.0,0.0,0.0,0.0,0.0,0.0,0.0,0.0,0.0,0.0,0.0,0.0,0.0,0.0,0.0,0.0,0.0,0.0,0.0,0.0,0.0,0.0,0.0,0.0,0.0,0.0,0.0,0.0,0.0,0.0,0.0,0.0,0.0,0.0,0.0,0.0,0.0,0.0,0.0,0.0,0.0,0.0,0.0,0.0,0.0,0.0,0.0,0.0,0.0,0.0,0.0,0.0,0.0,0.0,0.0,0.0,0.0,0.0,0.0,0.0,0.0,0.0,0.0,0.0,0.0,0.3271,0.2449,0.2019,0.2122,0.2096,0.1839,0.0,0.0,0.0,0.0,0.0,0.0,0.0,0.0,0.0,0.0,0.0,0.0,0.0,0.0,0.0,0.0,0.0,0.0,0.0,0.0,0.0,0.0,0.0,0.0,0.0,0.0,0.0,0.0,0.0,0.0,0.0,0.0,0.0,0.0,0.0,0.0,0.0,0.0,0.0,0.0,0.0,0.0,0.0,0.0,0.0,0.0,0.0,0.0,0.0,0.0,0.0,0.0,0.0,0.0,0.0,0.0,0.0,0.0,0.0,0.0,0.0,0.0,0.0,0.0,0.0,0.0,0.0,0.0,0.0,0.0,0.0,0.0,0.0,0.0,0.0,0.0,0.0,0.0,0.0,0.0,0.0,0.0,0.0,0.0,0.0,0.0,0.0,0.0,0.0,0.0,0.0,0.0,0.0,0.0,0.0,0.0,0.0,0.0,0.0,0.0,0.0,0.0,0.0,0.0,0.0,0.0,0.0,0.0,0.0,0.2251,0.0,0.1863,0.1512,0.1041,0.0509,0.0,0.0,0.0,0.0,0.0,0.0,0.0,0.0,0.0,0.0,0.0,0.0,0.0,0.0,0.0,0.0,0.0,0.0,0.0,0.0,0.0,0.0,0.0,0.0,0.0,0.0,0.0,0.0,0.0,0.0,0.0,0.0,0.0,0.0,0.0,0.0,0.0,0.0,0.0,0.0,0.0,0.0,0.0,0.0,0.0,0.0,0.0,0.0,0.0,0.0,0.0,0.0,0.0,0.0,0.0,0.0,0.0,0.0,0.0,0.0,0.0,0.0,0.0,0.0,0.0,0.0,0.0,0.0,0.0,0.0,0.0,0.0,0.0,0.0,0.0,0.0,0.0,0.0,0.0,0.0,0.0,0.0,0.0,0.0,0.0,0.0,0.0,0.0,0.0,0.0,0.0,0.0,0.0,0.0,0.0,0.0,0.0,0.0,0.0,0.0,0.0,0.0,0.0,0.0,0.0,0.0,0.0,0.0,0.2238,0.2262,0.2053,0.1555,0.0851,-0.048,-0.0985,0.0,0.0,0.0,0.0,0.0,0.0,0.0,0.0,0.0,0.0,0.0,0.0,0.0,0.0,0.0,0.0,0.0,0.0,0.0,0.0,0.0,0.0,0.0,0.0,0.0,0.0,0.0,0.0,0.0,0.0,0.0,0.0,0.0,0.0,0.0,0.0,0.0,0.0,0.0,0.0,0.0,0.0,0.0,0.0,0.0,0.0,0.0,0.0,0.0,0.0,0.0,0.0,0.0,0.0,0.0,0.0,0.0,0.0,0.0,0.0,0.0,0.0,0.0,0.0,0.0,0.0,0.0,0.0,0.0,0.0,0.0,0.0,0.0,0.0,0.0,0.0,0.0,0.0,0.0,0.0,0.0,0.0,0.0,0.0,0.0,0.0,0.0,0.0,0.0,0.0,0.0,0.0,0.0,0.0,0.0,0.0,0.0,0.0,0.0,0.0,0.0,0.0,0.0,0.0,0.0,0.0,0.0,0.0,0.0,0.1484,0.1058,0.0193,-0.1104,-0.125,-0.1418,0.0,0.0,0.0,0.0,0.0,0.0,0.0,0.0,0.0,0.0,0.0,0.0,0.0,0.0,0.0,0.0,0.0,0.0,0.0,0.0,0.0,0.0,0.0,0.0,0.0,0.0,0.0,0.0,0.0,0.0,0.0,0.0,0.0,0.0,0.0,0.0,0.0,0.0,0.0,0.0,0.0,0.0,0.0,0.0,0.0,0.0,0.0,0.0,0.0,0.0,0.0,0.0,0.0,0.0,0.0,0.0,0.0,0.0,0.0,0.0,0.0,0.0,0.0,0.0,0.0,0.0,0.0,0.0,0.0,0.0,0.0,0.0,0.0,0.0,0.0,0.0,0.0,0.0,0.0,0.0,0.0,0.0,0.0,0.0,0.0,0.0,0.0,0.0,0.0,0.0,0.0,0.0,0.0,0.0,0.0,0.0,0.0,0.0,0.0,0.0,0.0,0.0,0.0,0.0,0.0,0.0,0.0,0.0,0.0,-0.0761,-0.0836,-0.1509,-0.2893,-0.2764,-0.2528,-0.2234,0.0,0.0,0.0,0.0,0.0,0.0,0.0,0.0,0.0,0.0,0.0,0.0,0.0,0.0,0.0,0.0,0.0,0.0,0.0,0.0,0.0,0.0,0.0,0.0,0.0,0.0,0.0,0.0,0.0,0.0,0.0,0.0,0.0,0.0,0.0,0.0,0.0,0.0,0.0,0.0,0.0,0.0,0.0,0.0,0.0,0.0,0.0,0.0,0.0,0.0,0.0,0.0,0.0,0.0,0.0,0.0,0.0,0.0,0.0,0.0,0.0,0.0,0.0,0.0,0.0,0.0,0.0,0.0,0.0,0.0,0.0,0.0,0.0,0.0,0.0,0.0,0.0,0.0,0.0,0.0,0.0,0.0,0.0,0.0,0.0,0.0,0.0,0.0,0.0,0.0,0.0,0.0,0.0,0.0,0.0,0.0,0.0,0.0,0.0,0.0,0.0,0.0,0.0,0.0,0.0,0.0,0.0,0.0,-0.4399,-0.359,-0.3612,-0.4529,-0.4903,-0.4294,0.0,0.0,0.0,0.0,0.0,0.0,0.0,0.0,0.0,0.0,0.0,0.0,0.0,0.0,0.0,0.0,0.0,0.0,0.0,0.0,0.0,0.0,0.0,0.0,0.0,0.0,0.0,0.0,0.0,0.0,0.0,0.0,0.0,0.0,0.0,0.0,0.0,0.0,0.0,0.0,0.0,0.0,0.0,0.0,0.0,0.0,0.0,0.0,0.0,0.0,0.0,0.0,0.0,0.0,0.0,0.0,0.0,0.0,0.0,0.0,0.0,0.0,0.0,0.0,0.0,0.0,0.0,0.0,0.0,0.0,0.0,0.0,0.0,0.0,0.0,0.0,0.0,0.0,0.0,0.0,0.0,0.0,0.0,0.0,0.0,0.0,0.0,0.0,0.0,0.0,0.0,0.0,0.0,0.0,0.0,0.0,0.0,0.0,0.0,0.0,0.0,0.0,0.0,0.0,0.0,0.0,0.0,0.0,0.0,-0.9628,-0.8208,-0.7378,-0.7466,-0.6917,-0.6172,0.0,0.0,0.0,0.0,0.0,0.0,0.0,0.0,0.0,0.0,0.0,0.0,0.0,0.0,0.0,0.0,0.0,0.0,0.0,0.0,0.0,0.0,0.0,0.0,0.0,0.0,0.0,0.0,0.0,0.0,0.0,0.0,0.0,0.0,0.0,0.0,0.0,0.0,0.0,0.0,0.0,0.0,0.0,0.0,0.0,0.0,0.0,0.0,0.0,0.0,0.0,0.0,0.0,0.0,0.0,0.0,0.0,0.0,0.0,0.0,0.0,0.0,0.0,0.0,0.0,0.0,0.0,0.0,0.0,0.0,0.0,0.0,0.0,0.0,0.0,0.0,0.0,0.0,0.0,0.0,0.0,0.0,0.0,0.0,0.0,0.0,0.0,0.0,0.0,0.0,0.0,0.0,0.0,0.0,0.0,0.0,0.0,0.0,0.0,0.0,0.0,0.0,0.0,0.0,0.0,0.0,0.0,0.0,-0.6343,-1.1354,-1.0507,-1.0388,-1.1194,-0.9807,-0.8254,0.0,0.0,0.0,0.0,0.0,0.0,0.0,0.0,0.0,0.0,0.0,0.0,0.0,0.0,0.0,0.0,0.0,0.0,0.0,0.0,0.0,0.0,0.0,0.0,0.0,0.0,0.0,0.0,0.0,0.0,0.0,0.0,0.0,0.0,0.0,0.0,0.0,0.0,0.0,0.0,0.0,0.0,0.0,0.0,0.0,0.0,0.0,0.0,0.0,0.0,0.0,0.0,0.0,0.0,0.0,0.0,0.0,0.0,0.0,0.0,0.0,0.0,0.0,0.0,0.0,0.0,0.0,0.0,0.0,0.0,0.0,0.0,0.0,0.0,0.0,0.0,0.0,0.0,0.0,0.0,0.0,0.0,0.0,0.0,0.0,0.0,0.0,0.0,0.0,0.0,0.0,0.0,0.0,0.0,0.0,0.0,0.0,0.0,0.0,0.0,0.0,0.0,0.0,0.0,0.0,0.0,0.0,0.0,-0.8143,-1.0827,-1.1368,-1.2625,-1.47,-1.2719,-1.0229,0.0,0.0,0.0,0.0,0.0,0.0,0.0,0.0,0.0,0.0,0.0,0.0,0.0,0.0,0.0,0.0,0.0,0.0,0.0,0.0,0.0,0.0,0.0,0.0,0.0,0.0,0.0,0.0,0.0,0.0,0.0,0.0,0.0,0.0,0.0,0.0,0.0,0.0,0.0,0.0,0.0,0.0,0.0,0.0,0.0,0.0,0.0,0.0,0.0,0.0,0.0,0.0,0.0,0.0,0.0,0.0,0.0,0.0,0.0,0.0,0.0,0.0,0.0,0.0,0.0,0.0,0.0,0.0,0.0,0.0,0.0,0.0,0.0,0.0,0.0,0.0,0.0,0.0,0.0,0.0,0.0,0.0,0.0,0.0,0.0,0.0,0.0,0.0,0.0,0.0,0.0,0.0,0.0,0.0,0.0,0.0,0.0,0.0,0.0,0.0,0.0,0.0,0.0,0.0,0.0,0.0,0.0,0.0,-0.88,-1.2511,-1.2436,-1.3314,-1.5196,-1.2596,-1.0814,0.0,0.0,0.0,0.0,0.0,0.0,0.0,0.0,0.0,0.0,0.0,0.0,0.0,0.0,0.0,0.0,0.0,0.0,0.0,0.0,0.0,0.0,0.0,0.0,0.0,0.0,0.0,0.0,0.0,0.0,0.0,0.0,0.0,0.0,0.0,0.0,0.0,0.0,0.0,0.0,0.0,0.0,0.0,0.0,0.0,0.0,0.0,0.0,-0.4958,0.0,0.0,0.0,0.0,0.0,0.0,0.0,0.0,0.0,0.0,0.0,0.0,0.0,0.0,0.0,0.0,0.0,0.0,0.0,0.0,0.0,0.0,0.0,0.0,0.0,0.0,0.0,0.0,0.0,0.0,0.0,0.0,0.0,0.0,0.0,0.0,0.0,0.0,0.0,0.0,0.0,0.0,0.0,0.0,0.0,0.0,0.0,0.0,0.0,0.0,0.0,0.0,0.0,0.0,0.0,0.0,0.0,0.0,0.0,-0.8944,-1.1974,-1.2981,-1.4246,-1.5858,-1.3888,-1.2301,0.0,0.0,0.0,0.0,0.0,0.0,0.0,0.0,0.0,0.0,0.0,0.0,0.0,0.0,0.0,0.0,0.0,0.0,0.0,0.0,0.0,0.0,0.0,0.0,0.0,0.0,0.0,0.0,0.0,0.0,0.0,0.0,0.0,0.0,0.0,0.0,0.0,0.0,0.0,0.0,0.0,0.0,0.0,0.0,0.0,0.0,0.0,0.0,0.0,0.0,0.0,0.0,0.0,0.0,0.0,0.0,0.0,0.0,0.0,0.0,0.0,0.0,0.0,0.0,0.0,0.0,0.0,0.0,0.0,0.0,0.0,0.0,0.0,0.0,0.0,0.0,0.0,0.0,0.0,0.0,0.0,0.0,0.0,0.0,0.0,0.0,0.0,0.0,0.0,0.0,0.0,0.0,0.0,0.0,0.0,0.0,0.0,0.0,0.0,0.0,0.0,0.0,0.0,0.0,0.0,0.0,0.0,-0.7393,-0.9072,-1.0982,-1.3282,-1.5163,-1.6617,-1.5576,-1.4014,-1.1998,0.0,0.0,0.0,0.0,0.0,0.0,0.0,0.0,0.0,0.0,0.0,0.0,0.0,0.0,0.0,0.0,0.0,0.0,0.0,0.0,0.0,0.0,0.0,0.0,0.0,0.0,0.0,0.0,0.0,0.0,0.0,0.0,0.0,0.0,0.0,0.0,0.0,0.0,-0.473,-0.4877,0.0,0.0,0.0,0.0,0.0,0.0,0.0,0.0,-0.7695,0.0,0.0,0.0,0.0,0.0,0.0,0.0,0.0,0.0,0.0,0.0,0.0,0.0,0.0,0.0,0.0,0.0,0.0,0.0,0.0,0.0,0.0,0.0,0.0,0.0,0.0,0.0,0.0,0.0,0.0,0.0,0.0,0.0,0.0,0.0,0.0,0.0,0.0,0.0,0.0,0.0,0.0,0.0,0.0,0.0,0.0,0.0,0.0,0.0,0.0,0.0,0.0,0.0,0.0,0.0,0.0,-0.6328,-0.7919,-0.9789,-1.1831,-1.3788,-1.5442,-1.6607,-1.6066,-1.4942,-1.3243,0.0,0.0,0.0,0.0,0.0,0.0,0.0,0.0,0.0,0.0,0.0,0.0,0.0,0.0,0.0,0.0,0.0,0.0,0.0,0.0,0.0,0.0,0.0,0.0,0.0,0.0,0.0,0.0,0.0,0.0,0.0,0.0,0.0,0.0,0.0,0.0,0.0,0.0,0.0,-0.61,-0.6655,0.0,0.0,0.0,0.0,0.0,0.0,0.0,0.0,-0.7705,0.0,0.0,0.0,0.0,0.0,0.0,0.0,0.0,0.0,0.0,0.0,0.0,0.0,0.0,0.0,0.0,0.0,0.0,0.0,0.0,0.0,0.0,0.0,0.0,0.0,0.0,0.0,0.0,0.0,0.0,0.0,0.0,0.0,0.0,0.0,0.0,0.0,0.0,0.0,0.0,0.0,0.0,0.0,0.0,0.0,0.0,0.0,0.0,0.0,0.0,0.0,0.0,0.0,0.0,0.0,-0.6771,-0.8952,-1.0727,-1.2125,-1.4532,-1.6128,-1.6626,-1.5568,-1.4713,0.0,0.0,0.0,0.0,0.0,0.0,0.0,0.0,0.0,0.0,0.0,0.0,0.0,0.0,0.0,0.0,0.0,0.0,0.0,0.0,0.0,0.0,0.0,0.0,0.0,0.0,0.0,0.0,0.0,0.0,0.0,0.0,0.0,0.0,0.0,0.0,0.0,0.0,0.0,0.0,-0.6456,-0.7202,-0.8372,0.0,0.0,0.0,0.0,0.0,0.0,-0.7997,-0.7712,0.0,0.0,0.0,0.0,0.0,0.0,0.0,0.0,0.0,0.0,0.0,0.0,0.0,0.0,0.0,0.0,0.0,0.0,0.0,0.0,0.0,0.0,0.0,0.0,0.0,0.0,0.0,0.0,0.0,0.0,0.0,0.0,0.0,0.0,0.0,0.0,0.0,0.0,0.0,0.0,0.0,0.0,0.0,0.0,0.0,0.0,0.0,0.0,0.0,0.0,0.0,0.0,0.0,0.0,0.0,-0.7164,-0.9995,-1.1747,-1.2386,-1.5256,-1.6855,-1.6836,-1.5088,-1.4336,0.0,0.0,0.0,0.0,0.0,0.0,0.0,0.0,0.0,0.0,0.0,0.0,0.0,0.0,0.0,0.0,0.0,0.0,0.0,0.0,0.0,0.0,0.0,0.0,0.0,0.0,0.0,0.0,0.0,0.0,0.0,0.0,0.0,0.0,0.0,0.0,0.0,0.0,0.0,0.0,0.0,-0.7466,-0.9376,-0.7764,0.0,0.0,0.0,0.0,-0.7272,-0.8178,0.0,0.0,0.0,0.0,0.0,0.0,0.0,0.0,0.0,0.0,0.0,0.0,0.0,0.0,0.0,0.0,0.0,0.0,0.0,0.0,0.0,0.0,0.0,0.0,0.0,0.0,0.0,0.0,0.0,0.0,0.0,0.0,0.0,0.0,0.0,0.0,0.0,0.0,0.0,0.0,0.0,0.0,0.0,0.0,0.0,0.0,0.0,0.0,0.0,0.0,0.0,0.0,0.0,0.0,0.0,0.0,-0.7555,-1.0664,-1.2597,-1.3177,-1.5824,-1.7305,-1.7285,-1.5244,-1.4336,0.0,0.0,0.0,0.0,0.0,0.0,0.0,0.0,0.0,0.0,0.0,0.0,0.0,0.0,0.0,0.0,0.0,0.0,0.0,0.0,0.0,0.0,0.0,0.0,0.0,0.0,0.0,0.0,0.0,0.0,0.0,0.0,0.0,0.0,0.0,0.0,0.0,0.0,0.0,0.0,0.0,-0.7772,-0.9532,-0.7984,-0.6771,0.0,0.0,-0.8541,-0.9089,-1.125,0.0,0.0,0.0,0.0,0.0,0.0,0.0,0.0,0.0,0.0,0.0,0.0,0.0,0.0,0.0,0.0,0.0,0.0,0.0,0.0,0.0,0.0,0.0,0.0,0.0,0.0,0.0,0.0,0.0,0.0,0.0,0.0,0.0,0.0,0.0,0.0,0.0,0.0,0.0,0.0,0.0,0.0,0.0,0.0,0.0,0.0,0.0,0.0,0.0,0.0,0.0,0.0,0.0,0.0,0.0,-0.7751,-0.8905,-1.136,-1.3077,-1.3914,-1.6182,-1.7383,-1.7373,-1.4814,-1.3965,0.0,0.0,0.0,0.0,0.0,0.0,0.0,0.0,0.0,0.0,0.0,0.0,0.0,0.0,0.0,0.0,0.0,0.0,0.0,0.0,0.0,0.0,0.0,0.0,0.0,0.0,0.0,0.0,0.0,0.0,0.0,0.0,0.0,0.0,0.0,0.0,0.0,0.0,0.0,0.0,0.0,0.0,-0.8131,-0.8109,0.0,0.0,0.0,-1.0359,-1.025,0.0,0.0,0.0,0.0,0.0,0.0,0.0,0.0,0.0,0.0,0.0,0.0,0.0,0.0,0.0,0.0,0.0,0.0,0.0,0.0,0.0,0.0,0.0,0.0,0.0,0.0,0.0,0.0,0.0,0.0,0.0,0.0,0.0,0.0,0.0,0.0,0.0,0.0,0.0,0.0,0.0,0.0,0.0,0.0,0.0,0.0,0.0,0.0,0.0,0.0,0.0,0.0,0.0,0.0,0.0,0.0,0.0,-0.9804,-1.2061,-1.3705,-1.4839,-1.6737,-1.7705,-1.7646,-1.5088,0.0,0.0,0.0,0.0,0.0,0.0,0.0,0.0,0.0,0.0,0.0,0.0,0.0,0.0,0.0,0.0,0.0,0.0,0.0,0.0,0.0,0.0,0.0,0.0,0.0,0.0,0.0,-0.692,0.0,0.0,0.0,0.0,0.0,0.0,0.0,0.0,0.0,0.0,0.0,0.0,0.0,0.0,-0.7532,-0.7867,-0.9178,-1.0176,0.0,0.0,-1.2213,-1.198,-1.3433,-1.36,0.0,0.0,0.0,0.0,0.0,0.0,0.0,0.0,0.0,0.0,0.0,0.0,0.0,0.0,0.0,0.0,0.0,0.0,0.0,0.0,0.0,0.0,0.0,0.0,0.0,0.0,0.0,0.0,0.0,0.0,0.0,0.0,0.0,0.0,0.0,0.0,0.0,0.0,0.0,0.0,0.0,0.0,0.0,0.0,0.0,0.0,0.0,0.0,0.0,0.0,0.0,0.0,0.0,0.0,-0.8845,-0.9712,-1.2715,-1.4832,-1.5951,-1.7655,-1.8555,-1.8455,-1.6797,-1.5949,0.0,0.0,0.0,0.0,0.0,0.0,0.0,0.0,0.0,0.0,0.0,0.0,0.0,0.0,0.0,0.0,0.0,0.0,0.0,0.0,0.0,0.0,0.0,0.0,0.0,0.0,0.0,0.0,0.0,0.0,0.0,0.0,0.0,0.0,0.0,0.0,0.0,0.0,0.0,0.0,0.0,-0.6155,-1.0168,-1.1834,-1.3055,0.0,-1.391,-1.3914,-1.4868,-1.7394,-1.7536,-1.2614,0.0,0.0,0.0,0.0,0.0,0.0,0.0,0.0,0.0,0.0,0.0,0.0,0.0,0.0,0.0,0.0,0.0,0.0,0.0,0.0,0.0,0.0,0.0,0.0,0.0,0.0,0.0,0.0,0.0,0.0,0.0,0.0,0.0,0.0,0.0,0.0,0.0,0.0,0.0,0.0,0.0,0.0,0.0,0.0,0.0,0.0,0.0,0.0,0.0,0.0,0.0,0.0,0.0,-1.0343,-1.1765,-1.3758,-1.5724,-1.7586,-1.8831,-1.9424,-1.9424,-1.7773,-1.6684,0.0,0.0,0.0,0.0,0.0,0.0,0.0,0.0,0.0,0.0,0.0,0.0,0.0,0.0,0.0,0.0,0.0,0.0,0.0,0.0,0.0,0.0,0.0,0.0,0.0,0.0,0.0,0.0,-1.0324,-1.063,-1.1391,0.0,0.0,0.0,0.0,0.0,0.0,0.0,0.0,0.0,0.0,-0.6817,-1.208,-1.4646,0.0,0.0,-1.6876,-1.6596,-1.639,-1.8879,-1.8876,-1.3346,-1.1593,0.0,0.0,0.0,0.0,0.0,0.0,0.0,0.0,0.0,0.0,0.0,0.0,0.0,0.0,0.0,0.0,0.0,0.0,0.0,0.0,0.0,0.0,0.0,0.0,0.0,0.0,0.0,0.0,0.0,0.0,0.0,0.0,0.0,0.0,0.0,0.0,0.0,0.0,0.0,0.0,0.0,0.0,0.0,0.0,0.0,0.0,0.0,0.0,0.0,0.0,0.0,0.0,-1.171,-1.3369,-1.4814,-1.6636,-1.8728,-1.9658,-2.0107,-2.0078,-1.8828,-1.7725,0.0,0.0,0.0,0.0,0.0,0.0,0.0,0.0,0.0,0.0,0.0,0.0,0.0,0.0,0.0,0.0,0.0,0.0,0.0,0.0,0.0,0.0,0.0,0.0,0.0,0.0,0.0,0.0,-1.1429,-1.0962,-1.2162,0.0,0.0,0.0,0.0,0.0,0.0,0.0,0.0,0.0,0.0,-0.9653,-1.3527,-1.6501,-1.841,-1.8416,-1.8182,-1.781,-1.7503,-1.9171,-1.8815,-1.4049,0.0,0.0,0.0,0.0,0.0,0.0,0.0,0.0,0.0,0.0,0.0,0.0,0.0,0.0,0.0,0.0,0.0,0.0,0.0,0.0,0.0,0.0,0.0,0.0,0.0,0.0,0.0,-1.0797,0.0,0.0,-1.0534,0.0,0.0,0.0,0.0,0.0,0.0,0.0,0.0,0.0,0.0,0.0,0.0,0.0,0.0,0.0,0.0,0.0,0.0,0.0,0.0,0.0,0.0,-1.2654,-1.3978,-1.5789,-1.7502,-1.9258,-2.0117,-2.0586,-2.0566,-2.0098,-1.9453,-1.8564,0.0,0.0,0.0,0.0,0.0,0.0,0.0,0.0,0.0,0.0,0.0,0.0,0.0,0.0,0.0,0.0,0.0,0.0,0.0,0.0,0.0,0.0,0.0,0.0,0.0,0.0,-1.3132,-1.297,-1.2444,0.0,0.0,0.0,0.0,0.0,0.0,0.0,0.0,0.0,-1.0948,-1.3392,-1.4881,-1.4247,-1.7067,-1.8949,-1.8194,-1.7376,-1.7153,-1.8238,-1.8242,-1.7289,0.0,0.0,0.0,0.0,0.0,0.0,0.0,0.0,0.0,0.0,0.0,0.0,0.0,0.0,0.0,0.0,0.0,0.0,0.0,0.0,0.0,0.0,0.0,0.0,0.0,0.0,0.0,-1.1612,-1.187,0.0,0.0,0.0,0.0,0.0,0.0,0.0,0.0,0.0,0.0,0.0,-1.1699,-1.3119,0.0,0.0,0.0,0.0,0.0,0.0,0.0,0.0,0.0,0.0,0.0,0.0,-1.41,-1.5522,-1.714,-1.8975,-2.0957,-2.1572,-2.1855,-2.1855,-2.1445,-2.041,-1.8691,0.0,0.0,0.0,0.0,0.0,0.0,0.0,0.0,0.0,0.0,0.0,0.0,0.0,0.0,0.0,0.0,0.0,0.0,0.0,0.0,0.0,0.0,0.0,0.0,0.0,-1.1387,0.0,0.0,0.0,0.0,0.0,0.0,0.0,0.0,0.0,0.0,0.0,-1.1955,-1.258,-1.4224,-1.5434,-1.5401,-1.7367,-1.8885,0.0,0.0,0.0,0.0,0.0,0.0,0.0,0.0,0.0,0.0,0.0,0.0,0.0,0.0,-1.5137,-1.1562,-1.111,-1.1318,-1.1172,0.0,0.0,0.0,0.0,0.0,0.0,0.0,0.0,0.0,0.0,0.0,0.0,0.0,0.0,-1.3327,0.0,-1.3067,0.0,0.0,0.0,0.0,0.0,0.0,0.0,0.0,-1.2837,-1.3973,-1.4649,-1.5573,-1.6245,0.0,-1.6869,-1.6478,0.0,0.0,0.0,0.0,0.0,0.0,0.0,0.0,-1.5407,-1.6694,-1.8276,-1.999,-2.1797,-2.2295,-2.251,-2.25,-2.21,-2.1143,-1.959,-1.8564,-1.7379,0.0,0.0,0.0,0.0,0.0,0.0,0.0,0.0,0.0,0.0,0.0,0.0,0.0,0.0,0.0,0.0,0.0,0.0,0.0,0.0,0.0,0.0,0.0,-1.372,0.0,0.0,0.0,0.0,0.0,0.0,0.0,0.0,0.0,-1.2614,-1.2781,-1.346,-1.4678,-1.5527,-1.5966,-1.5887,0.0,0.0,0.0,0.0,0.0,0.0,0.0,-1.6042,-1.5058,-1.6564,-1.7698,-1.7015,-1.7648,-1.7579,-1.5569,0.0,0.0,-1.3799,-1.3379,-1.3516,-1.3359,-1.333,-1.332,-1.3311,-1.332,-1.3311,0.0,0.0,0.0,0.0,0.0,0.0,0.0,0.0,-1.4879,-1.567,0.0,-1.5683,0.0,0.0,0.0,0.0,-1.0567,-1.336,0.0,0.0,-1.617,-1.7497,-1.7275,-1.7208,-1.7949,-1.9222,-1.8748,-1.8796,-1.9268,-1.7695,0.0,0.0,0.0,0.0,0.0,0.0,-1.6605,-1.7539,-1.915,-2.0615,-2.1894,-2.2334,-2.2539,-2.2529,-2.2139,-2.1699,-2.124,-2.0371,-1.9727,-1.9258,-1.7686,0.0,0.0,0.0,0.0,0.0,0.0,0.0,0.0,0.0,0.0,0.0,0.0,0.0,0.0,0.0,0.0,0.0,0.0,0.0,0.0,-1.6141,0.0,0.0,0.0,0.0,0.0,0.0,0.0,0.0,0.0,0.0,-1.4546,-1.4625,-1.5498,-1.7061,0.0,0.0,0.0,0.0,-1.7353,-1.5429,-1.5772,-1.6247,-1.5811,-1.6108,-1.6678,-1.7498,0.0,0.0,-2.0794,-1.976,-1.8759,-1.8221,-1.8247,-1.8018,-1.7578,-1.667,-1.6006,-1.5625,-1.5,-1.4394,-1.4301,-1.4583,-1.4551,-1.5475,0.0,0.0,0.0,0.0,-1.5901,-1.6946,-1.8722,-1.8055,-1.8215,-1.8874,-1.7212,0.0,0.0,0.0,0.0,0.0,0.0,-1.6494,-1.7296,-1.9075,-2.0205,-2.0752,-2.1742,-2.2379,-2.2486,-2.2042,-2.1719,-2.1553,-2.0478,-1.9111,-1.7441,0.0,0.0,0.0,0.0,-1.7559,-1.958,-2.0752,-2.1787,-2.2764,-2.2891,-2.2959,-2.2959,-2.2559,-2.2129,-2.1709,-2.1152,-2.0371,-1.9336,-1.8818,0.0,0.0,0.0,0.0,0.0,0.0,0.0,0.0,0.0,0.0,0.0,0.0,0.0,0.0,0.0,0.0,0.0,0.0,0.0,-1.6917,-1.8092,-1.8289,0.0,0.0,0.0,0.0,0.0,0.0,0.0,0.0,0.0,-1.8008,-1.7038,-1.6355,0.0,0.0,-1.6678,-1.5557,-1.7758,-1.9288,-1.8676,-2.0002,0.0,-2.0346,-1.8862,-1.8278,-1.98,-2.1831,-2.2843,-2.149,-2.2252,-2.2554,-2.1337,-2.1134,-2.1016,-2.0322,-1.8955,-1.8047,-1.8105,-1.8203,-1.8252,-1.8252,-1.8262,-1.832,-1.9265,-1.7032,-1.6909,-1.7512,-1.8608,-1.8458,-1.9525,-2.1295,-2.058,-2.0704,-2.137,-1.9796,-1.8922,-1.8614,-1.7367,0.0,0.0,0.0,-1.9228,-2.0089,-2.1579,-2.2725,-2.357,-2.4349,-2.4727,-2.4785,-2.4033,-2.3613,-2.3516,-2.2324,-2.1084,-1.9766,0.0,0.0,-1.7861,-1.8125,-1.9014,-2.0527,-2.1602,-2.2451,-2.3028,-2.3144,-2.3144,-2.3135,-2.29,-2.2637,-2.2393,-2.2129,-2.1543,-2.0605,-2.0068,-1.957,0.0,0.0,0.0,0.0,0.0,0.0,0.0,0.0,0.0,0.0,0.0,-1.8894,-1.8216,0.0,0.0,0.0,-1.8178,-1.808,-1.9233,-1.9366,0.0,0.0,0.0,0.0,0.0,0.0,0.0,-1.7873,-1.9224,-2.0362,-2.0798,-1.9836,-1.9212,-1.9396,-1.9007,-1.8564,-1.8332,0.0,-2.1632,-2.0986,-2.218,-2.2864,-2.2143,-2.1394,-2.1652,-2.4141,-2.4865,-2.5131,-2.4371,-2.4718,-2.4775,-2.4221,-2.3908,-2.3629,-2.3125,-2.1795,-2.0727,-2.0507,-2.0586,-2.0693,-2.0693,-2.0693,-2.0781,-2.3051,-2.2417,-2.1643,-2.1056,-2.0738,-2.1016,-2.2006,-2.3231,-2.276,-2.327,-2.4438,-2.2963,-2.175,-2.0866,-2.0142,0.0,-1.9173,-2.1286,-2.2188,-2.215,-2.3871,-2.5049,-2.5801,-2.541,-2.5654,-2.6396,-2.5195,-2.4834,-2.5127,-2.3603,-2.2764,-2.2617,-2.1006,-1.9697,-1.8857,-1.9912,-2.0557,-2.0762,-2.1894,-2.2754,-2.3223,-2.3242,-2.3223,-2.3193,-2.3281,-2.3242,-2.3086,-2.3163,-2.2997,-2.25,-2.1409,-2.082,-2.0848,0.0,0.0,0.0,0.0,0.0,0.0,0.0,0.0,0.0,0.0,0.0,0.0,0.0,0.0,0.0,-2.1104,0.0,-2.2066,-2.0285,0.0,0.0,0.0,-2.0628,-2.2255,-2.2481,-2.22,-2.156,0.0,0.0,-2.2845,-2.2716,-2.3277,-2.4705,-2.312,-2.2002,-2.2628,-2.3753,-2.4086,-2.264,-2.3213,-2.341,-2.287,-2.3789,-2.5636,-2.83,-2.7946,-2.7024,-2.742,-2.679,-2.6129,-2.6233,-2.6161,-2.568,-2.5408,-2.4564,-2.3888,-2.2547,-2.2119,-2.1973,-2.1953,-2.1894,-2.1875,-2.6225,-2.6113,-2.7113,-2.5967,-2.3596,-2.3572,-2.4575,-2.5939,-2.5544,-2.5615,-2.5869,-2.4803,-2.4025,-2.35,-2.3316,-2.3361,-2.3601,-2.4423,-2.5012,-2.5334,-2.6053,-2.6514,-2.6699,-2.6602,-2.666,-2.6836,-2.6553,-2.6445,-2.6514,-2.582,-2.4951,-2.3955,-2.29,-2.1455,-1.9697,-1.9922,-2.0566,-2.1562,-2.2197,-2.3037,-2.4062,-2.4111,-2.3965,-2.3643,-2.4412,-2.4165,-2.2695,-2.3476,-2.35,-2.2585,-2.2676,-2.278,-2.2849,-2.1999,0.0,0.0,0.0,0.0,0.0,0.0,0.0,0.0,0.0,-2.1342,-2.0394,0.0,-1.9167,0.0,-2.1749,-2.282,-2.347,-2.2628,0.0,0.0,-2.348,-2.3816,-2.3445,-2.4193,-2.4042,-2.2099,-2.2833,-2.3663,-2.4027,-2.3791,-2.4796,-2.7989,-2.8039,-2.6707,-2.4163,-2.5107,-2.5985,-2.5421,-2.6785,-2.7668,-2.6276,-2.6346,-2.6971,-2.7783,-2.8109,-2.8027,-2.7019,-2.7304,-2.7335,-2.6713,-2.6434,-2.6102,-2.5568,-2.4967,-2.4217,-2.3189,-2.2881,-2.2842,-2.2832,-2.2588,-2.2451,-2.8445,-2.8399,-2.9215,-2.852,-2.6786,-2.6786,-2.7151,-2.7842,-2.7617,-2.7305,-2.6914,-2.623,-2.5801,-2.5576,-2.5576,-2.5703,-2.5937,-2.6191,-2.6435,-2.6689,-2.7109,-2.7305,-2.7305,-2.7314,-2.7305,-2.7305,-2.7109,-2.7012,-2.7002,-2.6777,-2.6289,-2.5566,-2.5107,-2.3984,-2.2227,-2.0879,-2.0664,-2.1592,-2.2207,-2.3135,-2.4346,-2.4238,-2.3929,-2.3458,-2.3811,-2.3525,-2.2477,-2.3044,-2.3139,-2.2773,-2.2974,-2.3111,-2.3283,-2.1962,-2.1481,0.0,0.0,0.0,0.0,0.0,0.0,0.0,0.0,0.0,0.0,0.0,-2.073,-2.1651,-2.3269,-2.4268,-2.4356,-2.3615,-2.346,-2.4406,-2.6222,-2.6892,-2.5758,-2.6532,-2.6519,-2.5266,-2.5799,-2.6415,-2.6764,-2.6688,-2.7275,-2.9524,-2.9821,-2.9025,-2.7148,-2.7539,-2.8022,-2.7865,-2.8648,-2.9126,-2.8122,-2.8044,-2.8132,-2.8323,-2.8127,-2.7802,-2.7934,-2.7392,-2.7216,-2.7751,-2.7345,-2.6794,-2.6427,-2.5473,-2.4457,-2.3464,-2.3144,-2.3144,-2.3144,-2.2949,-2.2871,-3.0078,-2.9736,-2.9736,-2.9736,-2.9746,-2.9736,-2.9463,-2.9004,-2.9004,-2.8555,-2.7803,-2.7363,-2.7178,-2.7178,-2.7119,-2.7158,-2.7256,-2.7197,-2.7207,-2.7275,-2.7646,-2.7803,-2.7744,-2.7744,-2.7754,-2.7734,-2.7363,-2.7178,-2.7178,-2.7178,-2.71,-2.6943,-2.7068,-2.6507,-2.5184,-2.2748,-2.151,-2.1558,-2.2438,-2.335,-2.4375,-2.3955,-2.3454,-2.3032,-2.2739,-2.2439,-2.2136,-2.2298,-2.2473,-2.2687,-2.2484,-2.2611,-2.3075,-2.1375,-2.0984,0.0,-2.0726,0.0,0.0,0.0,0.0,0.0,0.0,0.0,0.0,-2.3315,-2.3047,-2.3948,-2.5078,-2.5573,-2.5272,-2.4256,-2.4553,-2.6571,-2.8466,-2.9256,-2.8409,-2.8587,-2.8799,-2.8799,-2.9158,-2.9378,-2.9394,-2.9496,-2.9369,-2.9689,-2.9754,-2.9641,-2.9641,-2.9551,-2.9576,-2.9716,-2.9239,-2.8938,-2.895,-2.89,-2.9012,-2.9327,-2.8299,-2.7592,-2.9265,-2.784,-2.715,-2.9011,-2.8431,-2.7463,-2.7463,-2.5953,-2.4457,-2.3309,-2.3222,-2.3299,-2.3135,-2.3125,-2.3144,-3.0713,-3.0644,-3.0635,-3.0644,-3.0635,-3.0635,-3.0185,-2.9443,-2.9443,-2.916,-2.8662,-2.8242,-2.8047,-2.8027,-2.7695,-2.791,-2.8535,-2.8203,-2.8223,-2.8564,-2.8643,-2.8496,-2.8184,-2.8174,-2.8174,-2.8174,-2.8086,-2.8057,-2.8057,-2.8057,-2.7519,-2.6514,-2.7247,-2.7129,-2.6298,0.0,0.0,0.0,-2.4237,-2.4531,-2.4394,-2.3662,-2.3137,-2.3072,-2.3885,0.0,-2.1576,-2.2298,-2.2042,-2.0591,-2.1335,0.0,0.0,0.0,0.0,0.0,0.0,0.0,0.0,0.0,0.0,0.0,-2.3761,-2.3895,-2.4861,-2.4327,-2.4494,-2.5803,-2.617,-2.6628,-2.7406,-2.7058,-2.7222,-2.8287,-2.8698,-2.9076,-2.939,-2.8795,-2.827,-2.827,-2.7648,-2.7464,-2.8335,-2.7676,-2.7866,-2.9484,-2.9779,-2.9603,-2.9164,-2.9503,-2.9616,-2.9189,-2.89,-2.8976,-2.9541,-2.9126,-2.8897,-2.8912,-2.8837,-2.8596,-2.897,-2.9111,-2.8938,-2.9779,-2.8805,-2.7611,-2.686,-2.563,-2.4553,-2.3299,-2.38,-2.4211,-2.3299,-2.3135,-2.3144,-3.0898,-3.0898,-3.0898,-3.0898,0.0,-3.0898,-3.0635,-3.0205,-2.9971,-2.9639,-2.9228,-2.9014,-2.8926,-2.8916,-2.8711,-2.8828,-2.9228,-2.9023,-2.9043,-2.9228,-2.9238,-2.9014,-2.8594,-2.8594,-2.8486,-2.8301,-2.8301,-2.8301,-2.8301,-2.8301,-2.8265,-2.832,-2.9067,-2.9501,-2.9825,-3.0083,-2.8993,-2.6529,-2.6922,-2.69,-2.6652,-2.6472,-2.5424,-2.3846,-2.4935,0.0,0.0,0.0,0.0,0.0,0.0,0.0,0.0,-2.2886,0.0,-2.4403,-2.3197,-2.3275,-2.5327,-2.507,-2.5413,-2.6677,-2.6776,-2.6622,-2.602,-2.6578,-2.7322,-2.8072,-2.8109,-2.8335,-2.8863,-2.88,-2.8825,-2.9315,-2.9251,-2.9376,-2.9651,-2.9275,-2.8937,-2.8949,-2.845,-2.8371,-2.8858,-2.853,-2.856,-2.9574,-2.9779,-2.9578,-2.9114,-2.9415,-2.9578,-2.9038,-2.88,-2.885,-2.9252,-2.9366,-2.924,-2.9303,-2.871,-2.8562,-2.9241,-2.8675,-2.8496,-2.9391,-2.8676,-2.7525,-2.7325,-2.6385,-2.5264,-2.4296,-2.4399,-2.4378,-2.3448,-2.3564,-2.3714,-3.0928,-3.0996,-3.0918,-3.0898,-3.0898,-3.0898,-3.0898,-3.0859,-3.0391,0.0,0.0,-2.96,-2.958,-2.958,-2.958,-2.9609,-2.9678,-2.9678,-2.9678,-2.9678,-2.9678,-2.9443,-2.9033,-2.9033,-2.8848,-2.8525,-2.8525,-2.8516,-2.8516,-2.8516,-2.9236,-3.0496,-3.1254,-3.2372,-3.3936,-3.3958,-3.2782,-3.0647,-2.9724,-2.9279,-2.9116,-2.9294,-2.8033,-2.5094,-2.6177,-2.5501,-2.2833,-2.3555,-2.361,-2.2733,-2.268,-2.2841,-2.3143,-2.2573,-2.2777,-2.4002,-2.3493,-2.4293,-2.6971,-2.7196,-2.7928,-2.9664,-2.9779,-2.9071,-2.7427,-2.8845,-2.9779,-2.9779,-2.9779,-2.9779,-2.9779,-2.9779,-2.9779,-2.9779,-2.9779,-2.9779,-2.9779,-2.9611,-2.9456,-2.9714,-2.9534,-2.9546,-2.9702,-2.9689,-2.9779,-2.9779,-2.9779,-2.9641,-2.9252,-2.939,-2.944,-2.9013,-2.895,-2.8938,-2.8863,-2.9365,-2.9729,-2.9551,-2.8688,-2.846,-2.917,-2.8369,-2.8032,-2.9501,-2.8468,-2.7782,-2.7933,-2.7147,-2.6151,-2.5142,-2.5126,-2.4794,-2.3637,-2.4002,-2.4483,-3.1103,-3.1406,-3.1035,-3.0898,-3.0898,-3.0898,-3.0898,-3.085,-3.04,-3.0156,-3.0088,-2.9726,-2.958,-2.958,-2.958,-2.9775,-3.0098,-3.0107,-3.0117,-3.0107,-3.0107,-2.9883,-2.9482,-2.9482,-2.9453,-2.9394,-2.9394,-2.9394,-2.9394,-2.9385,-3.0138,-3.1611,-3.2842,-3.4751,-3.7121,-3.6899,-3.644,-3.5945,-3.2195,-3.0088,-2.9678,-2.9001,-2.8383,-2.7777,-2.7921,-2.6757,-2.4119,-2.4213,-2.321,-2.1098,-2.0934,-2.172,-2.3319,-2.3403,-2.4315,-2.6561,-2.6601,-2.7167,-2.8512,-2.8629,-2.8923,-2.9727,-2.9779,-2.9626,-2.9424,-2.9614,-2.9779,-2.9779,-2.9779,-2.9779,-2.9779,-2.9779,-2.9779,-2.9779,-2.9779,-2.9779,-2.9779,-2.9028,-2.8858,-2.9624,-2.8937,-2.8858,-2.9624,-2.9779,-2.9779,-2.9779,-2.9779,-2.9754,-2.9578,-2.9302,-2.9063,-2.9026,-2.9352,-2.9202,-2.8725,-2.9114,-2.9426,-2.9118,-2.9257,-2.9334,-2.9677,-2.9424,-2.926,-2.9741,-2.8827,-2.8171,-2.8187,-2.7241,-2.6509,-2.5824,-2.6289,-2.608,-2.4068,-2.4371,-2.4912,-3.1689,-3.1807,-3.1406,-3.123,-3.1211,-3.0986,-3.0898,-3.0869,-3.0664,-3.0576,-3.0557,-3.0371,-3.0283,-3.0283,-3.0293,-3.0391,-3.0576,-3.0576,-3.0576,-3.0576,-3.0566,-3.0332,-2.9941,-2.9902,-2.9785,-2.959,-2.958,-2.958,-2.958,-2.958,-3.074,-3.2877,-3.5352,-3.7205,-3.8354,-3.8228,-3.7789,-3.7174,-3.489,-3.3255,-3.2347,-3.1622,-3.0422,-2.8779,-2.8706,-2.7528,-2.4846,-2.5072,-2.443,-2.2752,-2.3307,-2.4072,-2.4967,-2.5676,-2.6814,-2.8495,-2.8637,-2.9023,-2.9756,-2.9555,-2.967,-3.014,-2.9955,-2.9779,-2.9779,-2.9779,-2.9779,-2.9779,-2.9779,-2.9779,-2.9779,-2.9779,-2.9779,-2.9779,-2.9779,-2.9779,-2.9779,-2.9365,-2.9275,-2.9624,-2.9365,-2.9184,-2.9714,-2.9779,-2.9779,-2.9779,-2.9779,-2.9806,-2.9796,-2.9542,-2.9377,-2.9327,-2.8637,-2.8436,-2.8762,-2.831,-2.8437,-2.9135,-2.9287,-2.9478,-2.9679,-2.9779,-2.9779,-2.9792,-2.9287,-2.9106,-2.9028,-2.8638,-2.7941,-2.7219,-2.7275,-2.6872,-2.5599,-2.5518,-2.5207,-3.2226,-3.2275,-3.1846,-3.1601,-3.1504,-3.1279,-3.1084,-3.0908,-3.0986,-3.0986,-3.0898,-3.0898,-3.0898,-3.0898,-3.0898,-3.0889,-3.0898,-3.0898,-3.0889,-3.0898,-3.0898,-3.0703,-3.0381,-3.0351,-3.0176,-2.9902,-2.9863,-2.9873,-2.9976,-3.0191,-3.1788,-3.471,-3.766,-3.9057,-3.9057,-3.8931,-3.8429,-3.7575,-3.6897,-3.5886,-3.4471,-3.3957,-3.2317,-2.9861,-2.9628,-2.8448,-2.5889,-2.6167,-2.597,-2.4965,-2.5733,-2.653,-2.7051,-2.7928,-2.9032,-3.0182,-3.0374,-3.0489,-3.0741,-3.0281,-3.0168,-3.057,-3.0331,-3.0105,-2.9993,-2.998,-2.9917,-2.9817,-2.9779,-2.9779,-2.9779,-2.9779,-2.9779,-2.9779,-2.9779,-2.9779,-2.9779,-2.9779,-2.9779,-2.9779,-2.9779,-2.9779,-2.9779,-2.9779,-2.9779,-2.9779,-2.9779,-2.982,-2.9796,-2.9605,-2.9451,-2.9289,-2.8185,-2.7783,-2.9038,-2.8335,-2.8119,-2.9391,-2.9277,-2.939,-2.9679,-2.9779,-2.9779,-2.9779,-2.9641,-2.9564,-2.9729,-2.9574,-2.913,-2.8289,-2.8249,-2.7852,-2.6648,-2.6279,-2.5722,-3.2393,-3.2646,-3.2285,-3.1875,-3.1582,-3.1885,-3.1601,-3.1006,-3.1299,-3.124,-3.0928,-3.0898,-3.0898,-3.0898,-3.0898,-3.0898,-3.0898,-3.0898,-3.0898,-3.0898,-3.0898,-3.0859,-3.081,-3.082,-3.0801,-3.0742,-3.0839,-3.079,-3.0915,-3.2137,-3.424,-3.7003,-3.8822,-3.9609,-3.9559,-3.912,-3.8818,-3.8705,-3.7663,-3.6269,-3.4519,-3.4338,-3.3348,-3.135,-3.125,-3.0077,-2.7462,-2.739,-2.7064,-2.6177,-2.6304,-2.7338,-2.918,-2.9604,-3.0338,-3.1826,-3.1959,-3.1805,-3.1361,-3.0834,-3.057,-3.0633,-3.0984,-3.0972,-3.0557,-3.0507,-3.0306,-2.9917,-2.9779,-2.9779,-2.9779,-2.9779,-2.9779,-2.9779,-2.9779,-2.9779,-2.9779,-2.9779,-2.9779,-2.9779,-2.9779,-2.9779,-2.9779,-2.9779,-2.9779,-2.9779,-2.9779,-2.9819,-2.9693,-2.9112,-2.8749,-2.8937,-2.8988,-2.8737,-2.8222,-2.88,-2.8887,-2.8644,-2.9139,-2.9515,-2.9729,-2.9779,-2.9779,-2.9741,-2.944,-2.9352,-2.9451,-2.9384,-2.9058,-2.8861,-2.865,-2.8413,-2.6988,-2.6355,-2.5621,-3.3008,-3.3125,-3.2715,-3.2285,-3.1963,-3.21,-3.1973,-3.168,-3.1826,-3.166,-3.1289,-3.126,-3.1123,-3.0898,-3.0898,-3.0898,-3.0898,-3.0898,-3.0898,-3.0898,-3.0898,-3.0898,-3.0898,-3.0898,-3.0898,-3.1005,-3.1767,-3.2207,-3.2644,-3.4504,-3.6368,-3.7571,-3.9013,-3.9697,-3.9672,-3.9471,-3.9195,-3.8868,-3.8417,-3.7122,-3.4996,-3.3703,-3.3162,-3.2943,-3.0684,-2.9213,-2.8848,-2.8544,-2.8082,-2.7568,-2.8873,-3.0004,-3.0616,-3.132,-3.2042,-3.2679,-3.239,-3.2265,-3.2378,-3.1574,-3.121,-3.1537,-3.116,-3.0834,-3.0633,-3.0319,-3.0018,-2.9842,-2.9779,-2.9779,-2.9779,-2.9779,-2.9779,-2.9779,-2.9779,-2.9779,-2.9779,-2.9779,-2.9779,-2.9779,-2.9779,-2.9779,-2.9779,-2.9779,-2.9779,-2.9779,-2.9779,-2.9806,-2.9758,-2.9377,-2.9201,-2.9227,-2.8949,-2.8511,-2.8247,-2.8649,-2.9063,-2.9101,-2.9164,-2.9327,-2.9729,-2.9779,-2.9779,-2.9779,-2.9515,-2.9277,-2.9239,-2.9451,-2.9362,-2.9189,-2.9188,-2.8882,-2.6939,-2.6908,-2.6736,-3.3418,-3.3369,-3.3086,-3.2725,-3.2363,-3.2461,-3.2373,-3.2178,-3.2168,-3.1914,-3.1523,-3.1396,-3.1182,-3.0928,-3.0898,-3.0898,-3.0898,-3.0898,-3.0898,-3.0898,-3.0898,-3.1112,-3.1441,-3.1556,-3.1777,-3.2207,-3.3191,-3.3968,-3.4504,-3.6368,-3.769,-3.8243,-3.9141,-3.9697,-3.9697,-3.9697,-3.9509,-3.912,-3.8969,-3.8028,-3.6214,-3.4315,-3.3531,-3.3464,-3.0708,-2.9384,-3.0141,-2.9899,-2.9699,-2.9513,-3.1298,-3.2189,-3.2031,-3.2835,-3.3232,-3.3043,-3.2541,-3.239,-3.2817,-3.2077,-3.1775,-3.2102,-3.1461,-3.0984,-3.0771,-3.0331,-2.9967,-2.9792,-2.9779,-2.9779,-2.9779,-2.9779,-2.9779,-2.9779,-2.9779,-2.9779,-2.9779,-2.9779,-2.9779,-2.9779,-2.9779,-2.9779,-2.9779,-2.9779,-2.9779,-2.9779,-2.9779,-2.9806,-2.9821,-2.9782,-2.9731,-2.9719,-2.8859,-2.8473,-2.8837,-2.8825,-2.9026,-2.9264,-2.9239,-2.9402,-2.9716,-2.9767,-2.9779,-2.9779,-2.9679,-2.9591,-2.9428,-2.9566,-2.9501,-2.9377,-2.9376,-2.9225,-2.8001,-2.8176,-2.7921,-3.3418,-3.3418,-3.3398,-3.3135,-3.2793,-3.3164,-3.291,-3.2256,-3.2217,-3.1953,-3.1533,-3.1162,-3.0937,-3.0898,-3.0898,-3.0898,-3.0898,-3.0898,-3.0898,-3.0898,-3.1025,-3.1672,-3.2964,-3.3077,-3.3765,-3.4692,-3.509,-3.5945,-3.7133,-3.7465,-3.8243,-3.9478,-3.9697,-3.9697,-3.9697,-3.9697,-3.9685,-3.9572,-3.917,-3.8831,-3.8479,-3.68,-3.4809,-3.3015,-3.2219,-3.1806,-3.1703,-3.1603,-3.1854,-3.2605,-3.278,-3.3211,-3.3657,-3.3759,-3.3608,-3.3093,-3.2554,-3.224,-3.2315,-3.2227,-3.2202,-3.2227,-3.2127,-3.1888,-3.1386,-3.0821,-3.0331,-2.9867,-2.9817,-2.9779,-2.9779,-2.9779,-2.9779,-2.9779,-2.9779,-2.9779,-2.9779,-2.9779,-2.9779,-2.9779,-2.9779,-2.9779,-2.9779,-2.9779,-2.9779,-2.9779,-2.9779,-2.9767,-2.9819,-2.9767,-2.9807,-2.9783,-2.9618,-2.9503,-2.9063,-2.8976,-2.8888,-2.9164,-2.9515,-2.9691,-2.9741,-2.9779,-2.9754,-2.9641,-2.9252,-2.9189,-2.9478,-2.9451,-2.9237,-2.9174,-2.9349,-2.9045,-2.8438,-2.9287,-2.9123,-3.3418,-3.3418,-3.3418,-3.333,-3.3213,-3.3359,-3.3242,-3.2969,-3.2969,-3.2578,-3.1992,-3.1768,-3.1406,-3.0898,-3.0898,-3.0898,-3.0898,-3.0898,-3.0898,-3.1035,-3.2165,-3.3078,-3.3622,-3.4523,-3.52,-3.5825,-3.6421,-3.7477,-3.8804,-3.8908,-3.9141,-3.9581,-3.9697,-3.9697,-3.9697,-3.9697,-3.9697,-3.9672,-3.9471,-3.9233,-3.8906,-3.8227,-3.7216,-3.5897,-3.3887,-3.3005,-3.3417,-3.3394,-3.3355,-3.3315,-3.4068,-3.452,-3.4385,-3.4098,-3.3646,-3.3144,-3.288,-3.2767,-3.2767,-3.2754,-3.2767,-3.2742,-3.2403,-3.2139,-3.1813,-3.1148,-3.052,-3.0319,-2.9967,-2.9804,-2.9779,-2.9779,-2.9779,-2.9779,-2.9779,-2.9779,-2.9779,-2.9779,-2.9779,-2.9779,-2.9779,-2.9779,-2.9779,-2.9779,-2.9779,-2.9779,-2.9779,-2.9779,-2.9779,-2.9779,-2.9806,-2.9744,-2.9479,-2.9302,-2.9553,-2.9453,-2.9428,-2.9465,-2.9654,-2.9729,-2.9779,-2.9428,-2.9315,-2.9578,-2.9139,-2.8762,-2.9063,-2.8636,-2.851,-2.886,-2.9032,-2.9024,-2.8718,-2.9431,-2.9459,-3.3418,-3.3418,-3.3418,-3.3418,-3.3418,-3.3418,-3.3418,-3.3398,-3.3271,-3.2891,-3.2412,-3.2236,-3.1758,-3.1201,-3.124,-3.1455,-3.1566,-3.1662,-3.1662,-3.1808,-3.3664,-3.481,-3.5288,-3.6443,-3.7089,-3.7348,-3.7869,-3.8792,-3.9581,-3.9697,-3.9697,-3.9697,-3.9697,-3.9697,-3.9697,-3.9697,-3.9697,-3.9697,-3.9697,-3.9496,-3.917,-3.9132,-3.8868,-3.8116,-3.6153,-3.5112,-3.5283,-3.5332,-3.5078,-3.47,-3.5313,-3.5554,-3.5014,-3.4462,-3.3922,-3.3432,-3.3345,-3.3244,-3.3106,-3.3081,-3.3068,-3.3043,-3.2554,-3.2202,-3.2152,-3.1386,-3.0871,-3.0583,-3.0319,-3.0018,-2.9829,-2.9779,-2.9779,-2.9779,-2.9779,-2.9779,-2.9779,-2.9779,-2.9779,-2.9779,-2.9779,-2.9779,-2.9779,-2.9779,-2.9779,-2.9779,-2.9779,-2.9779,-2.9779,-2.9779,-2.9779,-2.9754,-2.949,-2.9478,-2.9616,-2.9654,-2.9641,-2.9691,-2.9691,-2.9754,-2.9603,-2.9202,-2.9076,-2.9352,-2.9227,-2.8762,-2.8263,-2.7841,-2.7944,-2.8379,-2.8482,-2.8582,-2.8831,-2.9353,-2.9303,-3.3418,-3.3418,-3.3418,-3.3418,-3.3418,-3.3418,-3.3418,-3.3359,-3.3027,-3.2861,-3.2676,-3.2373,-3.1953,-3.1621,-3.1787,-3.2434,-3.2695,-3.2995,-3.3077,-3.3346,-3.5321,-3.6672,-3.7416,-3.8508,-3.9189,-3.9444,-3.9631,-3.9606,-3.9697,-3.9697,-3.9697,-3.9697,-3.9697,-3.9697,-3.9697,-3.9697,-3.9697,-3.9697,-3.9697,-3.9672,-3.9685,-3.9634,-3.9383,-3.8944,-3.8604,-3.8004,-3.719,-3.7077,-3.6668,-3.6326,-3.632,-3.6081,-3.5504,-3.4951,-3.4437,-3.3922,-3.3847,-3.3583,-3.3156,-3.3081,-3.3081,-3.3018,-3.2566,-3.2303,-3.2252,-3.175,-3.1235,-3.0896,-3.062,-3.0382,-2.9942,-2.9804,-2.9779,-2.9779,-2.9779,-2.9779,-2.9779,-2.9779,-2.9779,-2.9779,-2.9779,-2.9779,-2.9779,-2.9779,-2.9779,-2.9779,-2.9779,-2.9779,-2.9779,-2.9779,-2.9779,-2.9779,-2.9691,-2.9666,-2.9729,-2.9779,-2.9779,-2.9779,-2.9767,-2.9754,-2.9478,-2.9139,-2.9101,-2.9289,-2.9239,-2.8825,-2.8137,-2.7773,-2.798,-2.8288,-2.8256,-2.8407,-2.9155,-2.9534,-2.9028,-3.3418,-3.3418,-3.3418,-3.3418,-3.3418,-3.3418,-3.3418,-3.3408,-3.3271,-3.3076,-3.2803,-3.2656,-3.2207,-3.166,-3.167,-3.181,-3.2073,-3.3689,-3.4637,-3.5169,-3.7503,-3.8665,-3.8957,-4.0379,-4.086,-4.0307,-4.0262,-4.0049,-3.976,-3.9697,-3.9697,-3.9697,-3.9697,-3.9697,-3.9697,-3.9697,-3.9697,-3.9697,-3.9697,-3.9697,-3.9697,-3.9697,-3.9597,-3.9459,-3.9433,-3.9069,-3.8379,-3.7613,-3.7123,-3.691,-3.6571,-3.6119,-3.5579,-3.5027,-3.4474,-3.3947,-3.352,-3.3294,-3.3131,-3.3093,-3.3106,-3.3056,-3.288,-3.2817,-3.2754,-3.2277,-3.1901,-3.1612,-3.1085,-3.0507,-3.0357,-3.0005,-2.9829,-2.9792,-2.9779,-2.9779,-2.9779,-2.9779,-2.9779,-2.9779,-2.9779,-2.9779,-2.9779,-2.9779,-2.9779,-2.9779,-2.9779,-2.9779,-2.9779,-2.9779,-2.9779,-2.9779,-2.9779,-2.9779,-2.9779,-2.9779,-2.9779,-2.9779,-2.9779,-2.9716,-2.9428,-2.9151,-2.9126,-2.8988,-2.8938,-2.8673,-2.8005,-2.7649,-2.7693,-2.7849,-2.7717,-2.8402,-2.9434,-2.9443,-2.8937,-3.3418,-3.3418,-3.3418,-3.3418,-3.3418,-3.3418,-3.3418,-3.3418,-3.3418,-3.3271,-3.3057,-3.3027,-3.2646,-3.21,-3.1992,-3.2585,-3.3565,-3.5347,-3.6687,-3.7633,-3.933,-4.0257,-4.0111,-4.1196,-4.1693,-4.1141,-4.0714,-4.0337,-4.0011,-3.9798,-3.9697,-3.9697,-3.9697,-3.9697,-3.9697,-3.9697,-3.9697,-3.9697,-3.9697,-3.9697,-3.9697,-3.9697,-3.9697,-3.9697,-3.9697,-3.9509,-3.9107,-3.809,-3.74,-3.7136,-3.6659,-3.6207,-3.5843,-3.5516,-3.509,-3.4575,-3.4198,-3.3859,-3.3483,-3.342,-3.3269,-3.3144,-3.3081,-3.3081,-3.3018,-3.2692,-3.2491,-3.2127,-3.1637,-3.1122,-3.0884,-3.0432,-3.0131,-3.0105,-2.9917,-2.9804,-2.9779,-2.9779,-2.9779,-2.9779,-2.9779,-2.9779,-2.9779,-2.9779,-2.9779,-2.9779,-2.9779,-2.9779,-2.9779,-2.9779,-2.9779,-2.9779,-2.9779,-2.9779,-2.9779,-2.9779,-2.9779,-2.9779,-2.9779,-2.9679,-2.9478,-2.9139,-2.8913,-2.8562,-2.84,-2.8065,-2.7519,-2.6741,-2.6508,-2.6761,-2.7439,-2.8402,-2.9294,-2.9081,-2.8597,-3.3418,-3.3418,-3.3457,-3.3457,-3.3437,-3.3476,-3.3467,-3.3418,-3.3418,-3.3408,-3.3379,-3.3359,-3.325,-3.2936,-3.3006,-3.4221,-3.644,-3.7266,-3.8681,-4.0184,-4.1218,-4.1301,-4.1401,-4.1597,-4.1769,-4.1731,-4.1028,-4.0551,-4.0262,-3.9885,-3.9697,-3.9697,-3.9697,-3.9697,-3.9697,-3.9697,-3.9697,-3.9697,-3.9697,-3.9697,-3.9697,-3.9697,-3.9697,-3.9697,-3.9697,-3.9672,-3.9471,-3.8517,-3.7676,-3.7161,-3.6609,-3.6345,-3.632,-3.632,-3.5906,-3.5403,-3.5386,-3.4826,-3.4161,-3.3947,-3.3734,-3.3282,-3.3219,-3.3081,-3.3068,-3.3006,-3.2805,-3.2403,-3.2164,-3.1926,-3.1436,-3.0934,-3.0566,-3.044,-3.008,-2.9817,-2.9779,-2.9779,-2.9779,-2.9779,-2.9779,-2.9779,-2.9779,-2.9779,-2.9779,-2.9779,-2.9779,-2.9779,-2.9779,-2.9779,-2.9779,-2.9779,-2.9792,-2.9779,-2.9779,-2.9779,-2.9779,-2.9779,-2.9754,-2.9628,-2.9453,-2.9126,-2.9063,-2.8612,-2.7934,-2.7531,-2.6968,-2.6222,-2.6211,-2.6966,-2.7711,-2.8578,-2.8975,-2.8966,-2.8609,-3.3418,-3.3447,-3.376,-3.3711,-3.3496,-3.375,-3.3711,-3.3437,-3.3418,-3.3418,-3.3418,-3.3418,-3.3913,-3.4582,-3.4562,-3.5648,-3.7305,-3.8341,-3.9349,-4.0773,-4.1631,-4.2195,-4.2472,-4.2509,-4.2158,-4.163,-4.1254,-4.0701,-3.9961,-3.9785,-3.9697,-3.9697,-3.9697,-3.9697,-3.9697,-3.9697,-3.9697,-3.9697,-3.9697,-3.9697,-3.9697,-3.9697,-3.9697,-3.9697,-3.9697,-3.9685,-3.9597,-3.8605,-3.7538,-3.6671,-3.6471,-3.637,-3.6332,-3.6031,-3.578,-3.5604,-3.5203,-3.4876,-3.4613,-3.45,-3.4248,-3.3759,-3.3633,-3.3508,-3.3106,-3.3081,-3.3006,-3.278,-3.2503,-3.2177,-3.1926,-3.126,-3.068,-3.0089,-2.9861,-2.9779,-2.9779,-2.9779,-2.9779,-2.9779,-2.9779,-2.9779,-2.9779,-2.9779,-2.9779,-2.9779,-2.9779,-2.9779,-2.9779,-2.9779,-2.9779,-2.9792,-2.9792,-2.9792,-2.9779,-2.9779,-2.9779,-2.9779,-2.9704,-2.9566,-2.9352,-2.9063,-2.9214,-2.9251,-2.8047,-2.749,-2.6587,-2.5771,-2.6464,-2.6883,-2.7325,-2.7894,-2.9073,-2.9534,-2.8937,-3.3418,-3.3437,-3.3691,-3.3662,-3.3457,-3.3691,-3.3652,-3.3447,-3.3418,-3.3776,-3.4258,-3.4373,-3.519,-3.6372,-3.6297,-3.7148,-3.877,-3.9255,-4.0306,-4.1602,-4.2276,-4.2672,-4.2898,-4.2961,-4.2522,-4.1743,-4.1442,-4.0865,-4.0149,-3.9823,-3.971,-3.9697,-3.9697,-3.9697,-3.9697,-3.9697,-3.9697,-3.9697,-3.9697,-3.9697,-3.9697,-3.9697,-3.9697,-3.9697,-3.9685,-3.9622,-3.927,-3.8467,-3.75,-3.6634,-3.637,-3.637,-3.6345,-3.6081,-3.5881,-3.5881,-3.5567,-3.5341,-3.5115,-3.5064,-3.4688,-3.4085,-3.3909,-3.3621,-3.3219,-3.3081,-3.3081,-3.3018,-3.2742,-3.2616,-3.2453,-3.1855,-3.0941,-3.0034,-2.9758,-2.9792,-2.9792,-2.9779,-2.9779,-2.9779,-2.9779,-2.9779,-2.9779,-2.9779,-2.9779,-2.9779,-2.9779,-2.9779,-2.9779,-2.9779,-2.9702,-2.9624,-2.9378,-2.9197,-2.9197,-2.9197,-2.9365,-2.9456,-2.9754,-2.9591,-2.944,-2.9126,-2.9148,-2.9049,-2.814,-2.7186,-2.6427,-2.5797,-2.5822,-2.6218,-2.664,-2.7658,-2.9015,-2.9624,-2.9106,-3.3418,-3.3428,-3.3467,-3.3467,-3.3437,-3.3476,-3.3516,-3.3428,-3.365,-3.4497,-3.5571,-3.5928,-3.698,-3.8439,-3.8173,-3.9001,-4.0775,-4.0559,-4.1382,-4.2389,-4.2911,-4.2961,-4.2961,-4.2986,-4.2635,-4.2082,-4.163,-4.1166,-4.0639,-4.0136,-3.9873,-3.9885,-3.9848,-3.9735,-3.9722,-3.9697,-3.9697,-3.9697,-3.9697,-3.9697,-3.9697,-3.9697,-3.9697,-3.9697,-3.9697,-3.9421,-3.8944,-3.8291,-3.7525,-3.6508,-3.6395,-3.637,-3.637,-3.6345,-3.6332,-3.6307,-3.6207,-3.6019,-3.573,-3.5604,-3.5215,-3.4424,-3.4123,-3.3746,-3.3357,-3.3169,-3.3081,-3.3081,-3.3081,-3.3006,-3.2893,-3.239,-3.146,-3.0475,-3.0019,-3.0018,-2.993,-2.9867,-2.9779,-2.9779,-2.9779,-2.9779,-2.9779,-2.9779,-2.9779,-2.9779,-2.9779,-2.9779,-2.9779,-2.9779,-2.9611,-2.9275,-2.8937,-2.8518,-2.853,-2.845,-2.8791,-2.9118,-2.9611,-2.9716,-2.9704,-2.9437,-2.9098,-2.87,-2.8187,-2.736,-2.6367,-2.5946,-2.5646,-2.619,-2.7,-2.8176,-2.9324,-2.93,-2.9028,-3.3418,-3.3457,-3.3789,-3.374,-3.3506,-3.3779,-3.373,-3.367,-3.485,-3.5571,-3.6051,-3.7133,-3.8569,-4.0105,-4.0103,-4.0865,-4.225,-4.2227,-4.265,-4.2824,-4.2986,-4.2986,-4.2986,-4.2986,-4.2672,-4.2221,-4.2045,-4.1668,-4.1204,-4.0927,-4.0739,-4.035,-4.0237,-4.0124,-3.9772,-3.9722,-3.9697,-3.9697,-3.9697,-3.9697,-3.9697,-3.9697,-3.9697,-3.9697,-3.9697,-3.9421,-3.8881,-3.8304,-3.7688,-3.7098,-3.6659,-3.6496,-3.6395,-3.637,-3.637,-3.637,-3.637,-3.6295,-3.6207,-3.6107,-3.5893,-3.514,-3.4638,-3.4311,-3.3759,-3.3282,-3.3106,-3.3081,-3.3081,-3.3081,-3.3018,-3.2516,-3.1797,-3.1133,-3.0973,-3.0959,-3.0896,-3.0306,-2.9892,-2.9829,-2.9804,-2.9779,-2.9779,-2.9779,-2.9779,-2.9779,-2.9779,-2.9779,-2.9779,-2.9702,-2.9263,-2.8834,-2.8016,-2.7522,-2.7706,-2.7879,-2.8359,-2.8779,-2.9365,-2.9779,-2.9779,-2.9804,-2.9481,-2.9052,-2.8609,-2.7602,-2.6532,-2.5714,-2.5295,-2.6412,-2.7464,-2.8303,-2.8973,-2.904,-2.9197,-3.3418,-3.3447,-3.3672,-3.412,-3.4548,-3.474,-3.521,-3.5735,-3.6539,-3.7363,-3.8082,-3.9041,-4.0233,-4.1659,-4.1785,-4.2263,-4.2862,-4.2986,-4.2974,-4.2986,-4.2986,-4.2986,-4.2986,-4.2936,-4.2698,-4.2233,-4.2145,-4.1856,-4.148,-4.1317,-4.1003,-4.0563,-4.0526,-4.0375,-4.0049,-3.9823,-3.986,-3.9986,-3.981,-3.9697,-3.9697,-3.9697,-3.9697,-3.9697,-3.9697,-3.9534,-3.9245,-3.873,-3.8304,-3.7902,-3.7412,-3.6847,-3.6445,-3.637,-3.637,-3.637,-3.637,-3.637,-3.6358,-3.632,-3.5994,-3.5253,-3.4876,-3.4286,-3.3734,-3.3206,-3.3106,-3.3081,-3.3081,-3.3081,-3.3031,-3.2466,-3.1934,-3.1701,-3.1472,-3.1411,-3.126,-3.067,-3.0181,-3.0118,-2.9967,-2.9842,-2.9779,-2.9892,-2.9829,-2.9842,-2.9792,-2.9779,-2.9419,-2.925,-2.8652,-2.806,-2.7012,-2.6532,-2.6801,-2.7209,-2.7855,-2.853,-2.9197,-2.9611,-2.9779,-2.9817,-2.9777,-2.9361,-2.8864,-2.7867,-2.6778,-2.5953,-2.5797,-2.6953,-2.7947,-2.8371,-2.887,-2.9287,-2.9534,-3.4017,-3.3776,-3.4017,-3.4974,-3.604,-3.6173,-3.6913,-3.7985,-3.8461,-3.917,-4.0488,-4.0834,-4.1659,-4.2737,-4.2862,-4.2986,-4.2986,-4.2986,-4.2986,-4.2986,-4.2986,-4.2986,-4.2986,-4.2936,-4.2785,-4.2321,-4.2346,-4.2057,-4.1794,-4.1543,-4.1417,-4.0802,-4.0664,-4.0488,-4.03,-3.9973,-3.9848,-4.0124,-3.9873,-3.9697,-3.9697,-3.9697,-3.9697,-3.9697,-3.9697,-3.9685,-3.9496,-3.912,-3.8818,-3.8818,-3.8241,-3.7437,-3.6784,-3.6483,-3.6408,-3.6395,-3.637,-3.637,-3.637,-3.632,-3.5968,-3.5002,-3.4763,-3.4349,-3.3658,-3.3244,-3.3093,-3.3081,-3.3081,-3.3081,-3.3018,-3.2641,-3.2328,-3.2131,-3.1901,-3.1687,-3.1549,-3.1173,-3.0934,-3.0683,-3.0532,-3.0382,-3.0206,-3.0193,-3.003,-2.9892,-2.9842,-2.9689,-2.9328,-2.873,-2.8231,-2.7325,-2.6356,-2.5199,-2.5305,-2.6595,-2.7313,-2.7787,-2.8633,-2.953,-2.9777,-2.9752,-2.9724,-2.9642,-2.9053,-2.8191,-2.7533,-2.6953,-2.7116,-2.7936,-2.8187,-2.845,-2.9028,-2.9702,-2.9779,-3.666,-3.5571,-3.6892,-3.7626,-3.7735,-3.7854,-3.7974,-3.845,-3.9756,-4.0361,-4.0834,-4.2012,-4.2613,-4.2974,-4.2986,-4.2986,-4.2986,-4.2924,-4.2949,-4.2974,-4.2986,-4.2986,-4.2986,-4.2974,-4.2898,-4.2886,-4.2798,-4.2672,-4.2635,-4.2647,-4.2032,-4.1379,-4.1191,-4.0865,-4.0187,-3.9747,-3.9823,-3.9998,-3.981,-3.971,-3.9697,-3.9697,-3.9697,-3.9697,-3.9697,-3.9697,-3.9584,-3.9195,-3.8868,-3.8781,-3.7877,-3.7362,-3.7098,-3.7048,-3.6822,-3.6471,-3.6433,-3.6458,-3.6383,-3.6358,-3.6295,-3.5918,-3.5278,-3.4751,-3.4223,-3.3621,-3.3219,-3.3081,-3.3081,-3.3081,-3.3068,-3.2867,-3.2893,-3.2867,-3.278,-3.2679,-3.2591,-3.2227,-3.1738,-3.1436,-3.1235,-3.0984,-3.0746,-3.044,-3.029,-3.0102,-2.9849,-2.9802,-2.9599,-2.8676,-2.7683,-2.6778,-2.5703,-2.4542,-2.3714,-2.5476,-2.6718,-2.6951,-2.7869,-2.948,-2.9783,-2.9827,-2.9749,-2.9617,-2.9605,-2.9246,-2.8609,-2.8028,-2.8279,-2.8858,-2.8767,-2.8438,-2.9106,-2.9779,-2.9779,-3.7746,-3.7133,-3.7854,-3.8698,-3.9405,-3.9405,-4.0001,-4.0707,-4.1545,-4.1899,-4.2024,-4.2625,-4.2986,-4.2986,-4.2986,-4.2986,-4.2936,-4.2647,-4.2735,-4.2886,-4.2986,-4.2986,-4.2986,-4.2986,-4.2986,-4.2974,-4.2974,-4.2986,-4.2986,-4.2949,-4.2509,-4.1969,-4.1756,-4.1329,-4.0651,-4.03,-4.0136,-4.0074,-3.9848,-3.9697,-3.9697,-3.9697,-3.9697,-3.9697,-3.9697,-3.9697,-3.9647,-3.9496,-3.9308,-3.9207,-3.8781,-3.8216,-3.7789,-3.7513,-3.7224,-3.6596,-3.6596,-3.6621,-3.6433,-3.6358,-3.6232,-3.5906,-3.5391,-3.4864,-3.4387,-3.3796,-3.3382,-3.3144,-3.3081,-3.3081,-3.3081,-3.3081,-3.3081,-3.3081,-3.3081,-3.3081,-3.3018,-3.2805,-3.2503,-3.2114,-3.1687,-3.1279,-3.0985,-3.0773,-3.0586,-3.0256,-2.9995,-2.9849,-2.9829,-2.8462,-2.7209,-2.6295,-2.5294,-2.4382,-2.3897,-2.537,-2.6646,-2.6832,-2.7499,-2.9107,-2.9688,-2.9683,-2.9764,-2.9752,-2.9792,-2.9779,-2.9611,-2.8949,-2.9365,-2.9611,-2.9365,-2.9197,-2.9534,-2.9779,-2.9779,-3.8935,-3.8698,-3.9053,-3.9884,-4.0949,-4.1064,-4.1785,-4.2862,-4.2862,-4.2862,-4.2986,-4.2986,-4.2986,-4.2949,-4.2873,-4.2836,-4.2898,-4.2434,-4.2509,-4.2898,-4.2986,-4.2986,-4.2986,-4.2986,-4.2986,-4.2986,-4.2986,-4.2986,-4.2986,-4.2986,-4.2647,-4.2233,-4.2133,-4.1781,-4.1103,-4.0576,-4.0526,-4.0224,-3.9961,-3.971,-3.9697,-3.9697,-3.9697,-3.9697,-3.9697,-3.9697,-3.9685,-3.9647,-3.9634,-3.9584,-3.9383,-3.8994,-3.8191,-3.8002,-3.7538,-3.6784,-3.6872,-3.6722,-3.6521,-3.637,-3.6219,-3.5918,-3.5642,-3.5064,-3.4525,-3.4123,-3.3646,-3.3219,-3.3081,-3.3081,-3.3081,-3.3081,-3.3081,-3.3081,-3.3081,-3.3081,-3.3081,-3.3006,-3.2993,-3.2579,-3.2077,-3.1888,-3.173,-3.143,-3.1279,-3.0829,-3.0553,-2.9936,-2.9671,-2.7822,-2.6554,-2.5797,-2.5052,-2.4307,-2.4509,-2.5906,-2.6866,-2.7267,-2.8089,-2.9426,-2.9613,-2.9568,-2.9674,-2.9779,-2.9779,-2.9779,-2.9779,-2.9779,-2.9702,-2.9702,-2.9779,-2.9779,-2.9792,-2.9792,-2.9779,-4.1659,-4.0476,-4.1785,-4.2613,-4.2613,-4.2613,-4.2737,-4.2986,-4.2986,-4.2986,-4.2911,-4.2949,-4.2936,-4.2848,-4.2459,-4.2559,-4.2685,-4.2459,-4.2459,-4.2924,-4.2986,-4.2986,-4.2986,-4.2986,-4.2986,-4.2986,-4.2986,-4.2986,-4.2986,-4.2986,-4.2723,-4.2321,-4.212,-4.1693,-4.0902,-4.0727,-4.0275,-3.9898,-3.976,-3.9722,-3.9697,-3.9697,-3.9697,-3.9697,-3.9697,-3.9697,-3.9697,-3.9697,-3.9697,-3.9647,-3.9233,-3.8693,-3.8128,-3.8002,-3.7688,-3.7149,-3.6747,-3.6433,-3.6433,-3.6383,-3.6358,-3.6094,-3.5855,-3.5529,-3.5064,-3.4387,-3.3771,-3.3156,-3.3119,-3.3093,-3.3093,-3.3081,-3.3081,-3.3081,-3.3081,-3.3081,-3.3081,-3.3081,-3.3081,-3.3056,-3.2554,-3.2667,-3.2717,-3.2328,-3.1951,-3.1556,-3.1052,-3.0378,-2.9401,-2.7673,-2.6152,-2.5389,-2.5473,-2.4893,-2.5052,-2.6534,-2.7417,-2.7822,-2.865,-2.9626,-2.9564,-2.9543,-2.9661,-2.9779,-2.9779,-2.9779,-2.9779,-2.9779,-2.9779,-2.9779,-2.9779,-2.9792,-2.9792,-2.9804,-2.9905,-4.2339,-4.2024,-4.2737,-4.2986,-4.2986,-4.2986,-4.2986,-4.2986,-4.2986,-4.2798,-4.2559,-4.2509,-4.2509,-4.2446,-4.2233,-4.2472,-4.276,-4.2396,-4.2459,-4.2886,-4.2986,-4.2986,-4.2986,-4.2986,-4.2986,-4.2986,-4.2986,-4.2986,-4.2986,-4.2961,-4.2811,-4.2622,-4.2283,-4.1806,-4.0978,-4.0965,-4.0664,-4.035,-4.0149,-3.9998,-3.9785,-3.9697,-3.9697,-3.9697,-3.9697,-3.9697,-3.9697,-3.9697,-3.9697,-3.9659,-3.9408,-3.9082,-3.8567,-3.8191,-3.7751,-3.7211,-3.6671,-3.6546,-3.6747,-3.6533,-3.6408,-3.6345,-3.6107,-3.5881,-3.5491,-3.4851,-3.4135,-3.3596,-3.3545,-3.342,-3.3169,-3.3081,-3.3081,-3.3093,-3.3144,-3.3093,-3.3093,-3.3081,-3.3081,-3.3081,-3.3081,-3.3081,-3.3081,-3.283,-3.2168,-3.1257,-3.0618,-2.9772,-2.901,-2.7822,-2.6323,-2.5041,-2.5473,-2.5891,-2.6252,-2.7087,-2.8217,-2.8718,-2.8949,-2.9658,-2.9514,-2.9543,-2.9727,-2.9779,-2.9779,-2.9779,-2.9804,-2.9779,-2.9779,-2.9779,-2.9779,-2.9892,-3.0018,-3.0269,-3.0223,-4.2396,-4.2748,-4.2622,-4.2647,-4.2773,-4.2773,-4.276,-4.2773,-4.2748,-4.2459,-4.207,-4.1944,-4.1944,-4.1944,-4.1982,-4.2195,-4.2698,-4.2333,-4.2534,-4.2823,-4.2986,-4.2986,-4.2986,-4.2986,-4.2986,-4.2974,-4.2986,-4.2986,-4.2986,-4.2974,-4.2974,-4.2949,-4.2396,-4.1856,-4.143,-4.1065,-4.0714,-4.0224,-4.0174,-4.0011,-3.9772,-3.9697,-3.9697,-3.9697,-3.9697,-3.9697,-3.9697,-3.9697,-3.9697,-3.9685,-3.9672,-3.9358,-3.8856,-3.8291,-3.7889,-3.7362,-3.6822,-3.6621,-3.6784,-3.6697,-3.6433,-3.637,-3.632,-3.6081,-3.5579,-3.5102,-3.4562,-3.3909,-3.406,-3.3784,-3.3458,-3.3245,-3.3208,-3.327,-3.3195,-3.3194,-3.3131,-3.3194,-3.3156,-3.3081,-3.3081,-3.3081,-3.3081,-3.3081,-3.2421,-3.1122,-3.0158,-2.9347,-2.8545,-2.7753,-2.7133,-2.5914,-2.6552,-2.7241,-2.7696,-2.8286,-2.912,-2.9357,-2.9661,-2.9792,-2.9596,-2.9596,-2.9714,-2.9779,-2.9779,-3.003,-3.0193,-2.998,-2.9779,-2.9779,-2.9842,-3.0105,-3.0319,-3.0608,-3.0443,-4.217,-4.217,-4.1656,-4.1743,-4.2208,-4.2221,-4.2208,-4.2208,-4.2208,-4.1907,-4.143,-4.1392,-4.1404,-4.1417,-4.1505,-4.1756,-4.2195,-4.2158,-4.2459,-4.2773,-4.2974,-4.2936,-4.2924,-4.2911,-4.2949,-4.2911,-4.2949,-4.2986,-4.2986,-4.2986,-4.2986,-4.2898,-4.2409,-4.1882,-4.1467,-4.1153,-4.0626,-4.0174,-4.0074,-3.9948,-3.9772,-3.9697,-3.9697,-3.9697,-3.9697,-3.9697,-3.9697,-3.9697,-3.9697,-3.9697,-3.9697,-3.9534,-3.9019,-3.8467,-3.8078,-3.7688,-3.6973,-3.6784,-3.6835,-3.6659,-3.6433,-3.637,-3.632,-3.6182,-3.5742,-3.5604,-3.5014,-3.4286,-3.4512,-3.4349,-3.3895,-3.3543,-3.352,-3.3533,-3.3558,-3.3345,-3.3395,-3.3395,-3.3332,-3.3156,-3.3131,-3.3206,-3.3081,-3.3081,-3.2473,-3.1269,-3.047,-2.9652,-2.8635,-2.7895,-2.798,-2.7623,-2.8173,-2.8769,-2.9271,-2.9661,-2.9608,-2.953,-2.9727,-2.9779,-2.9714,-2.9779,-2.9779,-2.9779,-2.9817,-3.0206,-3.0432,-3.0068,-2.9817,-2.9792,-2.9905,-3.0156,-3.0473,-3.0735,-3.0523,-4.1153,-4.1091,-4.0563,-4.084,-4.1656,-4.1643,-4.1643,-4.1643,-4.1643,-4.1342,-4.084,-4.084,-4.084,-4.0915,-4.1229,-4.143,-4.1693,-4.2032,-4.2258,-4.2534,-4.2735,-4.2735,-4.2723,-4.271,-4.2823,-4.261,-4.2748,-4.2986,-4.2986,-4.2873,-4.2961,-4.2811,-4.2371,-4.2133,-4.1756,-4.143,-4.0915,-4.0438,-4.0388,-4.0438,-3.9747,-3.9697,-3.9697,-3.9697,-3.9697,-3.9697,-3.9697,-3.9697,-3.9697,-3.9697,-3.9697,-3.9509,-3.9245,-3.873,-3.8304,-3.7939,-3.7149,-3.6835,-3.6671,-3.6508,-3.6383,-3.637,-3.6358,-3.6257,-3.6006,-3.6031,-3.5692,-3.5278,-3.5052,-3.4951,-3.4155,-3.3868,-3.3871,-3.396,-3.3909,-3.3796,-3.3721,-3.3759,-3.3646,-3.3508,-3.347,-3.3495,-3.3294,-3.3081,-3.2288,-3.1478,-3.0673,-2.9945,-2.8865,-2.841,-2.8612,-2.8943,-2.9463,-2.9399,-2.9774,-2.9842,-2.9792,-2.9842,-2.9854,-2.9882,-2.9894,-2.9779,-2.9779,-2.9779,-2.9804,-3.0043,-3.0105,-2.9955,-2.9942,-3.0131,-3.0156,-3.0181,-3.0505,-3.0885,-3.0422,-4.0526,-4.045,-3.9923,-4.0237,-4.104,-4.1103,-4.1103,-4.1103,-4.1091,-4.0777,-4.0287,-4.0275,-4.0275,-4.0425,-4.0827,-4.1065,-4.1229,-4.158,-4.1831,-4.2032,-4.217,-4.2221,-4.217,-4.2158,-4.2195,-4.2057,-4.2221,-4.2434,-4.2384,-4.2472,-4.2396,-4.2308,-4.2308,-4.2158,-4.2057,-4.1756,-4.1204,-4.0614,-4.0501,-4.0563,-3.9735,-3.9697,-3.9697,-3.9697,-3.9697,-3.9697,-3.9697,-3.9697,-3.9697,-3.9697,-3.9672,-3.9597,-3.9308,-3.8919,-3.8354,-3.7801,-3.7274,-3.6772,-3.6496,-3.637,-3.637,-3.637,-3.637,-3.6358,-3.637,-3.6358,-3.5981,-3.5487,-3.5592,-3.5424,-3.4628,-3.4748,-3.4648,-3.4801,-3.4663,-3.4447,-3.4336,-3.4274,-3.4073,-3.3897,-3.3897,-3.3909,-3.3345,-3.302,-3.2414,-3.1291,-2.9903,-2.9522,-2.9431,-2.9239,-2.9834,-3.0117,-3.0455,-3.027,-2.998,-2.9917,-2.9917,-3.0227,-3.0165,-3.0007,-3.0022,-2.9932,-2.9804,-2.9779,-2.9817,-2.988,-2.9942,-2.9993,-3.0281,-3.0608,-3.0738,-3.0905,-3.0548,-3.0736,-3.0203,-4.0501,-4.045,-3.991,-4.0023,-4.0513,-4.0538,-4.0526,-4.0538,-4.0526,-4.0249,-3.9835,-3.9785,-3.9785,-3.9898,-4.0362,-4.0513,-4.0651,-4.1091,-4.1354,-4.1404,-4.158,-4.1467,-4.143,-4.148,-4.1593,-4.1404,-4.1568,-4.1668,-4.1543,-4.1656,-4.158,-4.1718,-4.1969,-4.2158,-4.2057,-4.1128,-4.0337,-3.9835,-3.9898,-3.986,-3.9747,-3.9697,-3.9697,-3.9697,-3.9697,-3.9697,-3.9697,-3.9697,-3.9697,-3.9697,-3.9697,-3.9521,-3.9157,-3.868,-3.8103,-3.745,-3.6897,-3.6546,-3.637,-3.637,-3.637,-3.637,-3.637,-3.637,-3.637,-3.632,-3.6219,-3.5805,-3.5981,-3.5956,-3.575,-3.5742,-3.5529,-3.5299,-3.5123,-3.5011,-3.4876,-3.4977,-3.4826,-3.455,-3.45,-3.4374,-3.3633,-3.2959,-3.2425,-3.1282,-2.9449,-2.9035,-2.9704,-2.9963,-3.0549,-3.1136,-3.1422,-3.1078,-3.0658,-3.0105,-3.008,-3.0361,-3.0578,-3.0423,-3.0249,-3.0173,-3.0033,-2.9829,-2.993,-3.008,-3.0131,-3.0156,-3.0465,-3.0879,-3.158,-3.1738,-3.1138,-3.0624,-3.0175,-3.9973,-3.9948,-3.9772,-3.9798,-3.9961,-3.9961,-3.9961,-3.9973,-3.9961,-3.986,-3.9722,-3.9697,-3.9697,-3.9785,-3.9848,-4.0023,-4.0099,-4.0513,-4.0789,-4.0827,-4.1078,-4.104,-4.0978,-4.104,-4.1091,-4.099,-4.1065,-4.1241,-4.1379,-4.1216,-4.1279,-4.1467,-4.1718,-4.212,-4.2108,-4.163,-4.1216,-4.0425,-4.0224,-4.0099,-3.9747,-3.9697,-3.9697,-3.9697,-3.9697,-3.9697,-3.9697,-3.9697,-3.9697,-3.9697,-3.9697,-3.9546,-3.9333,-3.8969,-3.8592,-3.7952,-3.7425,-3.7073,-3.6646,-3.637,-3.637,-3.637,-3.637,-3.637,-3.637,-3.637,-3.6232,-3.6132,-3.6207,-3.6194,-3.6194,-3.5667,-3.5403,-3.5324,-3.5236,-3.5328,-3.5303,-3.568,-3.5755,-3.5378,-3.519,-3.4379,-3.3642,-3.3045,-3.2497,-3.2131,-3.0628,-3.0828,-3.1476,-3.1086,-3.118,-3.1884,-3.2147,-3.183,-3.1424,-3.0859,-3.0675,-3.0959,-3.1022,-3.0876,-3.0716,-3.0461,-3.0121,-2.9892,-3.0105,-3.0306,-3.0244,-3.024,-3.0698,-3.1135,-3.1902,-3.2155,-3.1649,-3.0993,-3.0559,-3.9697,-3.9697,-3.9697,-3.9697,-3.9697,-3.9697,-3.9697,-3.9697,-3.9697,-3.9697,-3.9697,-3.9697,-3.9697,-3.9697,-3.9697,-3.9697,-3.9735,-4.0023,-4.0224,-4.0275,-4.0551,-4.0463,-4.0438,-4.0576,-4.045,-4.0413,-4.0526,-4.0714,-4.0651,-4.0727,-4.0827,-4.104,-4.1417,-4.1593,-4.1706,-4.1643,-4.1342,-4.0576,-4.0249,-3.9986,-3.9772,-3.9697,-3.9697,-3.9697,-3.9697,-3.9697,-3.9697,-3.9697,-3.9697,-3.9697,-3.9685,-3.9597,-3.9509,-3.9295,-3.8931,-3.8278,-3.7713,-3.7337,-3.6847,-3.6408,-3.6395,-3.637,-3.637,-3.637,-3.637,-3.637,-3.637,-3.6332,-3.637,-3.6358,-3.6245,-3.568,-3.5667,-3.5612,-3.5612,-3.5717,-3.5793,-3.6157,-3.568,-3.5357,-3.5556,-3.4711,-3.389,-3.3174,-3.258,-3.2313,-3.1866,-3.246,-3.2698,-3.1916,-3.1565,-3.234,-3.2717,-3.2365,-3.1989,-3.1587,-3.1505,-3.1637,-3.1549,-3.1342,-3.1054,-3.0705,-3.0286,-3.0018,-3.0256,-3.0407,-3.0202,-3.0311,-3.0885,-3.1497,-3.2156,-3.2247,-3.1944,-3.145,-3.0831,-3.9697,-3.9697,-3.9697,-3.9697,-3.9697,-3.9697,-3.9697,-3.9697,-3.9697,-3.9697,-3.9697,-3.9697,-3.9697,-3.9697,-3.9697,-3.9697,-3.9697,-3.976,-3.9785,-3.9785,-3.9961,-3.9835,-3.9823,-3.986,-3.9936,-3.9823,-3.986,-4.0061,-3.9785,-3.9973,-4.0212,-4.0438,-4.0701,-4.099,-4.1216,-4.1241,-4.099,-4.0538,-4.0212,-3.9948,-3.9747,-3.9697,-3.9697,-3.9697,-3.9697,-3.9697,-3.9697,-3.9697,-3.9697,-3.9697,-3.9697,-3.9383,-3.9132,-3.8919,-3.853,-3.8103,-3.7613,-3.7337,-3.7048,-3.6659,-3.6433,-3.6395,-3.637,-3.637,-3.637,-3.637,-3.637,-3.637,-3.637,-3.637,-3.627,-3.6245,-3.6219,-3.6232,-3.6232,-3.6245,-3.6245,-3.5949,-3.5181,-3.5132,-3.5829,-3.5491,-3.4838,-3.4053,-3.3138,-3.2743,-3.2454,-3.2399,-3.2476,-3.1468,-3.1492,-3.2698,-3.2905,-3.278,-3.2453,-3.2152,-3.2127,-3.2223,-3.2021,-3.18,-3.1427,-3.1001,-3.0648,-3.0444,-3.0586,-3.0595,-3.0716,-3.0997,-3.1354,-3.1888,-3.2297,-3.2411,-3.2228,-3.1547,-3.0765,-3.9697,-3.9697,-3.9697,-3.9697,-3.9697,-3.9697,-3.9697,-3.9697,-3.9697,-3.9697,-3.9697,-3.9697,-3.9697,-3.9697,-3.9697,-3.9697,-3.9697,-3.9697,-3.971,-3.9697,-3.9697,-3.9697,-3.9697,-3.9697,-3.9697,-3.9697,-3.9697,-3.9697,-3.9722,-3.9697,-3.9722,-3.9936,-4.0287,-4.0576,-4.0676,-4.0764,-4.0639,-4.0475,-4.0212,-3.9986,-3.976,-3.9697,-3.9697,-3.9697,-3.9697,-3.9697,-3.9697,-3.9697,-3.9697,-3.9697,-3.9697,-3.9534,-3.9521,-3.9433,-3.9207,-3.8655,-3.8128,-3.7638,-3.7262,-3.7036,-3.6772,-3.6433,-3.637,-3.637,-3.637,-3.637,-3.637,-3.637,-3.637,-3.637,-3.637,-3.637,-3.637,-3.637,-3.637,-3.637,-3.6263,-3.5808,-3.5064,-3.5125,-3.5741,-3.5704,-3.5169,-3.4687,-3.3798,-3.3362,-3.3057,-3.2846,-3.2463,-3.1644,-3.1556,-3.2772,-3.3056,-3.2918,-3.2943,-3.2717,-3.2767,-3.278,-3.2516,-3.2206,-3.1841,-3.1481,-3.1066,-3.0989,-3.1238,-3.1448,-3.1612,-3.1782,-3.1587,-3.1822,-3.2177,-3.2363,-3.2352,-3.1616,-3.0676,-3.9697,-3.9697,-3.9697,-3.9697,-3.9697,-3.9697,-3.9697,-3.9697,-3.9697,-3.9697,-3.9697,-3.9697,-3.9697,-3.9697,-3.9697,-3.9697,-3.9697,-3.9697,-3.9697,-3.9697,-3.9697,-3.9697,-3.9697,-3.9697,-3.9697,-3.9697,-3.9697,-3.9697,-3.9697,-3.9697,-3.971,-3.9747,-4.0099,-4.0149,-4.0249,-4.0388,-4.0388,-4.0249,-4.0099,-3.9986,-3.9835,-3.9697,-3.9697,-3.9697,-3.9697,-3.9697,-3.9697,-3.9697,-3.9697,-3.9697,-3.9697,-3.9697,-3.9685,-3.9659,-3.9634,-3.912,-3.8668,-3.8115,-3.7663,-3.7287,-3.6885,-3.6533,-3.637,-3.637,-3.637,-3.637,-3.637,-3.637,-3.637,-3.637,-3.637,-3.637,-3.637,-3.637,-3.637,-3.637,-3.6073,-3.5667,-3.5475,-3.5283,-3.5344,-3.5284,-3.5074,-3.4737,-3.4454,-3.3921,-3.3412,-3.3008,-3.286,-3.2463,-3.2265,-3.297,-3.3081,-3.3043,-3.3081,-3.3081,-3.3031,-3.298,-3.293,-3.2644,-3.2301,-3.2037,-3.1687,-3.1769,-3.2013,-3.2155,-3.2139,-3.1818,-3.1672,-3.1928,-3.1982,-3.1784,-3.1756,-3.1553,-3.0406,-3.9697,-3.9685,-3.9647,-3.9584,-3.9622,-3.9521,-3.9521,-3.9622,-3.9584,-3.9647,-3.9672,-3.9697,-3.9697,-3.9697,-3.9697,-3.9697,-3.9697,-3.9697,-3.9697,-3.9697,-3.9697,-3.9697,-3.9697,-3.9697,-3.9697,-3.9697,-3.9697,-3.9697,-3.9697,-3.9697,-3.9697,-3.9697,-3.9747,-3.981,-3.9885,-4.0149,-4.0149,-3.9923,-3.9848,-3.976,-3.9747,-3.9697,-3.9697,-3.9697,-3.9697,-3.9697,-3.9697,-3.9697,-3.9697,-3.9697,-3.9697,-3.9697,-3.9697,-3.9697,-3.9659,-3.9559,-3.9145,-3.868,-3.8115,-3.7663,-3.7098,-3.6697,-3.6395,-3.637,-3.637,-3.637,-3.637,-3.637,-3.637,-3.637,-3.637,-3.637,-3.637,-3.637,-3.637,-3.637,-3.6263,-3.5763,-3.5283,-3.509,-3.4775,-3.4908,-3.5688,-3.5487,-3.5136,-3.4607,-3.3819,-3.3221,-3.3108,-3.2872,-3.2995,-3.3093,-3.3081,-3.3081,-3.3081,-3.3081,-3.3081,-3.3068,-3.3081,-3.3018,-3.2646,-3.2384,-3.2252,-3.2313,-3.2339,-3.2432,-3.2478,-3.2231,-3.2122,-3.2201,-3.2006,-3.1256,-3.0974,-3.0932,-3.0045,-3.9697,-3.9647,-3.9245,-3.9057,-3.9007,-3.8592,-3.868,-3.9057,-3.9069,-3.9308,-3.9634,-3.9685,-3.9697,-3.9697,-3.9697,-3.9697,-3.9697,-3.9697,-3.9697,-3.9697,-3.9697,-3.9697,-3.9697,-3.9697,-3.9697,-3.9697,-3.9697,-3.9697,-3.9697,-3.9697,-3.9697,-3.9697,-3.9697,-3.9697,-3.9697,-3.9961,-3.9848,-3.9697,-3.9697,-3.9697,-3.9697,-3.9697,-3.9697,-3.9697,-3.9697,-3.9697,-3.9697,-3.9697,-3.9697,-3.9697,-3.9697,-3.9697,-3.9697,-3.9697,-3.9697,-3.9659,-3.9521,-3.912,-3.863,-3.809,-3.7575,-3.7036,-3.6697,-3.6471,-3.637,-3.637,-3.637,-3.637,-3.637,-3.637,-3.637,-3.637,-3.637,-3.637,-3.637,-3.637,-3.637,-3.5775,-3.5174,-3.486,-3.4533,-3.5089,-3.5936,-3.6137,-3.581,-3.5039,-3.3856,-3.3183,-3.3183,-3.3059,-3.3095,-3.3156,-3.3093,-3.3081,-3.3081,-3.3081,-3.3081,-3.3081,-3.3081,-3.3031,-3.2895,-3.2754,-3.2672,-3.2533,-3.2495,-3.2689,-3.2817,-3.2893,-3.2819,-3.2685,-3.2105,-3.136,-3.0325,-3.0045,-2.9131,-3.8956,-3.8906,-3.8617,-3.8479,-3.8429,-3.814,-3.8191,-3.8492,-3.8755,-3.9044,-3.9346,-3.9559,-3.9697,-3.9697,-3.9697,-3.9697,-3.9697,-3.9697,-3.9697,-3.9697,-3.9697,-3.9697,-3.9697,-3.9697,-3.9697,-3.9697,-3.9697,-3.9697,-3.9697,-3.9697,-3.9697,-3.9697,-3.9697,-3.9697,-3.9697,-3.9697,-3.9697,-3.9697,-3.9697,-3.9697,-3.9697,-3.9697,-3.9697,-3.9697,-3.9697,-3.9697,-3.9697,-3.9697,-3.9697,-3.9697,-3.9697,-3.9697,-3.9697,-3.9697,-3.9697,-3.9697,-3.9609,-3.9446,-3.8969,-3.8542,-3.8103,-3.7588,-3.7048,-3.6835,-3.6709,-3.6684,-3.6383,-3.637,-3.637,-3.637,-3.637,-3.637,-3.637,-3.637,-3.637,-3.637,-3.637,-3.6061,-3.5763,-3.5667,-3.5547,-3.5642,-3.6295,-3.627,-3.6062,-3.602,-3.4751,-3.3731,-3.357,-3.3483,-3.3383,-3.3269,-3.3232,-3.3131,-3.3081,-3.3081,-3.3081,-3.3081,-3.3081,-3.3056,-3.3018,-3.3003,-3.3022,-3.2836,-3.2824,-3.2902,-3.3091,-3.3154,-3.3081,-3.2945,-3.2216,-3.1402,-3.0411,-2.9498,-2.8588,-3.804,-3.8002,-3.7939,-3.7902,-3.7877,-3.7801,-3.7826,-3.7965,-3.8417,-3.873,-3.8956,-3.9383,-3.9584,-3.9685,-3.9697,-3.9697,-3.9697,-3.9697,-3.9697,-3.9697,-3.9697,-3.9697,-3.9697,-3.9697,-3.9697,-3.9697,-3.9697,-3.9697,-3.9697,-3.9697,-3.9697,-3.9697,-3.9697,-3.9697,-3.9697,-3.9697,-3.9697,-3.9697,-3.9697,-3.9697,-3.9697,-3.9697,-3.9697,-3.9697,-3.9697,-3.9697,-3.9697,-3.9697,-3.9697,-3.9697,-3.9697,-3.9697,-3.9697,-3.9697,-3.9697,-3.9697,-3.9697,-3.9446,-3.912,-3.8881,-3.853,-3.8128,-3.7588,-3.7249,-3.7111,-3.6847,-3.6558,-3.6383,-3.6383,-3.637,-3.637,-3.637,-3.637,-3.637,-3.637,-3.637,-3.6358,-3.6358,-3.6358,-3.6263,-3.6358,-3.6358,-3.6358,-3.6345,-3.642,-3.6417,-3.6011,-3.5055,-3.4335,-3.4122,-3.401,-3.3696,-3.3458,-3.3332,-3.3144,-3.3081,-3.3081,-3.3081,-3.3081,-3.3081,-3.3154,-3.3066,-3.3139,-3.3091,-3.3129,-3.3116,-3.3129,-3.3081,-3.3081,-3.3081,-3.2698,-3.1907,-3.0992,-2.9954,-2.868,-3.8002,-3.7965,-3.7538,-3.7337,-3.7274,-3.6885,-3.691,-3.7312,-3.7475,-3.7977,-3.8668,-3.8944,-3.9233,-3.9685,-3.9697,-3.9659,-3.9572,-3.9647,-3.9697,-3.9697,-3.9697,-3.9697,-3.9697,-3.9697,-3.9697,-3.9697,-3.9697,-3.9697,-3.9697,-3.9697,-3.9697,-3.9697,-3.9697,-3.9697,-3.9697,-3.9697,-3.9697,-3.9697,-3.9697,-3.9697,-3.9697,-3.9697,-3.9697,-3.9697,-3.9697,-3.9697,-3.9697,-3.9697,-3.9697,-3.9697,-3.9697,-3.9697,-3.9697,-3.9697,-3.9697,-3.9697,-3.9697,-3.9622,-3.9383,-3.9145,-3.8818,-3.8705,-3.8165,-3.7626,-3.7412,-3.7086,-3.6784,-3.6471,-3.6433,-3.6383,-3.637,-3.637,-3.637,-3.637,-3.637,-3.637,-3.637,-3.637,-3.637,-3.637,-3.637,-3.637,-3.6358,-3.6358,-3.6358,-3.637,-3.6417,-3.5625,-3.5281,-3.4979,-3.4587,-3.4186,-3.3809,-3.342,-3.3181,-3.3093,-3.3081,-3.3081,-3.3081,-3.3081,-3.3081,-3.3081,-3.3081,-3.3081,-3.3081,-3.3154,-3.3081,-3.3081,-3.3081,-3.3081,-3.3068,-3.2575,-3.1601,-3.0586,-2.9407]},{"header":{"parameterUnit":"m.s-1","parameterCategory":1,"la1":31.0,"la2":29.5877,"lo1":-88.7671,"lo2":-86.6584,"dy":0.0162,"dx":0.0185,"nx":115,"ny":88,"refTime":"2023-06-13T06:00:00:Z","depth":0,"parameterNumber":3,"parameterNumberName":"V-component_of_WINDS"},"data":[0.0,0.0,0.0,0.0,0.0,0.0,0.0,0.0,0.0,0.0,0.0,0.0,0.0,0.0,0.0,0.0,0.0,0.0,0.0,0.0,0.0,0.0,0.0,0.0,0.0,0.0,0.0,0.0,0.0,0.0,0.0,0.0,0.0,0.0,0.0,0.0,0.0,0.0,0.0,0.0,0.0,0.0,0.0,0.0,0.0,0.0,0.0,0.0,0.0,0.0,0.0,0.0,0.0,0.0,0.0,0.0,0.0,0.0,0.0,0.0,0.0,0.0,0.0,0.0,0.0,0.0,0.0,0.0,0.0,0.0,0.0,0.0,0.0,0.0,0.0,0.0,0.0,0.0,0.0,0.0,0.0,0.0,0.0,0.0,0.0,0.0,0.0,0.0,0.0,0.0,0.0,0.0,0.0,0.0,0.0,0.0,0.0,0.0,0.0,0.0,0.0,0.0,0.0,0.0,0.0,0.0,0.0,0.0,0.0,0.0,0.0,0.0,0.0,0.0,0.0,0.0,0.0,0.0,0.0,0.0,0.0,0.0,0.0,0.0,0.0,0.0,0.0,0.0,0.0,0.0,0.0,0.0,0.0,0.0,0.0,0.0,0.0,0.0,0.0,0.0,0.0,0.0,0.0,0.0,0.0,0.0,0.0,0.0,0.0,0.0,0.0,0.0,0.0,0.0,0.0,0.0,0.0,0.0,0.0,0.0,0.0,0.0,0.0,0.0,0.0,0.0,0.0,0.0,0.0,0.0,0.0,0.0,0.0,0.0,0.0,0.0,0.0,0.0,0.0,0.0,0.0,0.0,0.0,0.0,0.0,0.0,0.0,0.0,0.0,0.0,0.0,0.0,0.0,0.0,0.0,0.0,0.0,0.0,0.0,0.0,0.0,0.0,0.0,0.0,0.0,0.0,0.0,0.0,0.0,0.0,0.0,0.0,0.0,0.0,0.0,0.0,0.0,0.0,0.0,0.0,0.0,0.0,0.0,0.0,0.0,0.0,0.0,0.0,0.0,0.0,0.0,0.0,0.0,0.0,0.0,0.0,0.0,0.0,0.0,0.0,0.0,0.0,0.0,0.0,0.0,0.0,0.0,0.0,0.0,0.0,0.0,0.0,0.0,0.0,0.0,0.0,0.0,0.0,0.0,0.0,0.0,0.0,0.0,0.0,0.0,0.0,0.0,0.0,0.0,0.0,0.0,0.0,0.0,0.0,0.0,0.0,0.0,0.0,0.0,0.0,0.0,0.0,0.0,0.0,0.0,0.0,0.0,0.0,0.0,0.0,0.0,0.0,0.0,0.0,0.0,0.0,0.0,0.0,0.0,0.0,0.0,0.0,0.0,0.0,0.0,0.0,0.0,0.0,0.0,0.0,0.0,0.0,0.0,0.0,0.0,0.0,0.0,0.0,0.0,0.0,0.0,0.0,0.0,0.0,0.0,0.0,0.0,0.0,0.0,0.0,0.0,0.0,0.0,0.0,0.0,0.0,0.0,0.0,0.0,0.0,0.0,0.0,0.0,0.0,0.0,0.0,0.0,0.0,0.0,0.0,0.0,0.0,0.0,0.0,0.0,0.0,0.0,0.0,0.0,0.0,0.0,0.0,0.0,0.0,0.0,0.0,0.0,0.0,0.0,0.0,0.0,0.0,0.0,0.0,0.0,0.0,0.0,0.0,0.0,0.0,0.0,0.0,0.0,0.0,0.0,0.0,0.0,0.0,0.0,0.0,0.0,0.0,0.0,0.0,0.0,0.0,0.0,0.0,0.0,0.0,0.0,0.0,0.0,0.0,0.0,0.0,0.0,0.0,0.0,0.0,0.0,0.0,0.0,0.0,0.0,0.0,0.0,0.0,0.0,0.0,0.0,0.0,0.0,0.0,0.0,0.0,0.0,0.0,0.0,0.0,0.0,0.0,0.0,0.0,0.0,0.0,0.0,0.0,0.0,0.0,0.0,0.0,0.0,0.0,0.0,0.0,0.0,0.0,0.0,0.0,0.0,0.0,0.0,0.0,0.0,0.0,0.0,0.0,0.0,0.0,0.0,0.0,0.0,0.0,0.0,0.0,0.0,0.0,0.0,0.0,0.0,0.0,0.0,0.0,0.0,0.0,0.0,0.0,0.0,0.0,0.0,0.0,0.0,0.0,0.0,0.0,0.0,0.0,0.0,0.0,0.0,0.0,0.0,0.0,0.0,0.0,0.0,0.0,0.0,0.0,0.0,0.0,0.0,0.0,0.0,0.0,0.0,0.0,0.0,0.0,0.0,0.0,0.0,0.0,0.0,0.0,0.0,0.0,0.0,0.0,0.0,0.0,0.0,0.0,0.0,0.0,0.0,0.0,0.0,0.0,0.0,0.0,0.0,0.0,0.0,0.0,0.0,0.0,0.0,0.0,0.0,0.0,0.0,0.0,0.0,0.0,0.0,0.0,0.0,0.0,0.0,0.0,0.0,0.0,0.0,0.0,0.0,0.0,0.0,0.0,0.0,0.0,0.0,0.0,0.0,0.0,0.0,0.0,0.0,0.0,0.0,0.0,0.0,0.0,0.0,0.0,0.0,0.0,0.0,0.0,0.0,0.0,0.0,0.0,0.0,0.0,0.0,0.0,0.0,0.0,0.0,0.0,0.0,0.0,0.0,0.0,0.0,0.0,0.0,0.0,0.0,0.0,0.0,0.0,0.0,0.0,0.0,0.0,0.0,0.0,0.0,0.0,0.0,0.0,0.0,0.0,0.0,0.0,0.0,0.0,0.0,0.0,0.0,0.0,0.0,0.0,0.0,0.0,0.0,0.0,0.0,0.0,0.0,0.0,0.0,0.0,0.0,0.0,0.0,0.0,0.0,0.0,0.0,0.0,0.0,0.0,0.0,0.0,0.0,0.0,0.0,0.0,0.0,0.0,0.0,0.0,0.0,0.0,0.0,0.0,0.0,0.0,0.0,0.0,0.0,0.0,0.0,0.0,0.0,0.0,0.0,0.0,0.0,0.0,0.0,0.0,0.0,0.0,0.0,0.0,0.0,0.0,0.0,0.0,0.0,0.0,0.0,0.0,0.0,0.0,0.0,0.0,0.0,0.0,0.0,0.0,0.0,0.0,0.0,0.0,0.0,0.0,0.0,0.0,0.0,0.0,0.0,0.0,0.0,0.0,0.0,0.0,0.0,0.0,0.0,0.0,0.0,0.0,0.0,0.0,0.0,0.0,0.0,0.0,0.0,0.0,0.0,0.0,0.0,0.0,0.0,0.0,0.0,0.0,0.0,0.0,0.0,0.0,0.0,0.0,0.0,0.0,0.0,0.0,0.0,0.0,0.0,0.0,0.0,0.0,0.0,0.0,0.0,0.0,0.0,0.0,0.0,0.0,0.0,0.0,0.0,0.0,0.0,0.0,0.0,0.0,0.0,0.0,0.0,0.0,0.0,0.0,0.0,0.0,0.0,0.0,0.0,0.0,0.0,0.0,0.0,0.0,0.0,0.0,0.0,0.0,0.0,0.0,0.0,0.0,0.0,0.0,0.0,0.0,0.0,0.0,0.0,0.0,0.0,0.0,0.0,0.0,0.0,0.0,0.0,0.0,0.0,0.0,0.0,0.0,0.0,0.0,0.0,0.0,0.0,0.0,0.0,0.0,0.0,0.0,0.0,0.0,0.0,0.0,0.0,0.0,0.0,0.0,0.0,0.0,0.0,0.0,0.0,0.0,0.0,0.0,0.0,0.0,0.0,0.0,0.0,0.0,0.0,0.0,0.0,0.0,0.0,0.0,0.0,0.0,0.0,0.0,0.0,0.0,0.0,0.0,0.0,0.0,0.0,0.0,0.0,0.0,0.0,0.0,0.0,0.0,0.0,0.0,0.0,0.0,0.0,0.0,0.0,0.0,0.0,0.0,0.0,0.0,0.0,0.0,0.0,0.0,0.0,0.0,0.0,0.0,0.0,0.0,0.0,0.0,0.0,0.0,0.0,0.0,0.0,0.0,0.0,0.0,0.0,0.0,0.0,0.0,0.0,0.0,0.0,0.0,0.0,0.0,0.0,0.0,0.0,0.0,0.0,0.0,0.0,0.0,0.0,0.0,0.0,0.0,0.0,0.0,0.0,0.0,0.0,0.0,0.0,0.0,0.0,0.0,0.0,0.0,0.0,0.0,0.0,0.0,0.0,0.0,0.0,0.0,0.0,0.0,0.0,0.0,0.0,0.0,0.0,0.0,0.0,0.0,0.0,0.0,0.0,0.0,0.0,0.0,0.0,0.0,0.0,0.0,0.0,0.0,0.0,0.0,0.0,0.0,-0.4731,0.0,0.0,0.0,0.0,0.0,0.0,0.0,0.0,0.0,0.0,0.0,0.0,0.0,0.0,0.0,0.0,0.0,0.0,0.0,0.0,0.0,0.0,0.0,0.0,0.0,0.0,0.0,0.0,0.0,0.0,0.0,0.0,0.0,0.0,0.0,0.0,0.0,0.0,0.0,0.0,0.0,0.0,0.0,0.0,0.0,0.0,0.0,0.0,0.0,0.0,0.0,0.0,0.0,0.0,0.0,0.0,0.0,0.0,0.0,0.0,0.0,0.0,0.0,0.0,0.0,0.0,0.0,0.0,0.0,0.0,0.0,0.0,0.0,0.0,0.0,0.0,0.0,0.0,0.0,0.0,0.0,0.0,0.0,0.0,0.0,0.0,0.0,0.0,0.0,0.0,0.0,0.0,0.0,0.0,0.0,0.0,0.0,0.0,0.0,0.0,0.0,0.0,0.0,0.0,0.0,0.0,0.0,0.0,0.0,0.0,-0.4017,-0.4086,-0.4149,-0.4251,-0.4408,0.0,0.0,0.0,0.0,0.0,0.0,0.0,0.0,0.0,0.0,0.0,0.0,0.0,0.0,0.0,0.0,0.0,0.0,0.0,0.0,0.0,0.0,0.0,0.0,0.0,0.0,0.0,0.0,0.0,0.0,0.0,0.0,0.0,0.0,0.0,0.0,0.0,0.0,0.0,0.0,0.0,0.0,0.0,0.0,0.0,0.0,0.0,0.0,0.0,0.0,0.0,0.0,0.0,0.0,0.0,0.0,0.0,0.0,0.0,0.0,0.0,0.0,0.0,0.0,0.0,0.0,0.0,0.0,0.0,0.0,0.0,0.0,0.0,0.0,0.0,0.0,0.0,0.0,0.0,0.0,0.0,0.0,0.0,0.0,0.0,0.0,0.0,0.0,0.0,0.0,0.0,0.0,0.0,0.0,0.0,0.0,0.0,0.0,0.0,0.0,0.0,0.0,0.0,0.0,0.0,0.0,0.0,0.0,0.0,0.0,0.0,0.0,-0.5025,-0.526,-0.5463,0.0,0.0,0.0,0.0,0.0,0.0,0.0,0.0,0.0,0.0,0.0,0.0,0.0,0.0,0.0,0.0,0.0,0.0,0.0,0.0,0.0,0.0,0.0,0.0,0.0,0.0,0.0,0.0,0.0,0.0,0.0,0.0,0.0,0.0,0.0,0.0,0.0,0.0,0.0,0.0,0.0,0.0,0.0,0.0,0.0,0.0,0.0,0.0,0.0,0.0,0.0,0.0,0.0,0.0,0.0,0.0,0.0,0.0,0.0,0.0,0.0,0.0,0.0,0.0,0.0,0.0,0.0,0.0,0.0,0.0,0.0,0.0,0.0,0.0,0.0,0.0,0.0,0.0,0.0,0.0,0.0,0.0,0.0,0.0,0.0,0.0,0.0,0.0,0.0,0.0,0.0,0.0,0.0,0.0,0.0,0.0,0.0,0.0,0.0,0.0,0.0,0.0,0.0,0.0,0.0,0.0,0.0,0.0,0.0,0.0,-0.5232,-0.7119,-0.7602,0.0,-0.9271,0.0,0.0,0.0,0.0,0.0,0.0,0.0,0.0,0.0,0.0,0.0,0.0,0.0,0.0,0.0,0.0,0.0,0.0,0.0,0.0,0.0,0.0,0.0,0.0,0.0,0.0,0.0,0.0,0.0,0.0,0.0,0.0,0.0,0.0,0.0,0.0,0.0,0.0,0.0,0.0,0.0,0.0,0.0,0.0,0.0,0.0,0.0,0.0,0.0,0.0,0.0,0.0,0.0,0.0,0.0,0.0,0.0,0.0,0.0,0.0,0.0,0.0,0.0,0.0,0.0,0.0,0.0,0.0,0.0,0.0,0.0,0.0,0.0,0.0,0.0,0.0,0.0,0.0,0.0,0.0,0.0,0.0,0.0,0.0,0.0,0.0,0.0,0.0,0.0,0.0,0.0,0.0,0.0,0.0,0.0,0.0,0.0,0.0,0.0,0.0,0.0,0.0,0.0,0.0,0.0,0.0,0.0,0.0,0.0,0.0,-0.5967,-0.7871,-0.8674,-0.9176,0.0,0.0,0.0,0.0,0.0,0.0,0.0,0.0,0.0,0.0,0.0,0.0,0.0,0.0,0.0,0.0,0.0,0.0,0.0,0.0,0.0,0.0,0.0,0.0,0.0,0.0,0.0,0.0,0.0,0.0,0.0,0.0,0.0,0.0,0.0,0.0,0.0,0.0,0.0,0.0,0.0,0.0,0.0,0.0,0.0,0.0,0.0,0.0,0.0,0.0,0.0,0.0,0.0,0.0,0.0,0.0,0.0,0.0,0.0,0.0,0.0,0.0,0.0,0.0,0.0,0.0,0.0,0.0,0.0,0.0,0.0,0.0,0.0,0.0,0.0,0.0,0.0,0.0,0.0,0.0,0.0,0.0,0.0,0.0,0.0,0.0,0.0,0.0,0.0,0.0,0.0,0.0,0.0,0.0,0.0,0.0,0.0,0.0,0.0,0.0,0.0,0.0,0.0,0.0,0.0,0.0,0.0,0.0,0.0,0.0,-0.6231,-0.7111,-0.9245,-0.9196,-0.9389,-1.0001,0.0,0.0,0.0,0.0,0.0,0.0,0.0,0.0,0.0,0.0,0.0,0.0,0.0,0.0,0.0,0.0,0.0,0.0,0.0,0.0,0.0,0.0,0.0,0.0,0.0,0.0,0.0,0.0,0.0,0.0,0.0,0.0,0.0,0.0,0.0,0.0,0.0,0.0,0.0,0.0,0.0,0.0,0.0,0.0,0.0,0.0,0.0,0.0,0.0,0.0,0.0,0.0,0.0,0.0,0.0,0.0,0.0,0.0,0.0,0.0,0.0,0.0,0.0,0.0,0.0,0.0,0.0,0.0,0.0,0.0,0.0,0.0,0.0,0.0,0.0,0.0,0.0,0.0,0.0,0.0,0.0,0.0,0.0,0.0,0.0,0.0,0.0,0.0,0.0,0.0,0.0,0.0,0.0,0.0,0.0,0.0,0.0,0.0,0.0,0.0,0.0,0.0,0.0,0.0,0.0,0.0,0.0,0.0,-1.0902,-0.8644,-0.8935,-1.207,-0.9275,-0.919,0.0,0.0,0.0,0.0,0.0,0.0,0.0,0.0,0.0,0.0,0.0,0.0,0.0,0.0,0.0,0.0,0.0,0.0,0.0,0.0,0.0,0.0,0.0,0.0,0.0,0.0,0.0,0.0,0.0,0.0,0.0,0.0,0.0,0.0,0.0,0.0,0.0,0.0,0.0,0.0,0.0,0.0,0.0,0.0,0.0,0.0,0.0,0.0,0.0,0.0,0.0,0.0,0.0,0.0,0.0,0.0,0.0,0.0,0.0,0.0,0.0,0.0,0.0,0.0,0.0,0.0,0.0,0.0,0.0,0.0,0.0,0.0,0.0,0.0,0.0,0.0,0.0,0.0,0.0,0.0,0.0,0.0,0.0,0.0,0.0,0.0,0.0,0.0,0.0,0.0,0.0,0.0,0.0,0.0,0.0,0.0,0.0,0.0,0.0,0.0,0.0,0.0,0.0,0.0,0.0,0.0,0.0,0.0,0.0,-0.7947,-0.8136,-0.8835,-1.0092,-1.0077,-1.0167,0.0,0.0,0.0,0.0,0.0,0.0,0.0,0.0,0.0,0.0,0.0,0.0,0.0,0.0,0.0,0.0,0.0,0.0,0.0,0.0,0.0,0.0,0.0,0.0,0.0,0.0,0.0,0.0,0.0,0.0,0.0,0.0,0.0,0.0,0.0,0.0,0.0,0.0,0.0,0.0,0.0,0.0,0.0,0.0,0.0,0.0,0.0,0.0,0.0,0.0,0.0,0.0,0.0,0.0,0.0,0.0,0.0,0.0,0.0,0.0,0.0,0.0,0.0,0.0,0.0,0.0,0.0,0.0,0.0,0.0,0.0,0.0,0.0,0.0,0.0,0.0,0.0,0.0,0.0,0.0,0.0,0.0,0.0,0.0,0.0,0.0,0.0,0.0,0.0,0.0,0.0,0.0,0.0,0.0,0.0,0.0,0.0,0.0,0.0,0.0,0.0,0.0,0.0,0.0,0.0,0.0,0.0,0.0,0.0,-0.6537,0.0,-0.9586,-0.8916,-1.0574,-1.0593,0.0,0.0,0.0,0.0,0.0,0.0,0.0,0.0,0.0,0.0,0.0,0.0,0.0,0.0,0.0,0.0,0.0,0.0,0.0,0.0,0.0,0.0,0.0,0.0,0.0,0.0,0.0,0.0,0.0,0.0,0.0,0.0,0.0,0.0,0.0,0.0,0.0,0.0,0.0,0.0,0.0,0.0,0.0,0.0,0.0,0.0,0.0,0.0,0.0,0.0,0.0,0.0,0.0,0.0,0.0,0.0,0.0,0.0,0.0,0.0,0.0,0.0,0.0,0.0,0.0,0.0,0.0,0.0,0.0,0.0,0.0,0.0,0.0,0.0,0.0,0.0,0.0,0.0,0.0,0.0,0.0,0.0,0.0,0.0,0.0,0.0,0.0,0.0,0.0,0.0,0.0,0.0,0.0,0.0,0.0,0.0,0.0,0.0,0.0,0.0,0.0,0.0,0.0,0.0,0.0,0.0,0.0,0.0,-0.65,-0.7457,-1.0564,-1.1063,-0.9042,-1.0477,-1.0226,0.0,0.0,0.0,0.0,0.0,0.0,0.0,0.0,0.0,0.0,0.0,0.0,0.0,0.0,0.0,0.0,0.0,0.0,0.0,0.0,0.0,0.0,0.0,0.0,0.0,0.0,0.0,0.0,0.0,0.0,0.0,0.0,0.0,0.0,0.0,0.0,0.0,0.0,0.0,0.0,0.0,0.0,0.0,0.0,0.0,0.0,0.0,0.0,0.0,0.0,0.0,0.0,0.0,0.0,0.0,0.0,0.0,0.0,0.0,0.0,0.0,0.0,0.0,0.0,0.0,0.0,0.0,0.0,0.0,0.0,0.0,0.0,0.0,0.0,0.0,0.0,0.0,0.0,0.0,0.0,0.0,0.0,0.0,0.0,0.0,0.0,0.0,0.0,0.0,0.0,0.0,0.0,0.0,0.0,0.0,0.0,0.0,0.0,0.0,0.0,0.0,0.0,0.0,0.0,0.0,0.0,0.0,0.0,0.0,-0.7212,-0.8036,-0.8846,-0.9506,-0.8621,-0.8476,0.0,0.0,0.0,0.0,0.0,0.0,0.0,0.0,0.0,0.0,0.0,0.0,0.0,0.0,0.0,0.0,0.0,0.0,0.0,0.0,0.0,0.0,0.0,0.0,0.0,0.0,0.0,0.0,0.0,0.0,0.0,0.0,0.0,0.0,0.0,0.0,0.0,0.0,0.0,0.0,0.0,0.0,0.0,0.0,0.0,0.0,0.0,0.0,0.0,0.0,0.0,0.0,0.0,0.0,0.0,0.0,0.0,0.0,0.0,0.0,0.0,0.0,0.0,0.0,0.0,0.0,0.0,0.0,0.0,0.0,0.0,0.0,0.0,0.0,0.0,0.0,0.0,0.0,0.0,0.0,0.0,0.0,0.0,0.0,0.0,0.0,0.0,0.0,0.0,0.0,0.0,0.0,0.0,0.0,0.0,0.0,0.0,0.0,0.0,0.0,0.0,0.0,0.0,0.0,0.0,0.0,0.0,0.0,0.0,-0.8482,-0.8298,-0.8559,-0.9245,-0.9407,-0.9352,-0.9045,0.0,0.0,0.0,0.0,0.0,0.0,0.0,0.0,0.0,0.0,0.0,0.0,0.0,0.0,0.0,0.0,0.0,0.0,0.0,0.0,0.0,0.0,0.0,0.0,0.0,0.0,0.0,0.0,0.0,0.0,0.0,0.0,0.0,0.0,0.0,0.0,0.0,0.0,0.0,0.0,0.0,0.0,0.0,0.0,0.0,0.0,0.0,0.0,0.0,0.0,0.0,0.0,0.0,0.0,0.0,0.0,0.0,0.0,0.0,0.0,0.0,0.0,0.0,0.0,0.0,0.0,0.0,0.0,0.0,0.0,0.0,0.0,0.0,0.0,0.0,0.0,0.0,0.0,0.0,0.0,0.0,0.0,0.0,0.0,0.0,0.0,0.0,0.0,0.0,0.0,0.0,0.0,0.0,0.0,0.0,0.0,0.0,0.0,0.0,0.0,0.0,0.0,0.0,0.0,0.0,0.0,0.0,0.0,-1.124,-1.1217,-1.0489,-0.8937,-1.2448,-1.2382,0.0,0.0,0.0,0.0,0.0,0.0,0.0,0.0,0.0,0.0,0.0,0.0,0.0,0.0,0.0,0.0,0.0,0.0,0.0,0.0,0.0,0.0,0.0,0.0,0.0,0.0,0.0,0.0,0.0,0.0,0.0,0.0,0.0,0.0,0.0,0.0,0.0,0.0,0.0,0.0,0.0,0.0,0.0,0.0,0.0,0.0,0.0,0.0,0.0,0.0,0.0,0.0,0.0,0.0,0.0,0.0,0.0,0.0,0.0,0.0,0.0,0.0,0.0,0.0,0.0,0.0,0.0,0.0,0.0,0.0,0.0,0.0,0.0,0.0,0.0,0.0,0.0,0.0,0.0,0.0,0.0,0.0,0.0,0.0,0.0,0.0,0.0,0.0,0.0,0.0,0.0,0.0,0.0,0.0,0.0,0.0,0.0,0.0,0.0,0.0,0.0,0.0,0.0,0.0,0.0,0.0,0.0,0.0,0.0,-1.7641,-1.6923,-1.5912,-1.4893,-1.5092,-1.463,0.0,0.0,0.0,0.0,0.0,0.0,0.0,0.0,0.0,0.0,0.0,0.0,0.0,0.0,0.0,0.0,0.0,0.0,0.0,0.0,0.0,0.0,0.0,0.0,0.0,0.0,0.0,0.0,0.0,0.0,0.0,0.0,0.0,0.0,0.0,0.0,0.0,0.0,0.0,0.0,0.0,0.0,0.0,0.0,0.0,0.0,0.0,0.0,0.0,0.0,0.0,0.0,0.0,0.0,0.0,0.0,0.0,0.0,0.0,0.0,0.0,0.0,0.0,0.0,0.0,0.0,0.0,0.0,0.0,0.0,0.0,0.0,0.0,0.0,0.0,0.0,0.0,0.0,0.0,0.0,0.0,0.0,0.0,0.0,0.0,0.0,0.0,0.0,0.0,0.0,0.0,0.0,0.0,0.0,0.0,0.0,0.0,0.0,0.0,0.0,0.0,0.0,0.0,0.0,0.0,0.0,0.0,0.0,-1.6205,-1.9966,-2.0622,-2.0835,-2.0725,-1.894,-1.6923,0.0,0.0,0.0,0.0,0.0,0.0,0.0,0.0,0.0,0.0,0.0,0.0,0.0,0.0,0.0,0.0,0.0,0.0,0.0,0.0,0.0,0.0,0.0,0.0,0.0,0.0,0.0,0.0,0.0,0.0,0.0,0.0,0.0,0.0,0.0,0.0,0.0,0.0,0.0,0.0,0.0,0.0,0.0,0.0,0.0,0.0,0.0,0.0,0.0,0.0,0.0,0.0,0.0,0.0,0.0,0.0,0.0,0.0,0.0,0.0,0.0,0.0,0.0,0.0,0.0,0.0,0.0,0.0,0.0,0.0,0.0,0.0,0.0,0.0,0.0,0.0,0.0,0.0,0.0,0.0,0.0,0.0,0.0,0.0,0.0,0.0,0.0,0.0,0.0,0.0,0.0,0.0,0.0,0.0,0.0,0.0,0.0,0.0,0.0,0.0,0.0,0.0,0.0,0.0,0.0,0.0,0.0,0.0,-1.8182,-2.0257,-2.3052,-2.4913,-2.559,-2.2829,-1.9137,0.0,0.0,0.0,0.0,0.0,0.0,0.0,0.0,0.0,0.0,0.0,0.0,0.0,0.0,0.0,0.0,0.0,0.0,0.0,0.0,0.0,0.0,0.0,0.0,0.0,0.0,0.0,0.0,0.0,0.0,0.0,0.0,0.0,0.0,0.0,0.0,0.0,0.0,0.0,0.0,0.0,0.0,0.0,0.0,0.0,0.0,0.0,0.0,0.0,0.0,0.0,0.0,0.0,0.0,0.0,0.0,0.0,0.0,0.0,0.0,0.0,0.0,0.0,0.0,0.0,0.0,0.0,0.0,0.0,0.0,0.0,0.0,0.0,0.0,0.0,0.0,0.0,0.0,0.0,0.0,0.0,0.0,0.0,0.0,0.0,0.0,0.0,0.0,0.0,0.0,0.0,0.0,0.0,0.0,0.0,0.0,0.0,0.0,0.0,0.0,0.0,0.0,0.0,0.0,0.0,0.0,0.0,0.0,-1.9535,-2.4423,-2.5639,-2.6272,-2.6454,-2.2607,-2.002,0.0,0.0,0.0,0.0,0.0,0.0,0.0,0.0,0.0,0.0,0.0,0.0,0.0,0.0,0.0,0.0,0.0,0.0,0.0,0.0,0.0,0.0,0.0,0.0,0.0,0.0,0.0,0.0,0.0,0.0,0.0,0.0,0.0,0.0,0.0,0.0,0.0,0.0,0.0,0.0,0.0,0.0,0.0,0.0,0.0,0.0,0.0,0.0,-0.7281,0.0,0.0,0.0,0.0,0.0,0.0,0.0,0.0,0.0,0.0,0.0,0.0,0.0,0.0,0.0,0.0,0.0,0.0,0.0,0.0,0.0,0.0,0.0,0.0,0.0,0.0,0.0,0.0,0.0,0.0,0.0,0.0,0.0,0.0,0.0,0.0,0.0,0.0,0.0,0.0,0.0,0.0,0.0,0.0,0.0,0.0,0.0,0.0,0.0,0.0,0.0,0.0,0.0,0.0,0.0,0.0,0.0,0.0,0.0,-2.0326,-2.3885,-2.5893,-2.722,-2.7605,-2.4547,-2.1966,0.0,0.0,0.0,0.0,0.0,0.0,0.0,0.0,0.0,0.0,0.0,0.0,0.0,0.0,0.0,0.0,0.0,0.0,0.0,0.0,0.0,0.0,0.0,0.0,0.0,0.0,0.0,0.0,0.0,0.0,0.0,0.0,0.0,0.0,0.0,0.0,0.0,0.0,0.0,0.0,0.0,0.0,0.0,0.0,0.0,0.0,0.0,0.0,0.0,0.0,0.0,0.0,0.0,0.0,0.0,0.0,0.0,0.0,0.0,0.0,0.0,0.0,0.0,0.0,0.0,0.0,0.0,0.0,0.0,0.0,0.0,0.0,0.0,0.0,0.0,0.0,0.0,0.0,0.0,0.0,0.0,0.0,0.0,0.0,0.0,0.0,0.0,0.0,0.0,0.0,0.0,0.0,0.0,0.0,0.0,0.0,0.0,0.0,0.0,0.0,0.0,0.0,0.0,0.0,0.0,0.0,0.0,-1.8415,-2.0739,-2.2393,-2.5652,-2.7926,-2.8926,-2.6708,-2.391,-2.0677,0.0,0.0,0.0,0.0,0.0,0.0,0.0,0.0,0.0,0.0,0.0,0.0,0.0,0.0,0.0,0.0,0.0,0.0,0.0,0.0,0.0,0.0,0.0,0.0,0.0,0.0,0.0,0.0,0.0,0.0,0.0,0.0,0.0,0.0,0.0,0.0,0.0,0.0,-0.9383,-0.8753,0.0,0.0,0.0,0.0,0.0,0.0,0.0,0.0,-1.1301,0.0,0.0,0.0,0.0,0.0,0.0,0.0,0.0,0.0,0.0,0.0,0.0,0.0,0.0,0.0,0.0,0.0,0.0,0.0,0.0,0.0,0.0,0.0,0.0,0.0,0.0,0.0,0.0,0.0,0.0,0.0,0.0,0.0,0.0,0.0,0.0,0.0,0.0,0.0,0.0,0.0,0.0,0.0,0.0,0.0,0.0,0.0,0.0,0.0,0.0,0.0,0.0,0.0,0.0,0.0,0.0,-1.8643,-1.8769,-2.0756,-2.4803,-2.7061,-2.8441,-2.8909,-2.6347,-2.4264,-2.2823,0.0,0.0,0.0,0.0,0.0,0.0,0.0,0.0,0.0,0.0,0.0,0.0,0.0,0.0,0.0,0.0,0.0,0.0,0.0,0.0,0.0,0.0,0.0,0.0,0.0,0.0,0.0,0.0,0.0,0.0,0.0,0.0,0.0,0.0,0.0,0.0,0.0,0.0,0.0,-1.046,-1.065,0.0,0.0,0.0,0.0,0.0,0.0,0.0,0.0,-1.3278,0.0,0.0,0.0,0.0,0.0,0.0,0.0,0.0,0.0,0.0,0.0,0.0,0.0,0.0,0.0,0.0,0.0,0.0,0.0,0.0,0.0,0.0,0.0,0.0,0.0,0.0,0.0,0.0,0.0,0.0,0.0,0.0,0.0,0.0,0.0,0.0,0.0,0.0,0.0,0.0,0.0,0.0,0.0,0.0,0.0,0.0,0.0,0.0,0.0,0.0,0.0,0.0,0.0,0.0,0.0,-1.9254,-2.0344,-2.2365,-2.542,-2.7621,-2.8799,-2.8943,-2.6168,-2.4609,0.0,0.0,0.0,0.0,0.0,0.0,0.0,0.0,0.0,0.0,0.0,0.0,0.0,0.0,0.0,0.0,0.0,0.0,0.0,0.0,0.0,0.0,0.0,0.0,0.0,0.0,0.0,0.0,0.0,0.0,0.0,0.0,0.0,0.0,0.0,0.0,0.0,0.0,0.0,0.0,-1.1829,-1.235,-1.247,0.0,0.0,0.0,0.0,0.0,0.0,-1.2736,-1.3701,0.0,0.0,0.0,0.0,0.0,0.0,0.0,0.0,0.0,0.0,0.0,0.0,0.0,0.0,0.0,0.0,0.0,0.0,0.0,0.0,0.0,0.0,0.0,0.0,0.0,0.0,0.0,0.0,0.0,0.0,0.0,0.0,0.0,0.0,0.0,0.0,0.0,0.0,0.0,0.0,0.0,0.0,0.0,0.0,0.0,0.0,0.0,0.0,0.0,0.0,0.0,0.0,0.0,0.0,0.0,-1.9549,-2.1931,-2.4085,-2.5967,-2.8098,-2.9194,-2.9161,-2.6133,-2.4831,0.0,0.0,0.0,0.0,0.0,0.0,0.0,0.0,0.0,0.0,0.0,0.0,0.0,0.0,0.0,0.0,0.0,0.0,0.0,0.0,0.0,0.0,0.0,0.0,0.0,0.0,0.0,0.0,0.0,0.0,0.0,0.0,0.0,0.0,0.0,0.0,0.0,0.0,0.0,0.0,0.0,-1.4191,-1.3771,-1.3379,0.0,0.0,0.0,0.0,-1.3119,-1.438,0.0,0.0,0.0,0.0,0.0,0.0,0.0,0.0,0.0,0.0,0.0,0.0,0.0,0.0,0.0,0.0,0.0,0.0,0.0,0.0,0.0,0.0,0.0,0.0,0.0,0.0,0.0,0.0,0.0,0.0,0.0,0.0,0.0,0.0,0.0,0.0,0.0,0.0,0.0,0.0,0.0,0.0,0.0,0.0,0.0,0.0,0.0,0.0,0.0,0.0,0.0,0.0,0.0,0.0,0.0,0.0,-2.0342,-2.2611,-2.4993,-2.7472,-2.9145,-2.9973,-2.9939,-2.6404,-2.4831,0.0,0.0,0.0,0.0,0.0,0.0,0.0,0.0,0.0,0.0,0.0,0.0,0.0,0.0,0.0,0.0,0.0,0.0,0.0,0.0,0.0,0.0,0.0,0.0,0.0,0.0,0.0,0.0,0.0,0.0,0.0,0.0,0.0,0.0,0.0,0.0,0.0,0.0,0.0,0.0,0.0,-1.6114,-1.6101,-1.5419,-1.4858,0.0,0.0,-1.6494,-1.6064,-1.9486,0.0,0.0,0.0,0.0,0.0,0.0,0.0,0.0,0.0,0.0,0.0,0.0,0.0,0.0,0.0,0.0,0.0,0.0,0.0,0.0,0.0,0.0,0.0,0.0,0.0,0.0,0.0,0.0,0.0,0.0,0.0,0.0,0.0,0.0,0.0,0.0,0.0,0.0,0.0,0.0,0.0,0.0,0.0,0.0,0.0,0.0,0.0,0.0,0.0,0.0,0.0,0.0,0.0,0.0,0.0,-1.9429,-2.0727,-2.3816,-2.6085,-2.7457,-2.9194,-3.0108,-3.0091,-2.5659,-2.4188,0.0,0.0,0.0,0.0,0.0,0.0,0.0,0.0,0.0,0.0,0.0,0.0,0.0,0.0,0.0,0.0,0.0,0.0,0.0,0.0,0.0,0.0,0.0,0.0,0.0,0.0,0.0,0.0,0.0,0.0,0.0,0.0,0.0,0.0,0.0,0.0,0.0,0.0,0.0,0.0,0.0,0.0,-1.4519,-1.5331,0.0,0.0,0.0,-1.7586,-1.706,0.0,0.0,0.0,0.0,0.0,0.0,0.0,0.0,0.0,0.0,0.0,0.0,0.0,0.0,0.0,0.0,0.0,0.0,0.0,0.0,0.0,0.0,0.0,0.0,0.0,0.0,0.0,0.0,0.0,0.0,0.0,0.0,0.0,0.0,0.0,0.0,0.0,0.0,0.0,0.0,0.0,0.0,0.0,0.0,0.0,0.0,0.0,0.0,0.0,0.0,0.0,0.0,0.0,0.0,0.0,0.0,0.0,-2.1267,-2.4866,-2.719,-2.8056,-2.9734,-3.0666,-3.0565,-2.6133,0.0,0.0,0.0,0.0,0.0,0.0,0.0,0.0,0.0,0.0,0.0,0.0,0.0,0.0,0.0,0.0,0.0,0.0,0.0,0.0,0.0,0.0,0.0,0.0,0.0,0.0,0.0,-1.1404,0.0,0.0,0.0,0.0,0.0,0.0,0.0,0.0,0.0,0.0,0.0,0.0,0.0,0.0,-1.7745,-1.4796,-1.6305,-1.7895,0.0,0.0,-1.8897,-1.8536,-2.1707,-2.2086,0.0,0.0,0.0,0.0,0.0,0.0,0.0,0.0,0.0,0.0,0.0,0.0,0.0,0.0,0.0,0.0,0.0,0.0,0.0,0.0,0.0,0.0,0.0,0.0,0.0,0.0,0.0,0.0,0.0,0.0,0.0,0.0,0.0,0.0,0.0,0.0,0.0,0.0,0.0,0.0,0.0,0.0,0.0,0.0,0.0,0.0,0.0,0.0,0.0,0.0,0.0,0.0,0.0,0.0,-2.0837,-2.2335,-2.5502,-2.8192,-3.0318,-3.1526,-3.2138,-3.2127,-2.9093,-2.7485,0.0,0.0,0.0,0.0,0.0,0.0,0.0,0.0,0.0,0.0,0.0,0.0,0.0,0.0,0.0,0.0,0.0,0.0,0.0,0.0,0.0,0.0,0.0,0.0,0.0,0.0,0.0,0.0,0.0,0.0,0.0,0.0,0.0,0.0,0.0,0.0,0.0,0.0,0.0,0.0,0.0,-1.9521,-1.9742,-1.9891,-2.0792,0.0,-2.2261,-2.1425,-2.1633,-2.6032,-2.6875,-1.9148,0.0,0.0,0.0,0.0,0.0,0.0,0.0,0.0,0.0,0.0,0.0,0.0,0.0,0.0,0.0,0.0,0.0,0.0,0.0,0.0,0.0,0.0,0.0,0.0,0.0,0.0,0.0,0.0,0.0,0.0,0.0,0.0,0.0,0.0,0.0,0.0,0.0,0.0,0.0,0.0,0.0,0.0,0.0,0.0,0.0,0.0,0.0,0.0,0.0,0.0,0.0,0.0,0.0,-2.218,-2.3989,-2.6571,-2.9111,-3.1564,-3.2947,-3.3643,-3.3643,-3.0784,-2.8752,0.0,0.0,0.0,0.0,0.0,0.0,0.0,0.0,0.0,0.0,0.0,0.0,0.0,0.0,0.0,0.0,0.0,0.0,0.0,0.0,0.0,0.0,0.0,0.0,0.0,0.0,0.0,0.0,-1.3888,-1.4171,-1.4646,0.0,0.0,0.0,0.0,0.0,0.0,0.0,0.0,0.0,0.0,-2.0827,-2.0923,-2.1714,0.0,0.0,-2.3228,-2.2634,-2.3191,-2.5513,-2.5393,-1.9787,-1.8918,0.0,0.0,0.0,0.0,0.0,0.0,0.0,0.0,0.0,0.0,0.0,0.0,0.0,0.0,0.0,0.0,0.0,0.0,0.0,0.0,0.0,0.0,0.0,0.0,0.0,0.0,0.0,0.0,0.0,0.0,0.0,0.0,0.0,0.0,0.0,0.0,0.0,0.0,0.0,0.0,0.0,0.0,0.0,0.0,0.0,0.0,0.0,0.0,0.0,0.0,0.0,0.0,-2.3231,-2.5276,-2.7427,-2.9858,-3.2601,-3.4049,-3.4827,-3.4776,-3.2611,-3.07,0.0,0.0,0.0,0.0,0.0,0.0,0.0,0.0,0.0,0.0,0.0,0.0,0.0,0.0,0.0,0.0,0.0,0.0,0.0,0.0,0.0,0.0,0.0,0.0,0.0,0.0,0.0,0.0,-1.4962,-1.5019,-1.4754,0.0,0.0,0.0,0.0,0.0,0.0,0.0,0.0,0.0,0.0,-2.2467,-2.2291,-2.3567,-2.4766,-2.5464,-2.4571,-2.4069,-2.4652,-2.5441,-2.4632,-2.0537,0.0,0.0,0.0,0.0,0.0,0.0,0.0,0.0,0.0,0.0,0.0,0.0,0.0,0.0,0.0,0.0,0.0,0.0,0.0,0.0,0.0,0.0,0.0,0.0,0.0,0.0,0.0,-1.889,0.0,0.0,-2.0345,0.0,0.0,0.0,0.0,0.0,0.0,0.0,0.0,0.0,0.0,0.0,0.0,0.0,0.0,0.0,0.0,0.0,0.0,0.0,0.0,0.0,0.0,-2.3798,-2.6014,-2.8049,-3.0467,-3.3355,-3.4844,-3.5656,-3.5622,-3.481,-3.3694,-3.2154,0.0,0.0,0.0,0.0,0.0,0.0,0.0,0.0,0.0,0.0,0.0,0.0,0.0,0.0,0.0,0.0,0.0,0.0,0.0,0.0,0.0,0.0,0.0,0.0,0.0,0.0,-1.524,-1.5734,-1.5856,0.0,0.0,0.0,0.0,0.0,0.0,0.0,0.0,0.0,-2.0058,-2.2849,-2.4645,-2.443,-2.5663,-2.6812,-2.7751,-2.6629,-2.5793,-2.6046,-2.6543,-2.5632,0.0,0.0,0.0,0.0,0.0,0.0,0.0,0.0,0.0,0.0,0.0,0.0,0.0,0.0,0.0,0.0,0.0,0.0,0.0,0.0,0.0,0.0,0.0,0.0,0.0,0.0,0.0,-2.2426,-2.3172,0.0,0.0,0.0,0.0,0.0,0.0,0.0,0.0,0.0,0.0,0.0,-2.807,-2.8621,0.0,0.0,0.0,0.0,0.0,0.0,0.0,0.0,0.0,0.0,0.0,0.0,-2.5569,-2.8887,-3.0449,-3.2865,-3.6299,-3.7364,-3.7855,-3.7855,-3.7144,-3.5351,-3.2374,0.0,0.0,0.0,0.0,0.0,0.0,0.0,0.0,0.0,0.0,0.0,0.0,0.0,0.0,0.0,0.0,0.0,0.0,0.0,0.0,0.0,0.0,0.0,0.0,0.0,-1.5964,0.0,0.0,0.0,0.0,0.0,0.0,0.0,0.0,0.0,0.0,0.0,-2.0295,-2.2122,-2.3672,-2.458,-2.4646,-2.5627,-2.6354,0.0,0.0,0.0,0.0,0.0,0.0,0.0,0.0,0.0,0.0,0.0,0.0,0.0,0.0,-2.6218,-2.0027,-1.9341,-1.9604,-1.935,0.0,0.0,0.0,0.0,0.0,0.0,0.0,0.0,0.0,0.0,0.0,0.0,0.0,0.0,-2.6156,0.0,-2.7091,0.0,0.0,0.0,0.0,0.0,0.0,0.0,0.0,-2.8663,-3.0485,-3.1959,-3.2106,-3.2406,0.0,-3.2063,-3.0035,0.0,0.0,0.0,0.0,0.0,0.0,0.0,0.0,-2.7233,-3.0272,-3.2139,-3.4624,-3.7753,-3.8616,-3.8988,-3.8971,-3.8278,-3.662,-3.3931,-3.1204,-2.9068,0.0,0.0,0.0,0.0,0.0,0.0,0.0,0.0,0.0,0.0,0.0,0.0,0.0,0.0,0.0,0.0,0.0,0.0,0.0,0.0,0.0,0.0,0.0,-1.7561,0.0,0.0,0.0,0.0,0.0,0.0,0.0,0.0,0.0,-2.163,-2.1916,-2.3081,-2.5423,-2.5715,-2.5675,-2.5425,0.0,0.0,0.0,0.0,0.0,0.0,0.0,-2.4468,-2.3523,-2.6637,-2.9309,-2.9621,-3.0722,-3.1389,-3.0888,0.0,0.0,-2.39,-2.3173,-2.341,-2.3139,-2.3088,-2.3071,-2.3054,-2.3071,-2.3054,0.0,0.0,0.0,0.0,0.0,0.0,0.0,0.0,-2.9201,-2.9472,0.0,-3.0127,0.0,0.0,0.0,0.0,-2.8077,-3.0183,0.0,0.0,-3.4677,-3.6274,-3.4839,-3.4894,-3.5418,-3.6343,-3.4891,-3.3909,-3.3372,-3.0649,0.0,0.0,0.0,0.0,0.0,0.0,-2.8617,-3.0378,-3.3169,-3.5707,-3.7922,-3.8684,-3.9039,-3.9022,-3.8345,-3.7584,-3.6789,-3.5284,-3.4167,-3.3355,-3.0632,0.0,0.0,0.0,0.0,0.0,0.0,0.0,0.0,0.0,0.0,0.0,0.0,0.0,0.0,0.0,0.0,0.0,0.0,0.0,0.0,-1.9321,0.0,0.0,0.0,0.0,0.0,0.0,0.0,0.0,0.0,0.0,-2.4572,-2.5205,-2.6708,-2.955,0.0,0.0,0.0,0.0,-2.7503,-2.5933,-2.691,-2.7582,-2.6842,-2.7483,-2.7484,-2.5821,0.0,0.0,-2.9836,-3.1318,-3.2988,-3.4088,-3.2918,-3.1207,-3.0446,-2.8873,-2.7723,-2.7063,-2.5981,-2.4932,-2.4896,-2.5387,-2.5203,-3.559,0.0,0.0,0.0,0.0,-3.1377,-3.308,-3.5965,-3.4683,-3.4622,-3.5311,-3.4521,0.0,0.0,0.0,0.0,0.0,0.0,-3.3264,-3.4501,-3.6839,-3.8607,-3.9863,-4.0044,-3.9961,-3.9744,-3.8761,-3.8001,-3.733,-3.547,-3.3102,-3.0209,0.0,0.0,0.0,0.0,-3.0412,-3.3914,-3.5943,-3.7736,-3.9428,-3.9648,-3.9766,-3.9766,-3.9073,-3.8328,-3.7601,-3.6637,-3.5284,-3.3491,-3.2594,0.0,0.0,0.0,0.0,0.0,0.0,0.0,0.0,0.0,0.0,0.0,0.0,0.0,0.0,0.0,0.0,0.0,0.0,0.0,-2.0706,-2.2243,-2.2686,0.0,0.0,0.0,0.0,0.0,0.0,0.0,0.0,0.0,-2.8267,-2.74,-2.7086,0.0,0.0,-2.7621,-2.6809,-2.7476,-2.7933,-2.7429,-2.8172,0.0,-2.7876,-2.7444,-2.7485,-2.841,-3.2063,-3.4676,-3.406,-3.5611,-3.7169,-3.7522,-3.7165,-3.64,-3.5199,-3.2831,-3.1258,-3.136,-3.1529,-3.1613,-3.1613,-3.163,-3.1732,-4.2519,-3.8938,-3.5451,-3.4742,-3.5937,-3.5838,-3.7507,-4.0262,-3.9116,-3.8939,-3.9358,-3.8643,-3.7137,-3.5007,-3.372,0.0,0.0,0.0,-3.6163,-3.8182,-3.9333,-4.0998,-4.2963,-4.2819,-4.2828,-4.2929,-4.1627,-4.0899,-4.073,-3.8667,-3.6518,-3.4235,0.0,0.0,-3.0937,-3.1393,-3.2933,-3.5554,-3.7415,-3.8886,-4.0087,-4.0087,-4.0087,-4.007,-3.9665,-3.9208,-3.8785,-3.8328,-3.7313,-3.569,-3.4759,-3.3897,0.0,0.0,0.0,0.0,0.0,0.0,0.0,0.0,0.0,0.0,0.0,-2.2517,-2.171,0.0,0.0,0.0,-2.2249,-2.2228,-2.282,-2.3598,0.0,0.0,0.0,0.0,0.0,0.0,0.0,-2.4265,-2.6952,-2.9351,-3.0261,-2.9686,-2.9443,-3.03,-2.9691,-2.9,-2.85,0.0,-2.9234,-2.8884,-2.9703,-3.0068,-2.9119,-2.9045,-2.9801,-3.1747,-3.345,-3.507,-3.5626,-3.6994,-3.815,-3.8388,-3.8261,-3.7998,-3.7736,-3.5916,-3.4667,-3.5341,-3.5656,-3.5842,-3.5842,-3.5842,-3.5994,-4.8058,-4.6217,-3.9654,-3.7792,-3.9209,-3.9945,-4.1388,-4.3236,-4.258,-4.2415,-4.2543,-4.2293,-4.0905,-3.8631,-3.7291,0.0,-3.8454,-3.8401,-3.9418,-4.1223,-4.2192,-4.3386,-4.4688,-4.4012,-4.4434,-4.572,-4.3639,-4.3014,-4.3521,-4.0882,-3.9428,-3.9174,-3.6383,-3.4117,-3.2662,-3.4489,-3.5605,-3.578,-3.7922,-3.9411,-4.0223,-4.0257,-4.0223,-4.0172,-4.0121,-4.0054,-3.9986,-3.9919,-3.9631,-3.8971,-3.6895,-3.5701,-3.5571,0.0,0.0,0.0,0.0,0.0,0.0,0.0,0.0,0.0,0.0,0.0,0.0,0.0,0.0,0.0,-2.5151,0.0,-2.4941,-2.4282,0.0,0.0,0.0,-2.5818,-2.6759,-2.7762,-2.8161,-2.7596,0.0,0.0,-3.13,-3.1994,-3.2937,-3.4317,-3.2713,-3.1422,-3.1288,-3.1379,-3.1248,-3.0456,-3.1514,-3.1927,-3.0626,-3.1426,-3.2813,-3.4331,-3.3305,-3.2928,-3.4939,-3.6205,-3.6972,-3.7639,-3.7189,-3.7191,-3.8388,-3.8007,-3.8044,-3.8469,-3.8311,-3.8058,-3.8024,-3.7922,-3.7889,-5.1193,-5.0702,-4.8413,-4.6368,-4.4613,-4.4802,-4.5262,-4.5847,-4.515,-4.4817,-4.4807,-4.3617,-4.2464,-4.1325,-4.1002,-4.1291,-4.2142,-4.2732,-4.3542,-4.455,-4.5354,-4.5923,-4.6244,-4.6075,-4.6177,-4.6481,-4.5991,-4.5805,-4.5923,-4.4722,-4.3217,-4.1491,-3.9665,-3.7161,-3.4117,-3.4506,-3.5622,-3.7347,-3.8447,-3.9901,-4.1677,-4.1762,-4.1508,-4.095,-4.0428,-3.9823,-3.9309,-3.8688,-3.8537,-3.8922,-3.7369,-3.6456,-3.639,-3.3079,0.0,0.0,0.0,0.0,0.0,0.0,0.0,0.0,0.0,-2.7072,-2.6103,0.0,-2.5785,0.0,-2.662,-2.7076,-2.7601,-2.7944,0.0,0.0,-2.8484,-2.8763,-2.9343,-2.9743,-3.009,-3.0417,-3.1863,-3.3022,-3.353,-3.4294,-3.4924,-3.5187,-3.3863,-3.2834,-3.2804,-3.3318,-3.3409,-3.2832,-3.3673,-3.4016,-3.2304,-3.2246,-3.2719,-3.311,-3.3499,-3.4,-3.4583,-3.5745,-3.6773,-3.7107,-3.7403,-3.7801,-3.8446,-3.863,-3.8944,-3.9564,-3.9631,-3.9563,-3.9546,-3.9123,-3.8886,-5.2118,-5.1764,-5.1376,-5.0153,-4.8573,-4.8573,-4.8481,-4.8223,-4.7834,-4.7293,-4.6616,-4.5432,-4.4688,-4.4299,-4.4299,-4.4519,-4.4925,-4.5365,-4.5788,-4.6227,-4.6955,-4.7293,-4.7293,-4.731,-4.7293,-4.7293,-4.6955,-4.6786,-4.6769,-4.638,-4.5534,-4.4282,-4.3487,-4.1542,-3.8497,-3.6163,-3.5791,-3.7398,-3.8464,-4.007,-4.2168,-4.1982,-4.1032,-3.9429,-3.8667,-3.7649,-3.6323,-3.5826,-3.5974,-3.6622,-3.5546,-3.5083,-3.5344,-3.2869,-3.1402,0.0,0.0,0.0,0.0,0.0,0.0,0.0,0.0,0.0,0.0,0.0,-2.8273,-2.8217,-2.8606,-2.8921,-2.9026,-2.9556,-3.0027,-3.0274,-3.0567,-3.1073,-3.1667,-3.2043,-3.2458,-3.2779,-3.3774,-3.4581,-3.488,-3.5256,-3.5546,-3.5499,-3.4762,-3.4286,-3.4283,-3.4621,-3.4759,-3.441,-3.4753,-3.4711,-3.3514,-3.3274,-3.3378,-3.3754,-3.412,-3.4486,-3.4805,-3.506,-3.5468,-3.6166,-3.662,-3.7049,-3.7742,-3.8486,-3.9139,-3.9833,-4.0087,-4.0087,-4.0087,-3.9749,-3.9614,-5.2097,-5.1505,-5.1505,-5.1505,-5.1522,-5.1505,-5.1031,-5.0236,-5.0236,-4.9458,-4.8156,-4.7394,-4.7073,-4.7073,-4.6972,-4.7039,-4.7208,-4.7107,-4.7124,-4.7242,-4.7885,-4.8156,-4.8054,-4.8054,-4.8071,-4.8037,-4.7394,-4.7073,-4.7073,-4.7073,-4.6938,-4.6667,-4.6414,-4.5226,-4.2968,-3.8237,-3.6155,-3.6966,-3.8668,-4.0443,-4.2219,-4.1491,-3.9817,-3.7219,-3.639,-3.5054,-3.3129,-3.2902,-3.3161,-3.3794,-3.3177,-3.3209,-3.405,-3.2602,-3.1854,0.0,-3.1463,0.0,0.0,0.0,0.0,0.0,0.0,0.0,0.0,-3.1365,-3.1005,-3.0514,-3.0558,-3.0477,-3.0118,-3.0494,-3.1006,-3.1807,-3.2317,-3.2922,-3.3707,-3.4373,-3.4781,-3.4781,-3.5371,-3.5797,-3.5657,-3.5623,-3.5627,-3.5539,-3.5459,-3.5325,-3.5325,-3.5374,-3.5404,-3.5415,-3.4846,-3.4487,-3.4502,-3.4289,-3.4271,-3.4951,-3.4636,-3.4379,-3.4722,-3.438,-3.4132,-3.5037,-3.5583,-3.6115,-3.6946,-3.8117,-3.9139,-3.9969,-4.002,-3.9952,-4.007,-4.0054,-4.0087,-5.3196,-5.3078,-5.3061,-5.3078,-5.3061,-5.3061,-5.2283,-5.0997,-5.0997,-5.0507,-4.9644,-4.8917,-4.8578,-4.8545,-4.797,-4.8342,-4.9424,-4.8849,-4.8883,-4.9475,-4.961,-4.9357,-4.8815,-4.8798,-4.8798,-4.8798,-4.8646,-4.8595,-4.8595,-4.8595,-4.7665,-4.5923,-4.4464,-4.2997,-4.128,0.0,0.0,0.0,-4.0942,-4.2489,-4.2252,-4.0984,-3.9278,-3.7103,-3.6258,0.0,-3.3543,-3.2902,-3.3144,-3.427,-3.365,0.0,0.0,0.0,0.0,0.0,0.0,0.0,0.0,0.0,0.0,0.0,-3.2855,-3.2588,-3.2253,-3.1703,-3.1351,-3.1302,-3.1327,-3.1734,-3.2662,-3.2824,-3.317,-3.386,-3.405,-3.4345,-3.5026,-3.5717,-3.6184,-3.6184,-3.6857,-3.7115,-3.643,-3.6395,-3.6151,-3.5608,-3.5489,-3.528,-3.4756,-3.516,-3.5295,-3.4786,-3.4442,-3.4532,-3.5205,-3.4405,-3.3984,-3.4304,-3.4367,-3.3779,-3.2889,-3.4085,-3.464,-3.4257,-3.5256,-3.664,-3.7483,-3.8358,-3.9102,-3.9952,-3.961,-3.9315,-3.9952,-4.007,-4.0087,-5.3518,-5.3518,-5.3518,-5.3518,0.0,-5.3518,-5.3061,-5.2317,-5.1911,-5.1336,-5.0625,-5.0253,-5.0101,-5.0084,-4.9729,-4.9932,-5.0625,-5.027,-5.0304,-5.0625,-5.0642,-5.0253,-4.9526,-4.9526,-4.934,-4.9018,-4.9018,-4.9018,-4.9018,-4.9018,-4.8225,-4.6669,-4.6069,-4.5211,-4.401,-4.2764,-4.1214,-3.9331,-4.1063,-4.2633,-4.3706,-4.1956,-4.01,-3.8162,-3.6281,0.0,0.0,0.0,0.0,0.0,0.0,0.0,0.0,-3.4577,0.0,-3.5177,-3.5214,-3.4998,-3.4542,-3.4825,-3.4818,-3.4454,-3.4426,-3.4075,-3.3455,-3.3414,-3.3441,-3.3455,-3.3499,-3.3769,-3.4397,-3.4475,-3.4658,-3.4936,-3.5015,-3.5164,-3.5494,-3.5831,-3.6054,-3.607,-3.6415,-3.6477,-3.6117,-3.6029,-3.5905,-3.5559,-3.5489,-3.525,-3.4696,-3.5055,-3.525,-3.4607,-3.4322,-3.4382,-3.4861,-3.4842,-3.4539,-3.4767,-3.4829,-3.4495,-3.3638,-3.4325,-3.4878,-3.4565,-3.5412,-3.6362,-3.7097,-3.8033,-3.8903,-3.9262,-3.9428,-3.9395,-3.9412,-3.9411,-3.9662,-5.3568,-5.3687,-5.3551,-5.3518,-5.3518,-5.3518,-5.3518,-5.345,-5.2638,0.0,0.0,-5.1268,-5.1234,-5.1234,-5.1234,-5.1285,-5.1403,-5.1403,-5.1403,-5.1403,-5.1403,-5.0997,-5.0287,-5.0287,-4.9965,-4.9407,-4.9407,-4.939,-4.939,-4.939,-4.8899,-4.81,-4.8357,-4.7993,-4.6924,-4.674,-4.4914,-4.1417,-4.11,-4.2206,-4.4622,-4.2623,-4.0598,-3.8827,-3.6362,-3.4462,-3.3223,-3.257,-3.2796,-3.4022,-3.4104,-3.4184,-3.4311,-3.4759,-3.4906,-3.4599,-3.4994,-3.5182,-3.4991,-3.4966,-3.511,-3.5509,-3.5489,-3.5266,-3.4635,-3.5148,-3.5489,-3.5489,-3.5489,-3.5489,-3.5489,-3.5489,-3.5489,-3.5489,-3.5489,-3.5489,-3.5489,-3.5604,-3.5733,-3.5569,-3.5668,-3.5683,-3.5554,-3.5539,-3.5489,-3.5489,-3.5489,-3.5325,-3.4861,-3.5026,-3.5085,-3.4577,-3.4502,-3.4487,-3.4397,-3.4996,-3.5429,-3.5374,-3.5427,-3.546,-3.5386,-3.5032,-3.4927,-3.5314,-3.5629,-3.6043,-3.6568,-3.771,-3.8407,-3.8166,-3.8876,-3.9297,-3.8384,-3.8226,-3.8616,-5.3873,-5.4397,-5.3754,-5.3518,-5.3518,-5.3518,-5.3518,-5.3433,-5.2655,-5.2232,-5.2114,-5.1488,-5.1234,-5.1234,-5.1234,-5.1572,-5.2131,-5.2147,-5.2164,-5.2147,-5.2147,-5.1758,-5.1065,-5.1065,-5.1014,-5.0913,-5.0913,-5.0913,-5.0913,-5.0896,-5.0408,-4.9381,-4.869,-4.7394,-4.5637,-4.4961,-4.4403,-4.3799,-4.2919,-4.2377,-4.2189,-4.0658,-3.8888,-3.7029,-3.6552,-3.5669,-3.4446,-3.4261,-3.4572,-3.5287,-3.5362,-3.5618,-3.6253,-3.6385,-3.691,-3.7934,-3.8168,-3.7912,-3.7157,-3.7141,-3.6689,-3.5584,-3.5489,-3.5464,-3.5379,-3.5449,-3.5489,-3.5489,-3.5489,-3.5489,-3.5489,-3.5489,-3.5489,-3.5489,-3.5489,-3.5489,-3.5489,-3.6006,-3.6117,-3.5619,-3.6054,-3.6117,-3.5619,-3.5489,-3.5489,-3.5489,-3.5489,-3.5459,-3.525,-3.4921,-3.4637,-3.4592,-3.4981,-3.4801,-3.4233,-3.4696,-3.5224,-3.548,-3.5492,-3.5428,-3.5524,-3.5379,-3.5337,-3.5444,-3.5917,-3.6384,-3.6569,-3.7666,-3.7684,-3.671,-3.7026,-3.7246,-3.6535,-3.6474,-3.6934,-5.4888,-5.5091,-5.4397,-5.4093,-5.4059,-5.367,-5.3518,-5.3467,-5.3112,-5.2959,-5.2926,-5.2604,-5.2452,-5.2452,-5.2469,-5.2638,-5.2959,-5.2959,-5.2959,-5.2959,-5.2942,-5.2536,-5.186,-5.1792,-5.1589,-5.1251,-5.1234,-5.1234,-5.1234,-5.1234,-5.0409,-4.8972,-4.7776,-4.6773,-4.5912,-4.5559,-4.5035,-4.4302,-4.3472,-4.3144,-4.3318,-4.2347,-4.168,-4.1292,-4.0245,-3.9498,-3.9379,-3.8608,-3.8533,-3.9209,-3.879,-3.8712,-3.9002,-3.8609,-3.8472,-3.8685,-3.8701,-3.8168,-3.7075,-3.666,-3.6315,-3.6079,-3.5699,-3.5489,-3.5489,-3.5489,-3.5489,-3.5489,-3.5489,-3.5489,-3.5489,-3.5489,-3.5489,-3.5489,-3.5489,-3.5489,-3.5489,-3.5782,-3.5831,-3.5619,-3.5782,-3.5879,-3.5569,-3.5489,-3.5489,-3.5489,-3.5489,-3.5365,-3.5041,-3.5051,-3.5011,-3.4951,-3.4128,-3.3888,-3.4277,-3.3739,-3.404,-3.5187,-3.5213,-3.513,-3.537,-3.5489,-3.5489,-3.5504,-3.5846,-3.5943,-3.6006,-3.6491,-3.6414,-3.5957,-3.5226,-3.5338,-3.6055,-3.6614,-3.7371,-5.5818,-5.5902,-5.5158,-5.4735,-5.4566,-5.4177,-5.3839,-5.3534,-5.367,-5.367,-5.3518,-5.3518,-5.3518,-5.3518,-5.3518,-5.3501,-5.3518,-5.3518,-5.3501,-5.3518,-5.3518,-5.3179,-5.2621,-5.257,-5.2266,-5.1792,-5.1725,-5.1742,-5.1659,-5.1511,-5.038,-4.8437,-4.7134,-4.6546,-4.6546,-4.6396,-4.5798,-4.4781,-4.3973,-4.3922,-4.4721,-4.4254,-4.448,-4.5114,-4.3719,-4.2981,-4.33,-4.2285,-4.1763,-4.1963,-4.1382,-4.0852,-4.0485,-3.9886,-3.9235,-3.8631,-3.853,-3.7989,-3.6798,-3.6088,-3.5953,-3.6432,-3.6148,-3.5878,-3.5744,-3.5729,-3.5654,-3.5534,-3.5489,-3.5489,-3.5489,-3.5489,-3.5489,-3.5489,-3.5489,-3.5489,-3.5489,-3.5489,-3.5489,-3.5489,-3.5489,-3.5489,-3.5489,-3.5489,-3.5489,-3.5489,-3.5489,-3.5225,-3.4887,-3.5126,-3.5254,-3.4906,-3.3589,-3.311,-3.4607,-3.3769,-3.3363,-3.4872,-3.4891,-3.5026,-3.537,-3.5489,-3.5489,-3.5489,-3.5325,-3.5389,-3.5429,-3.5559,-3.5495,-3.5247,-3.4575,-3.4395,-3.5849,-3.6842,-3.7778,-5.6105,-5.6545,-5.5919,-5.5209,-5.4702,-5.5226,-5.4735,-5.3704,-5.4211,-5.411,-5.3568,-5.3518,-5.3518,-5.3518,-5.3518,-5.3518,-5.3518,-5.3518,-5.3518,-5.3518,-5.3518,-5.345,-5.3365,-5.3382,-5.3348,-5.3247,-5.3146,-5.3061,-5.3011,-5.2187,-5.0762,-4.8882,-4.7728,-4.7204,-4.7145,-4.6621,-4.6262,-4.6127,-4.4885,-4.4391,-4.4783,-4.475,-4.4862,-4.519,-4.5046,-4.4382,-4.3525,-4.3201,-4.2482,-4.1288,-4.1091,-4.034,-3.9077,-3.8756,-3.8657,-3.8436,-3.8427,-3.8072,-3.7375,-3.6746,-3.6432,-3.6507,-3.6926,-3.6911,-3.6417,-3.6357,-3.6118,-3.5654,-3.5489,-3.5489,-3.5489,-3.5489,-3.5489,-3.5489,-3.5489,-3.5489,-3.5489,-3.5489,-3.5489,-3.5489,-3.5489,-3.5489,-3.5489,-3.5489,-3.5489,-3.5489,-3.5489,-3.5379,-3.523,-3.5003,-3.4721,-3.4793,-3.47,-3.4247,-3.3634,-3.4322,-3.4274,-3.3687,-3.442,-3.5175,-3.5429,-3.5489,-3.5489,-3.5444,-3.5085,-3.4981,-3.5254,-3.5488,-3.525,-3.4856,-3.4448,-3.4314,-3.4855,-3.5943,-3.7279,-5.7171,-5.7374,-5.6664,-5.5919,-5.5361,-5.5598,-5.5378,-5.4871,-5.5124,-5.4837,-5.4194,-5.4143,-5.3907,-5.3518,-5.3518,-5.3518,-5.3518,-5.3518,-5.3518,-5.3518,-5.3518,-5.3518,-5.3518,-5.3518,-5.3518,-5.3433,-5.287,-5.2557,-5.2241,-5.0914,-4.9599,-4.8743,-4.7749,-4.7309,-4.7279,-4.704,-4.6711,-4.6322,-4.5783,-4.5435,-4.5402,-4.5547,-4.5435,-4.5135,-4.6139,-4.63,-4.5283,-4.4805,-4.408,-4.3065,-4.2011,-4.0921,-3.99,-3.9375,-3.9043,-3.8945,-3.8601,-3.8452,-3.8586,-3.7629,-3.7195,-3.7584,-3.7135,-3.6746,-3.6507,-3.6133,-3.5774,-3.5564,-3.5489,-3.5489,-3.5489,-3.5489,-3.5489,-3.5489,-3.5489,-3.5489,-3.5489,-3.5489,-3.5489,-3.5489,-3.5489,-3.5489,-3.5489,-3.5489,-3.5489,-3.5489,-3.5489,-3.5365,-3.4996,-3.5011,-3.4955,-3.4524,-3.4196,-3.3978,-3.3664,-3.4143,-3.4483,-3.4528,-3.4603,-3.4951,-3.5429,-3.5489,-3.5489,-3.5489,-3.5175,-3.4891,-3.4846,-3.5254,-3.5304,-3.4786,-3.494,-3.5193,-3.624,-3.6531,-3.7139,-5.7881,-5.7797,-5.7306,-5.6681,-5.6055,-5.6224,-5.6072,-5.5733,-5.5716,-5.5277,-5.46,-5.438,-5.4008,-5.3568,-5.3518,-5.3518,-5.3518,-5.3518,-5.3518,-5.3518,-5.3518,-5.3348,-5.311,-5.3041,-5.2886,-5.2557,-5.1849,-5.132,-5.0914,-4.9599,-4.8677,-4.8293,-4.7694,-4.7309,-4.7309,-4.7309,-4.7085,-4.6621,-4.6441,-4.6132,-4.5938,-4.6163,-4.594,-4.5431,-4.6615,-4.7023,-4.6192,-4.5604,-4.487,-4.3961,-4.2685,-4.1573,-4.0631,-4.0009,-3.9604,-3.9379,-3.8781,-3.8601,-3.911,-3.8227,-3.7868,-3.8257,-3.7494,-3.6926,-3.6671,-3.6148,-3.5714,-3.5504,-3.5489,-3.5489,-3.5489,-3.5489,-3.5489,-3.5489,-3.5489,-3.5489,-3.5489,-3.5489,-3.5489,-3.5489,-3.5489,-3.5489,-3.5489,-3.5489,-3.5489,-3.5489,-3.5489,-3.5365,-3.4916,-3.518,-3.5275,-3.4644,-3.394,-3.3933,-3.4367,-3.4352,-3.4592,-3.4876,-3.4846,-3.504,-3.5415,-3.5474,-3.5489,-3.5489,-3.537,-3.5265,-3.507,-3.5235,-3.5314,-3.5011,-3.5164,-3.577,-3.6491,-3.6554,-3.6552,-5.7881,-5.7881,-5.7848,-5.7391,-5.6799,-5.7442,-5.7002,-5.5869,-5.5801,-5.5344,-5.4617,-5.3974,-5.3585,-5.3518,-5.3518,-5.3518,-5.3518,-5.3518,-5.3518,-5.3518,-5.3467,-5.2972,-5.1993,-5.1921,-5.15,-5.0951,-5.0583,-4.9931,-4.9054,-4.8825,-4.8293,-4.7467,-4.7309,-4.7309,-4.7309,-4.7309,-4.7294,-4.716,-4.6681,-4.6277,-4.6266,-4.6471,-4.6403,-4.6072,-4.6228,-4.6062,-4.5277,-4.5133,-4.4452,-4.2878,-4.272,-4.1939,-4.0648,-4.0411,-4.0053,-3.9439,-3.8796,-3.8422,-3.8512,-3.8407,-3.8377,-3.8407,-3.8287,-3.8003,-3.7404,-3.6731,-3.6148,-3.5594,-3.5534,-3.5489,-3.5489,-3.5489,-3.5489,-3.5489,-3.5489,-3.5489,-3.5489,-3.5489,-3.5489,-3.5489,-3.5489,-3.5489,-3.5489,-3.5489,-3.5489,-3.5489,-3.5489,-3.5474,-3.5379,-3.5474,-3.521,-3.4872,-3.4832,-3.516,-3.4637,-3.4532,-3.4427,-3.4603,-3.5175,-3.5385,-3.5444,-3.5489,-3.5459,-3.5325,-3.4861,-3.4786,-3.513,-3.5254,-3.5153,-3.5078,-3.5289,-3.5867,-3.6399,-3.5846,-3.5804,-5.7881,-5.7881,-5.7881,-5.7729,-5.7526,-5.778,-5.7577,-5.7103,-5.7103,-5.6427,-5.5412,-5.5023,-5.4397,-5.3518,-5.3518,-5.3518,-5.3518,-5.3518,-5.3518,-5.3484,-5.3268,-5.2937,-5.2523,-5.1912,-5.1456,-5.0927,-4.9899,-4.8841,-4.7919,-4.7834,-4.7694,-4.7381,-4.7309,-4.7309,-4.7309,-4.7309,-4.7309,-4.7279,-4.704,-4.6756,-4.6367,-4.6373,-4.6164,-4.574,-4.6429,-4.6271,-4.4956,-4.4924,-4.4466,-4.3417,-4.2829,-4.2063,-4.116,-4.0636,-4.0098,-3.9499,-3.9185,-3.905,-3.905,-3.9035,-3.905,-3.902,-3.8616,-3.8302,-3.7913,-3.712,-3.6372,-3.6133,-3.5714,-3.5519,-3.5489,-3.5489,-3.5489,-3.5489,-3.5489,-3.5489,-3.5489,-3.5489,-3.5489,-3.5489,-3.5489,-3.5489,-3.5489,-3.5489,-3.5489,-3.5489,-3.5489,-3.5489,-3.5489,-3.5489,-3.5365,-3.5135,-3.4976,-3.4921,-3.522,-3.51,-3.507,-3.5115,-3.534,-3.5429,-3.5489,-3.507,-3.4936,-3.525,-3.4726,-3.4277,-3.4637,-3.4738,-3.474,-3.5639,-3.5852,-3.5682,-3.6104,-3.5703,-3.5578,-5.7881,-5.7881,-5.7881,-5.7881,-5.7881,-5.7881,-5.7881,-5.7848,-5.7628,-5.6968,-5.6139,-5.5835,-5.5006,-5.4042,-5.411,-5.3668,-5.3058,-5.2956,-5.2956,-5.2937,-5.2589,-5.2097,-5.1585,-5.1327,-5.0814,-5.0016,-4.8908,-4.7904,-4.7381,-4.7309,-4.7309,-4.7309,-4.7309,-4.7309,-4.7309,-4.7309,-4.7309,-4.7309,-4.7309,-4.707,-4.6681,-4.6636,-4.6322,-4.583,-4.6482,-4.6174,-4.4757,-4.4618,-4.4297,-4.3624,-4.3029,-4.2372,-4.1728,-4.107,-4.0427,-3.9843,-3.9738,-3.9619,-3.9454,-3.9424,-3.9409,-3.9379,-3.8796,-3.8377,-3.8317,-3.7404,-3.6791,-3.6447,-3.6133,-3.5774,-3.5549,-3.5489,-3.5489,-3.5489,-3.5489,-3.5489,-3.5489,-3.5489,-3.5489,-3.5489,-3.5489,-3.5489,-3.5489,-3.5489,-3.5489,-3.5489,-3.5489,-3.5489,-3.5489,-3.5489,-3.5489,-3.5459,-3.5145,-3.513,-3.5295,-3.534,-3.5325,-3.5385,-3.5385,-3.5459,-3.528,-3.4801,-3.4651,-3.4981,-3.4831,-3.4277,-3.4134,-3.4228,-3.4973,-3.5999,-3.5967,-3.5613,-3.5763,-3.5767,-3.5706,-5.7881,-5.7881,-5.7881,-5.7881,-5.7881,-5.7881,-5.7881,-5.778,-5.7205,-5.6917,-5.6596,-5.6072,-5.5344,-5.4769,-5.5057,-5.4246,-5.2577,-5.2043,-5.1921,-5.1842,-5.1633,-5.0707,-4.9428,-5.0412,-4.9711,-4.785,-4.7441,-4.7411,-4.7309,-4.7309,-4.7309,-4.7309,-4.7309,-4.7309,-4.7309,-4.7309,-4.7309,-4.7309,-4.7309,-4.7279,-4.7294,-4.7234,-4.6935,-4.6411,-4.6416,-4.5898,-4.4518,-4.4383,-4.4088,-4.3483,-4.3284,-4.3,-4.2312,-4.1654,-4.104,-4.0427,-4.0337,-4.0023,-3.9514,-3.9424,-3.9424,-3.9349,-3.8811,-3.8497,-3.8437,-3.7838,-3.7225,-3.6821,-3.6492,-3.6207,-3.5684,-3.5519,-3.5489,-3.5489,-3.5489,-3.5489,-3.5489,-3.5489,-3.5489,-3.5489,-3.5489,-3.5489,-3.5489,-3.5489,-3.5489,-3.5489,-3.5489,-3.5489,-3.5489,-3.5489,-3.5489,-3.5489,-3.5385,-3.5355,-3.5429,-3.5489,-3.5489,-3.5489,-3.5474,-3.5459,-3.513,-3.4726,-3.4681,-3.4906,-3.4846,-3.4352,-3.4591,-3.4759,-3.5019,-3.5722,-3.5523,-3.5553,-3.5525,-3.5668,-3.6006,-5.7881,-5.7881,-5.7881,-5.7881,-5.7881,-5.7881,-5.7881,-5.7865,-5.7628,-5.7289,-5.6816,-5.6562,-5.5784,-5.4837,-5.4854,-5.4546,-5.3643,-5.1876,-5.0871,-5.0932,-5.1382,-5.1078,-5.0314,-5.0312,-4.9568,-4.825,-4.7982,-4.7728,-4.7384,-4.7309,-4.7309,-4.7309,-4.7309,-4.7309,-4.7309,-4.7309,-4.7309,-4.7309,-4.7309,-4.7309,-4.7309,-4.7309,-4.7189,-4.7025,-4.6995,-4.6561,-4.5738,-4.4825,-4.4242,-4.3988,-4.3584,-4.3045,-4.2402,-4.1743,-4.1085,-4.0457,-3.9948,-3.9679,-3.9484,-3.9439,-3.9454,-3.9394,-3.9185,-3.911,-3.9035,-3.8467,-3.8018,-3.7674,-3.7045,-3.6357,-3.6178,-3.5759,-3.5549,-3.5504,-3.5489,-3.5489,-3.5489,-3.5489,-3.5489,-3.5489,-3.5489,-3.5489,-3.5489,-3.5489,-3.5489,-3.5489,-3.5489,-3.5489,-3.5489,-3.5489,-3.5489,-3.5489,-3.5489,-3.5489,-3.5489,-3.5489,-3.5489,-3.5489,-3.5489,-3.5415,-3.507,-3.4741,-3.4711,-3.47,-3.464,-3.4783,-3.5049,-3.5231,-3.5445,-3.5645,-3.5797,-3.5706,-3.5548,-3.5718,-3.6054,-5.7881,-5.7881,-5.7881,-5.7881,-5.7881,-5.7881,-5.7881,-5.7881,-5.7881,-5.7628,-5.7256,-5.7205,-5.6545,-5.5598,-5.5412,-5.477,-5.3715,-5.2159,-5.0961,-5.0168,-5.0568,-5.061,-5.0201,-4.9975,-4.9688,-4.903,-4.8521,-4.8072,-4.7683,-4.7429,-4.7309,-4.7309,-4.7309,-4.7309,-4.7309,-4.7309,-4.7309,-4.7309,-4.7309,-4.7309,-4.7309,-4.7309,-4.7309,-4.7309,-4.7309,-4.7085,-4.6606,-4.5394,-4.4571,-4.4257,-4.3688,-4.315,-4.2716,-4.2327,-4.1818,-4.1205,-4.0756,-4.0352,-3.9903,-3.9828,-3.9649,-3.9499,-3.9424,-3.9424,-3.9349,-3.896,-3.8721,-3.8287,-3.7704,-3.709,-3.6806,-3.6267,-3.5908,-3.5878,-3.5654,-3.5519,-3.5489,-3.5489,-3.5489,-3.5489,-3.5489,-3.5489,-3.5489,-3.5489,-3.5489,-3.5489,-3.5489,-3.5489,-3.5489,-3.5489,-3.5489,-3.5489,-3.5489,-3.5489,-3.5489,-3.5489,-3.5489,-3.5489,-3.5489,-3.537,-3.513,-3.4726,-3.461,-3.4495,-3.4452,-3.5126,-3.5382,-3.5486,-3.566,-3.5837,-3.6084,-3.5706,-3.5537,-3.5913,-3.6275,-5.7881,-5.7881,-5.7949,-5.7949,-5.7915,-5.7983,-5.7966,-5.7881,-5.7881,-5.7865,-5.7814,-5.778,-5.7302,-5.6761,-5.6314,-5.5032,-5.3021,-5.2731,-5.18,-5.0293,-4.9779,-4.9659,-4.9779,-4.9794,-4.9778,-4.9733,-4.8895,-4.8327,-4.7982,-4.7534,-4.7309,-4.7309,-4.7309,-4.7309,-4.7309,-4.7309,-4.7309,-4.7309,-4.7309,-4.7309,-4.7309,-4.7309,-4.7309,-4.7309,-4.7309,-4.7279,-4.704,-4.5903,-4.49,-4.4287,-4.3629,-4.3314,-4.3284,-4.3284,-4.2791,-4.2192,-4.2359,-4.1504,-4.0711,-4.0457,-4.0202,-3.9664,-3.9589,-3.9424,-3.9409,-3.9334,-3.9095,-3.8616,-3.8332,-3.8048,-3.7464,-3.6866,-3.6588,-3.6439,-3.5848,-3.5534,-3.5489,-3.5489,-3.5489,-3.5489,-3.5489,-3.5489,-3.5489,-3.5489,-3.5489,-3.5489,-3.5489,-3.5489,-3.5489,-3.5489,-3.5489,-3.5489,-3.5504,-3.5489,-3.5489,-3.5489,-3.5489,-3.5489,-3.5459,-3.531,-3.51,-3.4711,-3.4637,-3.4555,-3.4805,-3.5397,-3.5951,-3.6258,-3.641,-3.6609,-3.6442,-3.5766,-3.5622,-3.593,-3.629,-5.7881,-5.7932,-5.8473,-5.8389,-5.8017,-5.8457,-5.8389,-5.7915,-5.7881,-5.7881,-5.7881,-5.7881,-5.7003,-5.5613,-5.5579,-5.4632,-5.3277,-5.2052,-5.1981,-5.172,-5.0502,-5.0287,-5.0616,-5.0661,-5.0242,-4.9613,-4.9164,-4.8506,-4.7623,-4.7414,-4.7309,-4.7309,-4.7309,-4.7309,-4.7309,-4.7309,-4.7309,-4.7309,-4.7309,-4.7309,-4.7309,-4.7309,-4.7309,-4.7309,-4.7309,-4.7294,-4.7189,-4.6007,-4.4736,-4.3703,-4.3464,-4.3344,-4.3299,-4.294,-4.2641,-4.2432,-4.1953,-4.1564,-4.125,-4.1115,-4.0816,-4.0232,-4.0083,-3.9933,-3.9454,-3.9424,-3.9334,-3.9065,-3.8736,-3.8347,-3.8048,-3.7586,-3.7052,-3.6501,-3.5904,-3.5489,-3.5489,-3.5489,-3.5489,-3.5489,-3.5489,-3.5489,-3.5489,-3.5489,-3.5489,-3.5489,-3.5489,-3.5489,-3.5489,-3.5489,-3.5489,-3.5504,-3.5504,-3.5504,-3.5489,-3.5489,-3.5489,-3.5489,-3.54,-3.5235,-3.4981,-3.4637,-3.4816,-3.5015,-3.5738,-3.6315,-3.7102,-3.7673,-3.762,-3.7515,-3.6927,-3.6352,-3.5743,-3.5668,-3.6054,-5.7881,-5.7915,-5.8355,-5.8304,-5.7949,-5.8355,-5.8287,-5.7932,-5.7881,-5.7628,-5.7297,-5.7206,-5.6316,-5.4952,-5.4579,-5.4051,-5.3118,-5.1857,-5.159,-5.1835,-5.1058,-5.0855,-5.1124,-5.1199,-5.0676,-4.9748,-4.9389,-4.8701,-4.7848,-4.7459,-4.7324,-4.7309,-4.7309,-4.7309,-4.7309,-4.7309,-4.7309,-4.7309,-4.7309,-4.7309,-4.7309,-4.7309,-4.7309,-4.7309,-4.7294,-4.7219,-4.68,-4.5843,-4.4691,-4.3658,-4.3344,-4.3344,-4.3314,-4.3,-4.2761,-4.2761,-4.2387,-4.2117,-4.1848,-4.1788,-4.1339,-4.0621,-4.0412,-4.0068,-3.9589,-3.9424,-3.9424,-3.9349,-3.902,-3.8871,-3.8676,-3.8132,-3.7368,-3.6597,-3.5939,-3.5504,-3.5504,-3.5489,-3.5489,-3.5489,-3.5489,-3.5489,-3.5489,-3.5489,-3.5489,-3.5489,-3.5489,-3.5489,-3.5489,-3.5489,-3.5554,-3.5619,-3.5797,-3.5894,-3.5894,-3.5894,-3.5782,-3.5733,-3.5459,-3.5265,-3.5085,-3.4865,-3.5202,-3.5713,-3.6507,-3.7247,-3.7742,-3.8246,-3.8464,-3.8148,-3.752,-3.6703,-3.5991,-3.5619,-3.5943,-5.7881,-5.7898,-5.7966,-5.7966,-5.7915,-5.7983,-5.8051,-5.7898,-5.7701,-5.7131,-5.6376,-5.6126,-5.5345,-5.4389,-5.3764,-5.3191,-5.2661,-5.1913,-5.1561,-5.1421,-5.1139,-5.1199,-5.1199,-5.1229,-5.081,-5.0152,-4.9613,-4.906,-4.8431,-4.7833,-4.7519,-4.7534,-4.7489,-4.7354,-4.7339,-4.7309,-4.7309,-4.7309,-4.7309,-4.7309,-4.7309,-4.7309,-4.7309,-4.7309,-4.7309,-4.698,-4.6411,-4.5633,-4.4721,-4.3509,-4.3374,-4.3344,-4.3344,-4.3314,-4.3299,-4.3269,-4.315,-4.2925,-4.2581,-4.2432,-4.1968,-4.1025,-4.0666,-4.0217,-3.9753,-3.9529,-3.9424,-3.9424,-3.9424,-3.9334,-3.92,-3.8601,-3.7826,-3.6969,-3.6255,-3.5774,-3.5669,-3.5594,-3.5489,-3.5489,-3.5489,-3.5489,-3.5489,-3.5489,-3.5489,-3.5489,-3.5489,-3.5489,-3.5489,-3.5489,-3.5604,-3.5831,-3.6054,-3.6337,-3.6352,-3.6415,-3.6196,-3.5958,-3.5604,-3.5415,-3.54,-3.5394,-3.5773,-3.6243,-3.6569,-3.7144,-3.7831,-3.8286,-3.8746,-3.8286,-3.7334,-3.6554,-3.5891,-3.5861,-3.6006,-5.7881,-5.7949,-5.8524,-5.844,-5.8034,-5.8507,-5.8423,-5.7735,-5.687,-5.6376,-5.6047,-5.5312,-5.4321,-5.3221,-5.2978,-5.2541,-5.1712,-5.1453,-5.1281,-5.1263,-5.1229,-5.1229,-5.1229,-5.1229,-5.0855,-5.0316,-5.0107,-4.9658,-4.9105,-4.8775,-4.8551,-4.8087,-4.7952,-4.7818,-4.7399,-4.7339,-4.7309,-4.7309,-4.7309,-4.7309,-4.7309,-4.7309,-4.7309,-4.7309,-4.7309,-4.698,-4.6337,-4.5648,-4.4915,-4.4212,-4.3688,-4.3494,-4.3374,-4.3344,-4.3344,-4.3344,-4.3344,-4.3254,-4.315,-4.303,-4.2776,-4.1878,-4.128,-4.0891,-4.0232,-3.9664,-3.9454,-3.9424,-3.9424,-3.9424,-3.9349,-3.8751,-3.8232,-3.7767,-3.7241,-3.6896,-3.6821,-3.6118,-3.5624,-3.5549,-3.5519,-3.5489,-3.5489,-3.5489,-3.5489,-3.5489,-3.5489,-3.5489,-3.5489,-3.5554,-3.5816,-3.6087,-3.6676,-3.7024,-3.6935,-3.6829,-3.6461,-3.618,-3.5782,-3.5489,-3.5489,-3.5519,-3.5763,-3.6037,-3.629,-3.6964,-3.7716,-3.8302,-3.8766,-3.7895,-3.7115,-3.6554,-3.61,-3.6022,-3.5894,-5.7881,-5.7932,-5.8321,-5.7924,-5.7214,-5.7532,-5.7177,-5.6364,-5.573,-5.5134,-5.464,-5.3983,-5.3149,-5.2139,-5.2063,-5.1727,-5.1308,-5.1229,-5.1214,-5.1229,-5.1229,-5.1229,-5.1229,-5.1169,-5.0885,-5.0331,-5.0227,-4.9883,-4.9434,-4.9239,-4.8865,-4.8341,-4.8297,-4.8117,-4.7728,-4.7459,-4.7504,-4.7653,-4.7444,-4.7309,-4.7309,-4.7309,-4.7309,-4.7309,-4.7309,-4.7115,-4.677,-4.6157,-4.5648,-4.517,-4.4586,-4.3913,-4.3434,-4.3344,-4.3344,-4.3344,-4.3344,-4.3344,-4.3329,-4.3284,-4.2895,-4.2013,-4.1564,-4.0861,-4.0202,-3.9574,-3.9454,-3.9424,-3.9424,-3.9424,-3.9364,-3.8691,-3.8397,-3.8286,-3.7841,-3.7434,-3.7255,-3.6552,-3.5968,-3.5893,-3.5714,-3.5564,-3.5489,-3.5624,-3.5549,-3.5564,-3.5504,-3.5489,-3.5688,-3.58,-3.6182,-3.6569,-3.735,-3.7716,-3.7573,-3.7279,-3.6798,-3.6352,-3.5894,-3.5604,-3.5489,-3.5534,-3.5644,-3.5937,-3.6287,-3.6814,-3.7541,-3.8117,-3.8246,-3.744,-3.6753,-3.6477,-3.6133,-3.5846,-3.5668,-5.7463,-5.7628,-5.7463,-5.6794,-5.6031,-5.5968,-5.5506,-5.4755,-5.4421,-5.3913,-5.3004,-5.2738,-5.2139,-5.1386,-5.1308,-5.1229,-5.1229,-5.1229,-5.1229,-5.1229,-5.1229,-5.1229,-5.1229,-5.1169,-5.099,-5.0436,-5.0466,-5.0122,-4.9808,-4.9508,-4.9359,-4.8626,-4.8461,-4.8252,-4.8027,-4.7638,-4.7489,-4.7818,-4.7519,-4.7309,-4.7309,-4.7309,-4.7309,-4.7309,-4.7309,-4.7294,-4.707,-4.6621,-4.6262,-4.6262,-4.5574,-4.4616,-4.3838,-4.3479,-4.3389,-4.3374,-4.3344,-4.3344,-4.3344,-4.3284,-4.2865,-4.1713,-4.1429,-4.0935,-4.0113,-3.9619,-3.9439,-3.9424,-3.9424,-3.9424,-3.9349,-3.8901,-3.8527,-3.8462,-3.8018,-3.7764,-3.7599,-3.715,-3.6866,-3.6567,-3.6387,-3.6207,-3.5998,-3.5983,-3.5789,-3.5624,-3.5564,-3.5539,-3.5737,-3.6119,-3.6461,-3.7097,-3.7815,-3.8619,-3.8596,-3.7982,-3.7421,-3.6874,-3.6321,-3.5823,-3.5644,-3.5614,-3.5739,-3.5959,-3.6362,-3.6739,-3.704,-3.744,-3.7322,-3.6737,-3.6569,-3.6415,-3.6006,-3.5554,-3.5489,-5.5651,-5.6376,-5.5474,-5.5002,-5.4904,-5.4822,-5.4739,-5.4405,-5.3483,-5.3077,-5.2738,-5.188,-5.1464,-5.1214,-5.1229,-5.1229,-5.1229,-5.1154,-5.1184,-5.1214,-5.1229,-5.1229,-5.1229,-5.1214,-5.1124,-5.1109,-5.1005,-5.0855,-5.081,-5.0825,-5.0092,-4.9314,-4.909,-4.8701,-4.7893,-4.7369,-4.7459,-4.7668,-4.7444,-4.7324,-4.7309,-4.7309,-4.7309,-4.7309,-4.7309,-4.7309,-4.7174,-4.6711,-4.6322,-4.6217,-4.514,-4.4526,-4.4212,-4.4152,-4.3883,-4.3464,-4.3419,-4.3449,-4.3359,-4.3329,-4.3254,-4.2806,-4.2043,-4.1414,-4.0786,-4.0068,-3.9589,-3.9424,-3.9424,-3.9424,-3.9409,-3.917,-3.92,-3.917,-3.9065,-3.8945,-3.8841,-3.8407,-3.7823,-3.7464,-3.7225,-3.6926,-3.6641,-3.6439,-3.6259,-3.6034,-3.5889,-3.5674,-3.5589,-3.6212,-3.6904,-3.7541,-3.8286,-3.9086,-3.9662,-3.8858,-3.8158,-3.761,-3.6984,-3.6243,-3.5969,-3.5704,-3.5769,-3.5929,-3.5914,-3.5955,-3.629,-3.6692,-3.6523,-3.6117,-3.6165,-3.6399,-3.5943,-3.5489,-3.5489,-5.492,-5.5312,-5.4822,-5.4253,-5.3742,-5.3742,-5.3324,-5.2812,-5.223,-5.1972,-5.1896,-5.1479,-5.1229,-5.1229,-5.1229,-5.1229,-5.1169,-5.0825,-5.093,-5.1109,-5.1229,-5.1229,-5.1229,-5.1229,-5.1229,-5.1214,-5.1214,-5.1229,-5.1229,-5.1184,-5.0661,-5.0017,-4.9763,-4.9254,-4.8446,-4.8027,-4.7833,-4.7758,-4.7489,-4.7309,-4.7309,-4.7309,-4.7309,-4.7309,-4.7309,-4.7309,-4.7249,-4.707,-4.6845,-4.6726,-4.6217,-4.5544,-4.5035,-4.4706,-4.4362,-4.3614,-4.3614,-4.3643,-4.3419,-4.3329,-4.318,-4.2791,-4.2177,-4.1549,-4.098,-4.0277,-3.9783,-3.9499,-3.9424,-3.9424,-3.9424,-3.9424,-3.9424,-3.9424,-3.9424,-3.9424,-3.9349,-3.9095,-3.8736,-3.8272,-3.7764,-3.7443,-3.7256,-3.7,-3.6775,-3.6541,-3.6225,-3.5889,-3.5549,-3.643,-3.7279,-3.7905,-3.858,-3.9209,-3.9575,-3.8881,-3.8232,-3.7791,-3.7333,-3.6593,-3.6174,-3.5849,-3.5629,-3.5614,-3.5504,-3.5489,-3.5604,-3.607,-3.5782,-3.5604,-3.5782,-3.5894,-3.5668,-3.5489,-3.5489,-5.4084,-5.4253,-5.3999,-5.3412,-5.2649,-5.256,-5.2063,-5.1308,-5.1308,-5.1308,-5.1229,-5.1229,-5.1229,-5.1184,-5.1094,-5.105,-5.1124,-5.0571,-5.0661,-5.1124,-5.1229,-5.1229,-5.1229,-5.1229,-5.1229,-5.1229,-5.1229,-5.1229,-5.1229,-5.1229,-5.0825,-5.0331,-5.0212,-4.9793,-4.8985,-4.8356,-4.8297,-4.7938,-4.7623,-4.7324,-4.7309,-4.7309,-4.7309,-4.7309,-4.7309,-4.7309,-4.7294,-4.7249,-4.7234,-4.7174,-4.6935,-4.6471,-4.5514,-4.5289,-4.4736,-4.3838,-4.3943,-4.3763,-4.3524,-4.3344,-4.3165,-4.2806,-4.2476,-4.1788,-4.1145,-4.0666,-4.0098,-3.9589,-3.9424,-3.9424,-3.9424,-3.9424,-3.9424,-3.9424,-3.9424,-3.9424,-3.9424,-3.9334,-3.932,-3.8826,-3.8227,-3.8003,-3.7982,-3.7623,-3.7443,-3.6903,-3.6573,-3.5994,-3.5834,-3.6921,-3.7748,-3.8246,-3.8761,-3.9279,-3.9222,-3.8408,-3.7839,-3.7358,-3.6939,-3.6338,-3.6084,-3.5868,-3.5679,-3.5489,-3.5489,-3.5489,-3.5489,-3.5489,-3.5554,-3.5554,-3.5489,-3.5489,-3.5504,-3.5504,-3.5489,-5.2139,-5.2989,-5.2063,-5.1464,-5.1464,-5.1464,-5.1386,-5.1229,-5.1229,-5.1229,-5.1139,-5.1184,-5.1169,-5.1065,-5.0601,-5.072,-5.087,-5.0601,-5.0601,-5.1154,-5.1229,-5.1229,-5.1229,-5.1229,-5.1229,-5.1229,-5.1229,-5.1229,-5.1229,-5.1229,-5.0915,-5.0436,-5.0197,-4.9688,-4.8745,-4.8536,-4.7997,-4.7549,-4.7384,-4.7339,-4.7309,-4.7309,-4.7309,-4.7309,-4.7309,-4.7309,-4.7309,-4.7309,-4.7309,-4.7249,-4.6756,-4.6112,-4.5439,-4.5289,-4.4915,-4.4272,-4.3793,-4.3419,-4.3419,-4.3359,-4.3329,-4.3015,-4.2731,-4.2342,-4.1788,-4.098,-4.0247,-3.9514,-3.9469,-3.9439,-3.9439,-3.9424,-3.9424,-3.9424,-3.9424,-3.9424,-3.9424,-3.9424,-3.9424,-3.9394,-3.8796,-3.8931,-3.899,-3.8527,-3.8078,-3.744,-3.6843,-3.6364,-3.6307,-3.7398,-3.8051,-3.8541,-3.8486,-3.8887,-3.8947,-3.8072,-3.7392,-3.6921,-3.6506,-3.6099,-3.6023,-3.5838,-3.5664,-3.5489,-3.5489,-3.5489,-3.5489,-3.5489,-3.5489,-3.5489,-3.5489,-3.5504,-3.5504,-3.5519,-3.5639,-5.1133,-5.1896,-5.1386,-5.1229,-5.1229,-5.1229,-5.1229,-5.1229,-5.1229,-5.1005,-5.072,-5.0661,-5.0661,-5.0586,-5.0331,-5.0616,-5.096,-5.0526,-5.0601,-5.1109,-5.1229,-5.1229,-5.1229,-5.1229,-5.1229,-5.1229,-5.1229,-5.1229,-5.1229,-5.1199,-5.102,-5.0795,-5.0391,-4.9823,-4.8835,-4.882,-4.8461,-4.8087,-4.7848,-4.7668,-4.7414,-4.7309,-4.7309,-4.7309,-4.7309,-4.7309,-4.7309,-4.7309,-4.7309,-4.7264,-4.6965,-4.6576,-4.5963,-4.5514,-4.499,-4.4347,-4.3703,-4.3554,-4.3793,-4.3539,-4.3389,-4.3314,-4.303,-4.2761,-4.2297,-4.1534,-4.0681,-4.0038,-3.9978,-3.9828,-3.9529,-3.9424,-3.9424,-3.9439,-3.9499,-3.9439,-3.9439,-3.9424,-3.9424,-3.9424,-3.9424,-3.9424,-3.9424,-3.9125,-3.8507,-3.7918,-3.781,-3.7935,-3.7636,-3.7944,-3.8479,-3.8745,-3.8486,-3.8206,-3.8196,-3.78,-3.694,-3.6428,-3.607,-3.5819,-3.5963,-3.5838,-3.5584,-3.5489,-3.5489,-3.5489,-3.5519,-3.5489,-3.5489,-3.5489,-3.5489,-3.5624,-3.5774,-3.6073,-3.634,-5.0526,-5.0945,-5.0795,-5.0825,-5.0975,-5.0975,-5.096,-5.0975,-5.0945,-5.0601,-5.0137,-4.9987,-4.9987,-4.9987,-5.0032,-5.0287,-5.0885,-5.0451,-5.069,-5.1035,-5.1229,-5.1229,-5.1229,-5.1229,-5.1229,-5.1214,-5.1229,-5.1229,-5.1229,-5.1214,-5.1214,-5.1184,-5.0526,-4.9883,-4.9374,-4.894,-4.8521,-4.7938,-4.7878,-4.7683,-4.7399,-4.7309,-4.7309,-4.7309,-4.7309,-4.7309,-4.7309,-4.7309,-4.7309,-4.7294,-4.7279,-4.6905,-4.6307,-4.5633,-4.5155,-4.4526,-4.3883,-4.3643,-4.3838,-4.3733,-4.3419,-4.3344,-4.3284,-4.3,-4.2402,-4.1833,-4.119,-4.0412,-4.0591,-4.0262,-3.9873,-3.9796,-3.9929,-3.9826,-3.9736,-3.9559,-3.9484,-3.9559,-3.9514,-3.9424,-3.9424,-3.9424,-3.9424,-3.9424,-3.8983,-3.8432,-3.86,-3.9122,-3.9109,-3.8909,-3.875,-3.8967,-3.8274,-3.7666,-3.7089,-3.6863,-3.6283,-3.6091,-3.5664,-3.5504,-3.5744,-3.5744,-3.5569,-3.5489,-3.5489,-3.5789,-3.5983,-3.5729,-3.5489,-3.5489,-3.5564,-3.5878,-3.6133,-3.6477,-3.7095,-5.0257,-5.0257,-4.9643,-4.9748,-5.0301,-5.0316,-5.0301,-5.0301,-5.0301,-4.9942,-4.9374,-4.9329,-4.9344,-4.9359,-4.9464,-4.9763,-5.0287,-5.0242,-5.0601,-5.0975,-5.1214,-5.1169,-5.1154,-5.1139,-5.1184,-5.1139,-5.1184,-5.1229,-5.1229,-5.1229,-5.1229,-5.1124,-5.0541,-4.9912,-4.9419,-4.9045,-4.8416,-4.7878,-4.7758,-4.7608,-4.7399,-4.7309,-4.7309,-4.7309,-4.7309,-4.7309,-4.7309,-4.7309,-4.7309,-4.7309,-4.7309,-4.7115,-4.6501,-4.5843,-4.5379,-4.4915,-4.4062,-4.3838,-4.3898,-4.3688,-4.3419,-4.3344,-4.3284,-4.312,-4.2596,-4.2432,-4.1728,-4.0861,-4.113,-4.0935,-4.0755,-4.0691,-4.0482,-4.0319,-3.9993,-3.9916,-3.9798,-3.9798,-3.9723,-3.9514,-3.9484,-3.9574,-3.9424,-3.9424,-3.9219,-3.8614,-3.9,-3.9529,-3.996,-3.9838,-3.9227,-3.8906,-3.8073,-3.7156,-3.5985,-3.5664,-3.5759,-3.5823,-3.5584,-3.5489,-3.5569,-3.5489,-3.5489,-3.5489,-3.5534,-3.5998,-3.6267,-3.5833,-3.5534,-3.5504,-3.5639,-3.5938,-3.664,-3.7285,-3.7861,-4.9045,-4.897,-4.8341,-4.8671,-4.9643,-4.9628,-4.9628,-4.9628,-4.9628,-4.9269,-4.8671,-4.8671,-4.8671,-4.876,-4.9134,-4.9374,-4.9688,-5.0092,-5.0361,-5.069,-5.093,-5.093,-5.0915,-5.09,-5.1035,-5.078,-5.0945,-5.1229,-5.1229,-5.1094,-5.1199,-5.102,-5.0496,-5.0212,-4.9763,-4.9374,-4.876,-4.8192,-4.8132,-4.8192,-4.7369,-4.7309,-4.7309,-4.7309,-4.7309,-4.7309,-4.7309,-4.7309,-4.7309,-4.7309,-4.7309,-4.7085,-4.677,-4.6157,-4.5648,-4.5214,-4.4272,-4.3898,-4.3703,-4.3509,-4.3359,-4.3344,-4.3329,-4.321,-4.291,-4.294,-4.2536,-4.2043,-4.1773,-4.1654,-4.125,-4.0904,-4.0546,-4.0472,-4.0412,-4.0277,-4.0187,-4.0232,-4.0098,-3.9933,-3.9888,-3.9918,-3.9679,-3.9424,-3.9169,-3.8872,-3.9437,-3.9919,-4.0467,-4.0574,-3.9928,-3.8936,-3.8052,-3.696,-3.5799,-3.5564,-3.5504,-3.5564,-3.5579,-3.5454,-3.5469,-3.5489,-3.5489,-3.5489,-3.5519,-3.5804,-3.5878,-3.5699,-3.5684,-3.5908,-3.5938,-3.5968,-3.6842,-3.797,-3.8939,-4.8297,-4.8207,-4.7578,-4.7952,-4.891,-4.8985,-4.8985,-4.8985,-4.897,-4.8596,-4.8012,-4.7997,-4.7997,-4.8177,-4.8656,-4.894,-4.9134,-4.9553,-4.9853,-5.0092,-5.0257,-5.0316,-5.0257,-5.0242,-5.0287,-5.0122,-5.0316,-5.0571,-5.0511,-5.0616,-5.0526,-5.0421,-5.0421,-5.0242,-5.0122,-4.9763,-4.9105,-4.8401,-4.8267,-4.8341,-4.7354,-4.7309,-4.7309,-4.7309,-4.7309,-4.7309,-4.7309,-4.7309,-4.7309,-4.7309,-4.7279,-4.7189,-4.6845,-4.6381,-4.5708,-4.505,-4.4421,-4.3823,-4.3494,-4.3344,-4.3344,-4.3344,-4.3344,-4.3329,-4.3344,-4.3329,-4.288,-4.2479,-4.2417,-4.2404,-4.1821,-4.1595,-4.1475,-4.1474,-4.1309,-4.1235,-4.092,-4.0846,-4.0606,-4.0397,-4.0397,-4.0412,-3.9738,-3.9526,-3.9672,-3.9871,-4.097,-4.1198,-4.1071,-4.0992,-4.0318,-3.9249,-3.8116,-3.6884,-3.5729,-3.5654,-3.5654,-3.6184,-3.6109,-3.5603,-3.5463,-3.5514,-3.5519,-3.5489,-3.5534,-3.5609,-3.5684,-3.5744,-3.6088,-3.6477,-3.647,-3.6507,-3.7892,-3.9164,-4.0263,-4.8267,-4.8207,-4.7563,-4.7698,-4.8282,-4.8312,-4.8297,-4.8312,-4.8297,-4.7967,-4.7474,-4.7414,-4.7414,-4.7549,-4.8102,-4.8282,-4.8446,-4.897,-4.9284,-4.9344,-4.9553,-4.9419,-4.9374,-4.9434,-4.9568,-4.9344,-4.9538,-4.9658,-4.9508,-4.9643,-4.9553,-4.9718,-5.0017,-5.0242,-5.0122,-4.9015,-4.8072,-4.7474,-4.7549,-4.7504,-4.7369,-4.7309,-4.7309,-4.7309,-4.7309,-4.7309,-4.7309,-4.7309,-4.7309,-4.7309,-4.7309,-4.71,-4.6666,-4.6097,-4.5409,-4.4631,-4.3973,-4.3554,-4.3344,-4.3344,-4.3344,-4.3344,-4.3344,-4.3344,-4.3344,-4.3284,-4.3165,-4.2671,-4.288,-4.2851,-4.2794,-4.2596,-4.2342,-4.2254,-4.2044,-4.191,-4.1564,-4.1683,-4.1504,-4.1175,-4.1115,-4.0965,-4.0083,-3.9628,-4.0041,-4.0768,-4.2254,-4.2445,-4.1644,-4.1241,-4.054,-3.9496,-3.8288,-3.7534,-3.6537,-3.5878,-3.5848,-3.6505,-3.6603,-3.6096,-3.5732,-3.5642,-3.5633,-3.5549,-3.5669,-3.5848,-3.5908,-3.5938,-3.6469,-3.6963,-3.7139,-3.7491,-3.8971,-4.0091,-4.0965,-4.7638,-4.7608,-4.7399,-4.7429,-4.7623,-4.7623,-4.7623,-4.7638,-4.7623,-4.7504,-4.7339,-4.7309,-4.7309,-4.7414,-4.7489,-4.7698,-4.7788,-4.8282,-4.8611,-4.8656,-4.8955,-4.891,-4.8835,-4.891,-4.897,-4.885,-4.894,-4.9149,-4.9314,-4.9119,-4.9194,-4.9419,-4.9718,-5.0197,-5.0182,-4.9613,-4.9119,-4.8177,-4.7938,-4.7788,-4.7369,-4.7309,-4.7309,-4.7309,-4.7309,-4.7309,-4.7309,-4.7309,-4.7309,-4.7309,-4.7309,-4.713,-4.6875,-4.6441,-4.5992,-4.5229,-4.4601,-4.4182,-4.3673,-4.3344,-4.3344,-4.3344,-4.3344,-4.3344,-4.3344,-4.3344,-4.318,-4.306,-4.315,-4.3135,-4.3135,-4.2506,-4.2192,-4.2284,-4.2179,-4.2102,-4.2073,-4.2521,-4.2611,-4.2162,-4.1938,-4.2077,-4.1544,-4.0266,-4.0309,-4.0576,-4.1771,-4.1283,-4.047,-4.0696,-4.0452,-3.9549,-3.8652,-3.8102,-3.7449,-3.6776,-3.6395,-3.6896,-3.6971,-3.6634,-3.6283,-3.6141,-3.5738,-3.5624,-3.5878,-3.6118,-3.6043,-3.6199,-3.691,-3.7436,-3.7685,-3.7983,-3.891,-4.0029,-4.0923,-4.7309,-4.7309,-4.7309,-4.7309,-4.7309,-4.7309,-4.7309,-4.7309,-4.7309,-4.7309,-4.7309,-4.7309,-4.7309,-4.7309,-4.7309,-4.7309,-4.7354,-4.7698,-4.7938,-4.7997,-4.8327,-4.8222,-4.8192,-4.8356,-4.8207,-4.8162,-4.8297,-4.8521,-4.8446,-4.8536,-4.8656,-4.891,-4.9359,-4.9568,-4.9703,-4.9628,-4.9269,-4.8356,-4.7967,-4.7653,-4.7399,-4.7309,-4.7309,-4.7309,-4.7309,-4.7309,-4.7309,-4.7309,-4.7309,-4.7309,-4.7294,-4.7189,-4.7085,-4.683,-4.6396,-4.5618,-4.4945,-4.4496,-4.3913,-4.3389,-4.3374,-4.3344,-4.3344,-4.3344,-4.3344,-4.3344,-4.3344,-4.3299,-4.3344,-4.3329,-4.3195,-4.2521,-4.2506,-4.2629,-4.2629,-4.2566,-4.2656,-4.309,-4.3283,-4.2891,-4.2752,-4.2864,-4.2796,-4.1519,-4.0593,-4.0806,-4.1156,-4.0264,-3.9666,-4.0124,-4.0401,-3.9582,-3.899,-3.8571,-3.8123,-3.7644,-3.7381,-3.7371,-3.7267,-3.7187,-3.7173,-3.7083,-3.6415,-3.5774,-3.6058,-3.6237,-3.6154,-3.6445,-3.7136,-3.7871,-3.8492,-3.8772,-3.9098,-3.9895,-4.0914,-4.7309,-4.7309,-4.7309,-4.7309,-4.7309,-4.7309,-4.7309,-4.7309,-4.7309,-4.7309,-4.7309,-4.7309,-4.7309,-4.7309,-4.7309,-4.7309,-4.7309,-4.7384,-4.7414,-4.7414,-4.7623,-4.7474,-4.7459,-4.7504,-4.7593,-4.7459,-4.7504,-4.7743,-4.7414,-4.7638,-4.7923,-4.8192,-4.8506,-4.885,-4.9119,-4.9149,-4.885,-4.8312,-4.7923,-4.7608,-4.7369,-4.7309,-4.7309,-4.7309,-4.7309,-4.7309,-4.7309,-4.7309,-4.7309,-4.7309,-4.7309,-4.6935,-4.6636,-4.6381,-4.5918,-4.5409,-4.4825,-4.4496,-4.4152,-4.3688,-4.3419,-4.3374,-4.3344,-4.3344,-4.3344,-4.3344,-4.3344,-4.3344,-4.3344,-4.3344,-4.3225,-4.3195,-4.3165,-4.318,-4.318,-4.3195,-4.3195,-4.3416,-4.3639,-4.3579,-4.3464,-4.3438,-4.3214,-4.2241,-4.0921,-4.1163,-4.1168,-4.0188,-3.9748,-4.0278,-4.0309,-3.9666,-3.9215,-3.9065,-3.8676,-3.8317,-3.8287,-3.8232,-3.7993,-3.7898,-3.7955,-3.7775,-3.685,-3.6282,-3.629,-3.6462,-3.6768,-3.6941,-3.7201,-3.8003,-3.8832,-3.9143,-3.9269,-4.0017,-4.1013,-4.7309,-4.7309,-4.7309,-4.7309,-4.7309,-4.7309,-4.7309,-4.7309,-4.7309,-4.7309,-4.7309,-4.7309,-4.7309,-4.7309,-4.7309,-4.7309,-4.7309,-4.7309,-4.7324,-4.7309,-4.7309,-4.7309,-4.7309,-4.7309,-4.7309,-4.7309,-4.7309,-4.7309,-4.7339,-4.7309,-4.7339,-4.7593,-4.8012,-4.8356,-4.8476,-4.8581,-4.8431,-4.8237,-4.7923,-4.7653,-4.7384,-4.7309,-4.7309,-4.7309,-4.7309,-4.7309,-4.7309,-4.7309,-4.7309,-4.7309,-4.7309,-4.7115,-4.71,-4.6995,-4.6726,-4.6067,-4.5439,-4.4855,-4.4407,-4.4137,-4.3823,-4.3419,-4.3344,-4.3344,-4.3344,-4.3344,-4.3344,-4.3344,-4.3344,-4.3344,-4.3344,-4.3344,-4.3344,-4.3344,-4.3344,-4.3344,-4.3409,-4.3633,-4.3884,-4.396,-4.394,-4.3895,-4.3624,-4.2455,-4.1366,-4.1568,-4.1188,-4.0202,-3.9733,-4.014,-4.0209,-3.958,-3.9394,-3.923,-3.926,-3.899,-3.905,-3.9065,-3.8751,-3.8552,-3.8626,-3.8189,-3.7188,-3.6768,-3.6737,-3.7148,-3.7674,-3.7709,-3.7644,-3.8262,-3.9033,-3.9259,-3.9597,-4.0286,-4.108,-4.7309,-4.7309,-4.7309,-4.7309,-4.7309,-4.7309,-4.7309,-4.7309,-4.7309,-4.7309,-4.7309,-4.7309,-4.7309,-4.7309,-4.7309,-4.7309,-4.7309,-4.7309,-4.7309,-4.7309,-4.7309,-4.7309,-4.7309,-4.7309,-4.7309,-4.7309,-4.7309,-4.7309,-4.7309,-4.7309,-4.7324,-4.7369,-4.7788,-4.7848,-4.7967,-4.8132,-4.8132,-4.7967,-4.7788,-4.7653,-4.7474,-4.7309,-4.7309,-4.7309,-4.7309,-4.7309,-4.7309,-4.7309,-4.7309,-4.7309,-4.7309,-4.7309,-4.7294,-4.7264,-4.7234,-4.6621,-4.6082,-4.5424,-4.4885,-4.4436,-4.3958,-4.3539,-4.3344,-4.3344,-4.3344,-4.3344,-4.3344,-4.3344,-4.3344,-4.3344,-4.3344,-4.3344,-4.3344,-4.3344,-4.3344,-4.3344,-4.3566,-4.3849,-4.4004,-4.4159,-4.4235,-4.4358,-4.3701,-4.2516,-4.1611,-4.1518,-4.1076,-4.0221,-3.9685,-3.9733,-3.9844,-3.9466,-3.9424,-3.9379,-3.9424,-3.9424,-3.9364,-3.9305,-3.9245,-3.9077,-3.9184,-3.8692,-3.7764,-3.7362,-3.7153,-3.7649,-3.8302,-3.8087,-3.8082,-3.8732,-3.9319,-3.9779,-4.0102,-4.0385,-4.128,-4.7309,-4.7294,-4.7249,-4.7174,-4.7219,-4.71,-4.71,-4.7219,-4.7174,-4.7249,-4.7279,-4.7309,-4.7309,-4.7309,-4.7309,-4.7309,-4.7309,-4.7309,-4.7309,-4.7309,-4.7309,-4.7309,-4.7309,-4.7309,-4.7309,-4.7309,-4.7309,-4.7309,-4.7309,-4.7309,-4.7309,-4.7309,-4.7369,-4.7444,-4.7534,-4.7848,-4.7848,-4.7578,-4.7489,-4.7384,-4.7369,-4.7309,-4.7309,-4.7309,-4.7309,-4.7309,-4.7309,-4.7309,-4.7309,-4.7309,-4.7309,-4.7309,-4.7309,-4.7309,-4.7264,-4.7145,-4.6651,-4.6097,-4.5424,-4.4885,-4.4212,-4.3733,-4.3374,-4.3344,-4.3344,-4.3344,-4.3344,-4.3344,-4.3344,-4.3344,-4.3344,-4.3344,-4.3344,-4.3344,-4.3344,-4.3344,-4.3409,-4.3771,-4.4159,-4.4312,-4.451,-4.448,-4.368,-4.2479,-4.2059,-4.161,-4.0843,-4.0121,-3.9808,-3.97,-3.9496,-3.9439,-3.9424,-3.9424,-3.9424,-3.9424,-3.9424,-3.9409,-3.9424,-3.9349,-3.9253,-3.8938,-3.8437,-3.8002,-3.7697,-3.8311,-3.8706,-3.8582,-3.8622,-3.9063,-3.9701,-4.0368,-4.0733,-4.0863,-4.1543,-4.7309,-4.7249,-4.677,-4.6546,-4.6486,-4.5992,-4.6097,-4.6546,-4.6561,-4.6845,-4.7234,-4.7294,-4.7309,-4.7309,-4.7309,-4.7309,-4.7309,-4.7309,-4.7309,-4.7309,-4.7309,-4.7309,-4.7309,-4.7309,-4.7309,-4.7309,-4.7309,-4.7309,-4.7309,-4.7309,-4.7309,-4.7309,-4.7309,-4.7309,-4.7309,-4.7623,-4.7489,-4.7309,-4.7309,-4.7309,-4.7309,-4.7309,-4.7309,-4.7309,-4.7309,-4.7309,-4.7309,-4.7309,-4.7309,-4.7309,-4.7309,-4.7309,-4.7309,-4.7309,-4.7309,-4.7264,-4.71,-4.6621,-4.6037,-4.5394,-4.4781,-4.4137,-4.3733,-4.3464,-4.3344,-4.3344,-4.3344,-4.3344,-4.3344,-4.3344,-4.3344,-4.3344,-4.3344,-4.3344,-4.3344,-4.3344,-4.3344,-4.3786,-4.422,-4.4419,-4.46,-4.4113,-4.3401,-4.2877,-4.2488,-4.1758,-4.0889,-4.0254,-4.0076,-3.9926,-3.9616,-3.9514,-3.9439,-3.9424,-3.9424,-3.9424,-3.9424,-3.9424,-3.9424,-3.9364,-3.9376,-3.9035,-3.8594,-3.843,-3.8385,-3.8784,-3.911,-3.92,-3.9286,-3.9474,-3.9646,-4.0139,-4.117,-4.1543,-4.2189,-4.6426,-4.6367,-4.6022,-4.5858,-4.5798,-4.5454,-4.5514,-4.5873,-4.6187,-4.6531,-4.689,-4.7145,-4.7309,-4.7309,-4.7309,-4.7309,-4.7309,-4.7309,-4.7309,-4.7309,-4.7309,-4.7309,-4.7309,-4.7309,-4.7309,-4.7309,-4.7309,-4.7309,-4.7309,-4.7309,-4.7309,-4.7309,-4.7309,-4.7309,-4.7309,-4.7309,-4.7309,-4.7309,-4.7309,-4.7309,-4.7309,-4.7309,-4.7309,-4.7309,-4.7309,-4.7309,-4.7309,-4.7309,-4.7309,-4.7309,-4.7309,-4.7309,-4.7309,-4.7309,-4.7309,-4.7309,-4.7204,-4.701,-4.6441,-4.5933,-4.5409,-4.4796,-4.4152,-4.3898,-4.3748,-4.3718,-4.3359,-4.3344,-4.3344,-4.3344,-4.3344,-4.3344,-4.3344,-4.3344,-4.3344,-4.3344,-4.3344,-4.3551,-4.3771,-4.3849,-4.3897,-4.3819,-4.3254,-4.3225,-4.2787,-4.2361,-4.1414,-4.0738,-4.0543,-4.0259,-3.9961,-3.9649,-3.9604,-3.9484,-3.9424,-3.9424,-3.9424,-3.9424,-3.9424,-3.9394,-3.9349,-3.9158,-3.8835,-3.8788,-3.8773,-3.9038,-3.9262,-3.9337,-3.9424,-3.9436,-3.9607,-3.9833,-4.0912,-4.1933,-4.2583,-4.5334,-4.5289,-4.5214,-4.517,-4.514,-4.505,-4.508,-4.5244,-4.5783,-4.6157,-4.6426,-4.6935,-4.7174,-4.7294,-4.7309,-4.7309,-4.7309,-4.7309,-4.7309,-4.7309,-4.7309,-4.7309,-4.7309,-4.7309,-4.7309,-4.7309,-4.7309,-4.7309,-4.7309,-4.7309,-4.7309,-4.7309,-4.7309,-4.7309,-4.7309,-4.7309,-4.7309,-4.7309,-4.7309,-4.7309,-4.7309,-4.7309,-4.7309,-4.7309,-4.7309,-4.7309,-4.7309,-4.7309,-4.7309,-4.7309,-4.7309,-4.7309,-4.7309,-4.7309,-4.7309,-4.7309,-4.7309,-4.701,-4.6621,-4.6337,-4.5918,-4.5439,-4.4796,-4.4392,-4.4227,-4.3913,-4.3569,-4.3359,-4.3359,-4.3344,-4.3344,-4.3344,-4.3344,-4.3344,-4.3344,-4.3344,-4.3329,-4.3329,-4.3329,-4.3409,-4.3329,-4.3329,-4.3329,-4.3314,-4.3021,-4.2639,-4.2164,-4.1592,-4.11,-4.0845,-4.0531,-4.0157,-3.9873,-3.9723,-3.9499,-3.9424,-3.9424,-3.9424,-3.9424,-3.9424,-3.9337,-3.9233,-3.9145,-3.9262,-3.9307,-3.9292,-3.9307,-3.9424,-3.9424,-3.9424,-3.9489,-3.9756,-4.0572,-4.1609,-4.252,-4.5289,-4.5244,-4.4736,-4.4496,-4.4421,-4.3958,-4.3988,-4.4466,-4.4661,-4.5259,-4.6082,-4.6411,-4.6756,-4.7294,-4.7309,-4.7264,-4.716,-4.7249,-4.7309,-4.7309,-4.7309,-4.7309,-4.7309,-4.7309,-4.7309,-4.7309,-4.7309,-4.7309,-4.7309,-4.7309,-4.7309,-4.7309,-4.7309,-4.7309,-4.7309,-4.7309,-4.7309,-4.7309,-4.7309,-4.7309,-4.7309,-4.7309,-4.7309,-4.7309,-4.7309,-4.7309,-4.7309,-4.7309,-4.7309,-4.7309,-4.7309,-4.7309,-4.7309,-4.7309,-4.7309,-4.7309,-4.7309,-4.7219,-4.6935,-4.6651,-4.6262,-4.6127,-4.5484,-4.484,-4.4586,-4.4197,-4.3838,-4.3464,-4.3419,-4.3359,-4.3344,-4.3344,-4.3344,-4.3344,-4.3344,-4.3344,-4.3344,-4.3344,-4.3344,-4.3344,-4.3344,-4.3344,-4.3329,-4.3329,-4.3329,-4.2962,-4.2639,-4.2082,-4.1861,-4.1503,-4.122,-4.0741,-4.0292,-3.9828,-3.9544,-3.9439,-3.9424,-3.9424,-3.9424,-3.9424,-3.9424,-3.9424,-3.9424,-3.9424,-3.9424,-3.9337,-3.9424,-3.9424,-3.9424,-3.9424,-3.9409,-3.9692,-4.0447,-4.1147,-4.1997]}]]